Date StartTime U_cm/s V_cm/s W_cm/s Ustd_cm/s Vstd_cm/s Wstd_cm/s Uvar_(cm/s)^2 Vvar_(cm/s)^2 Wvar_(cm/s)^2 KE_(m/s)^2 TurbulentKE_(m/s)^2 HorizWindSpeed_cm/s FrictionSpeec_cm/s DragCoef SpeedOfSound_m/s SonicTemperature_C Pressure_mb 
12/06/2013  00:00:00      -80.351      -12.323       -2.754       56.764       36.407       26.826     3222.130     1325.491      719.639        0.594        0.263       81.290       28.631        0.124      326.010       -9.401      858.915
12/06/2013  00:01:00     -107.113       25.099      -13.521       67.725       43.900       33.434     4586.740     1927.254     1117.839        0.996        0.382      110.014       36.473        0.110      325.849       -9.664      858.918
12/06/2013  00:02:00     -152.490       31.196      -17.176       49.735       34.453       21.616     2473.525     1187.023      467.246        1.432        0.206      155.648        8.515        0.003      325.857       -9.650      858.912
12/06/2013  00:03:00      -54.772       -5.518       -9.650       45.915       18.977       16.170     2108.198      360.112      261.480        0.293        0.136       55.050       19.660        0.128      325.908       -9.568      858.877
12/06/2013  00:04:00       -7.851        0.482        2.191       18.803        8.668       10.169      353.536       75.129      103.417        0.030        0.027        7.866        6.986        0.789      326.130       -9.208      858.833
12/06/2013  00:05:00      -24.751        3.703      -11.617       16.267       15.551        7.315      264.619      241.821       53.506        0.066        0.028       25.026        9.415        0.142      326.214       -9.072      858.806
12/06/2013  00:06:00      -21.211        4.588       -8.783       18.019       13.886       12.229      324.688      192.819      149.560        0.061        0.033       21.701        8.388        0.149      326.330       -8.883      858.800
12/06/2013  00:07:00      -43.101      -17.187       -6.680       40.494       14.553       11.280     1639.799      211.798      127.238        0.209        0.099       46.401       15.734        0.115      326.183       -9.124      858.799
12/06/2013  00:08:00     -111.962       -6.400       -9.247       33.771       31.125       19.362     1140.479      968.761      374.894        0.757        0.124      112.144       17.619        0.025      325.958       -9.488      858.813
12/06/2013  00:09:00      -13.693        7.242        4.326       26.081       24.031       12.473      680.220      577.495      155.583        0.084        0.071       15.490       12.558        0.657      326.074       -9.299      858.813
12/06/2013  00:10:00      -31.128       29.697       -9.461       21.162       27.262       14.756      447.815      743.228      217.754        0.167        0.070       43.022       15.522        0.130      326.483       -8.636      858.794
12/06/2013  00:11:00      -25.616       22.105        0.993       25.496       23.906       16.263      650.034      571.504      264.500        0.132        0.074       33.835       14.900        0.194      326.669       -8.334      858.788
12/06/2013  00:12:00      -37.301       -6.415        0.302       22.570       19.636       14.020      509.425      385.577      196.553        0.126        0.055       37.849       13.495        0.127      326.338       -8.873      858.787
12/06/2013  00:13:00       -2.689       -6.475        4.706       25.644       18.775       20.122      657.633      352.490      404.901        0.074        0.071        7.011       12.899        3.385      326.150       -9.176      858.759
12/06/2013  00:14:00       -3.572       -2.576       -8.792       12.184       10.085        8.396      148.445      101.715       70.494        0.021        0.016        4.404        5.450        1.531      326.223       -9.058      858.732
12/06/2013  00:15:00       13.632        6.580        3.809       16.442       12.044        7.900      270.324      145.051       62.418        0.036        0.024       15.137        6.233        0.170      326.467       -8.663      858.692
12/06/2013  00:16:00       16.215       11.337        6.393       11.093       10.460       10.903      123.047      109.409      118.880        0.039        0.018       19.785        8.270        0.175      326.514       -8.586      858.645
12/06/2013  00:17:00       22.164        9.943        4.623        9.032        9.292       17.784       81.577       86.339      316.256        0.055        0.024       24.292        6.186        0.065      326.540       -8.543      858.633
12/06/2013  00:18:00       50.700       32.620       12.080       16.169       15.180       14.272      261.449      230.425      203.700        0.224        0.035       60.287        4.954        0.007      326.474       -8.650      858.644
12/06/2013  00:19:00       21.873       30.886        4.661       14.122        8.203        9.031      199.425       67.295       81.559        0.090        0.017       37.847        8.893        0.055      326.470       -8.658      858.648
12/06/2013  00:20:00        1.648       56.078      -11.588        8.650       12.063        5.912       74.829      145.509       34.956        0.177        0.013       56.103        4.564        0.007      326.524       -8.572      858.625
12/06/2013  00:21:00       -8.536       54.122       -2.309       18.781       22.547       11.357      352.730      508.348      128.985        0.200        0.050       54.791        4.832        0.008      326.534       -8.555      858.613
12/06/2013  00:22:00      -13.778       -3.222       -0.834       10.227        8.861        8.164      104.597       78.517       66.657        0.023        0.012       14.149        7.215        0.260      326.535       -8.552      858.614
12/06/2013  00:23:00       33.120       14.647        9.730       27.931       19.693       12.359      780.147      387.819      152.747        0.136        0.066       36.214        7.223        0.040      326.636       -8.389      858.589
12/06/2013  00:24:00       64.888       57.217       22.704       28.109       12.638       22.287      790.101      159.730      496.704        0.472        0.072       86.511       16.422        0.036      326.679       -8.319      858.534
12/06/2013  00:25:00        4.012       16.973       35.121       10.863       15.947        8.415      117.999      254.320       70.807        0.099        0.022       17.441        7.721        0.196      326.648       -8.370      858.506
12/06/2013  00:26:00      -11.315       -9.243       10.500        9.153       14.328       11.728       83.775      205.288      137.542        0.038        0.021       14.610        7.044        0.232      326.770       -8.171      858.514
12/06/2013  00:27:00      -39.749       -6.128        3.069       20.850       18.109       15.006      434.735      327.926      225.180        0.131        0.049       40.219       14.823        0.136      326.606       -8.437      858.537
12/06/2013  00:28:00      -31.029       -7.945       -4.378       17.520       17.128        9.281      306.943      293.385       86.144        0.087        0.034       32.030        6.167        0.037      326.451       -8.687      858.545
12/06/2013  00:29:00      -16.534        8.375       -6.278       17.205        7.320        4.797      296.016       53.580       23.009        0.038        0.019       18.534        5.258        0.080      326.451       -8.689      858.532
12/06/2013  00:30:00        5.904        9.179       13.233        9.648       15.107       13.115       93.077      228.232      171.993        0.039        0.025       10.914        8.969        0.675      326.518       -8.581      858.522
12/06/2013  00:31:00        6.147      -20.498       17.733       33.717       45.279       30.268     1136.821     2050.183      916.152        0.244        0.205       21.400       31.241        2.131      326.745       -8.211      858.512
12/06/2013  00:32:00        7.184      -31.369        0.697       20.422       23.658       18.847      417.077      559.683      355.200        0.118        0.067       32.181       18.782        0.341      326.801       -8.121      858.481
12/06/2013  00:33:00      -21.320      -13.829       -2.604       38.736       21.148       16.190     1500.444      447.227      262.116        0.143        0.110       25.413       10.554        0.172      326.766       -8.178      858.459
12/06/2013  00:34:00      -69.936      -23.401       -5.644       18.839       15.443       10.806      354.891      238.484      116.778        0.309        0.036       73.747       11.074        0.023      326.503       -8.604      858.460
12/06/2013  00:35:00      -64.686      -11.687       -1.808       26.123       23.103       18.200      682.411      533.752      331.256        0.294        0.077       65.733       16.152        0.060      326.444       -8.699      858.466
12/06/2013  00:36:00      -37.602        2.168       -1.532       36.961       23.397       15.240     1366.132      547.440      232.263        0.178        0.107       37.665       17.435        0.214      326.427       -8.727      858.440
12/06/2013  00:37:00      -50.445       24.534       -9.499       21.922       16.826       10.700      480.564      283.117      114.492        0.206        0.044       56.095       10.257        0.033      326.302       -8.930      858.421
12/06/2013  00:38:00      -45.484       24.202       -8.336       18.919       16.759       10.957      357.930      280.876      120.061        0.174        0.038       51.522       10.995        0.046      326.466       -8.664      858.413
12/06/2013  00:39:00        3.024        2.838       12.901       12.220        7.894       11.974      149.329       62.313      143.385        0.027        0.018        4.147        8.921        4.628      326.610       -8.429      858.428
12/06/2013  00:40:00       -1.932        9.307       13.881       16.098       13.579       10.904      259.141      184.385      118.904        0.042        0.028        9.505       10.918        1.319      326.543       -8.539      858.463
12/06/2013  00:41:00      -26.325       13.862       -3.861       10.897        9.622        5.833      118.747       92.582       34.021        0.057        0.012       29.751        5.507        0.034      326.473       -8.651      858.468
12/06/2013  00:42:00      -25.517       10.977      -13.602       12.607       17.225       10.105      158.926      296.701      102.105        0.076        0.028       27.778        6.007        0.047      326.353       -8.848      858.464
12/06/2013  00:43:00      -75.603       -8.002       -4.700       34.835       33.502       22.384     1213.489     1122.400      501.024        0.432        0.142       76.025       10.887        0.021      326.243       -9.026      858.456
12/06/2013  00:44:00      -58.021        5.265       -5.577       30.824       18.437       14.087      950.128      339.930      198.440        0.246        0.074       58.260       15.346        0.069      326.240       -9.029      858.434
12/06/2013  00:45:00      -66.399       22.886      -17.905       23.642       21.134       15.635      558.951      446.645      244.456        0.325        0.063       70.233       14.654        0.044      326.269       -8.984      858.395
12/06/2013  00:46:00      -53.979       24.007      -13.059       16.718       19.890       12.937      279.506      395.622      167.364        0.225        0.042       59.076        9.163        0.024      326.365       -8.829      858.370
12/06/2013  00:47:00      -58.006       27.968      -22.034       14.505       18.108       11.026      210.381      327.912      121.572        0.265        0.033       64.397        7.433        0.013      326.433       -8.717      858.359
12/06/2013  00:48:00      -45.643       29.121       -4.714       13.262       17.455       12.850      175.871      304.689      165.120        0.180        0.032       54.141        9.697        0.032      326.606       -8.437      858.333
12/06/2013  00:49:00      -32.833       27.870       -3.798       21.913       29.523       16.114      480.161      871.592      259.660        0.174        0.081       43.066       15.970        0.138      326.668       -8.336      858.323
12/06/2013  00:50:00      -80.541       31.853       -6.881       19.182       21.883       13.133      367.939      478.877      172.484        0.428        0.051       86.611        6.770        0.006      326.644       -8.374      858.330
12/06/2013  00:51:00      -61.744       -0.124       -8.379       18.655       13.797        9.993      348.000      190.366       99.862        0.226        0.032       61.744        6.030        0.010      326.550       -8.528      858.321
12/06/2013  00:52:00      -16.964       -5.517       -4.794       23.772        6.880        7.354      565.085       47.336       54.080        0.050        0.033       17.839        9.230        0.268      326.571       -8.494      858.303
12/06/2013  00:53:00       76.993       45.293        2.437       20.152       15.831       16.326      406.115      250.611      266.523        0.445        0.046       89.328        4.290        0.002      326.715       -8.260      858.289
12/06/2013  00:54:00       82.440       45.343       13.825       22.815       16.507       21.335      520.547      272.469      455.173        0.515        0.062       94.087       15.278        0.026      326.725       -8.245      858.301
12/06/2013  00:55:00       23.426       32.442        8.830       19.730       18.146       15.406      389.284      329.284      237.346        0.132        0.048       40.016        6.040        0.023      326.746       -8.212      858.318
12/06/2013  00:56:00      -26.072       12.339       -8.285       15.382        8.802       11.764      236.602       77.475      138.393        0.068        0.023       28.844        7.014        0.059      326.700       -8.286      858.362
12/06/2013  00:57:00      -59.316       -7.845       -8.410       19.327       17.443       12.411      373.536      304.248      154.042        0.224        0.042       59.833        9.793        0.027      326.639       -8.383      858.397
12/06/2013  00:58:00      -70.852      -28.050       -6.305       29.961       31.391       19.082      897.664      985.412      364.133        0.405        0.112       76.203       12.191        0.026      326.577       -8.484      858.406
12/06/2013  00:59:00        1.236       -7.956        7.133       16.838       21.919       13.587      283.533      480.459      184.607        0.053        0.047        8.052        9.055        1.265      326.552       -8.525      858.373
12/06/2013  01:00:00       42.359       46.382        9.371       17.704       13.177       14.014      313.441      173.638      196.392        0.236        0.034       62.814        6.467        0.011      326.703       -8.282      858.327
12/06/2013  01:01:00       43.128       46.390        6.300       20.163       14.618       13.610      406.547      213.700      185.246        0.243        0.040       63.341        7.133        0.013      326.746       -8.208      858.316
12/06/2013  01:02:00      -34.930       25.899      -10.396       17.248       15.201        9.032      297.489      231.085       81.579        0.130        0.031       43.484        8.001        0.034      326.680       -8.315      858.369
12/06/2013  01:03:00      -78.524        5.692       -6.837       26.044       25.695       16.238      678.294      660.230      263.669        0.392        0.080       78.730       15.040        0.036      326.625       -8.406      858.406
12/06/2013  01:04:00      -70.703        8.250      -13.877       39.210       29.472       21.053     1537.455      868.580      443.224        0.405        0.142       71.183        9.508        0.018      326.570       -8.495      858.406
12/06/2013  01:05:00      -98.133       -9.044       -6.271       27.661       21.670       13.674      765.154      469.584      186.973        0.559        0.071       98.549       10.994        0.012      326.517       -8.581      858.414
12/06/2013  01:06:00      -17.394      -15.984        4.958       25.403       12.534       12.885      645.324      157.090      166.028        0.078        0.048       23.623       12.246        0.269      326.575       -8.488      858.414
12/06/2013  01:07:00      -43.760       -7.562       -1.040       14.677        9.450        7.282      215.425       89.293       53.028        0.117        0.018       44.408        5.364        0.015      326.672       -8.330      858.389
12/06/2013  01:08:00      -69.647       19.795       -9.998       13.085       10.804        7.665      171.209      116.727       58.755        0.284        0.017       72.406        2.061        0.001      326.704       -8.279      858.346
12/06/2013  01:09:00      -77.720       -4.878      -10.028       17.503        9.857       10.556      306.371       97.165      111.428        0.334        0.026       77.873        6.502        0.007      326.760       -8.187      858.311
12/06/2013  01:10:00      -31.210      -21.361        2.135       25.114       12.542        7.301      630.692      157.296       53.300        0.114        0.042       37.820        7.682        0.041      326.843       -8.052      858.281
12/06/2013  01:11:00       -5.264      -11.415        3.285        8.046        9.596        7.994       64.742       92.081       63.903        0.019        0.011       12.570        5.802        0.213      326.874       -8.000      858.250
12/06/2013  01:12:00       41.893       20.708        8.046       26.374       10.728       10.788      695.603      115.086      116.371        0.159        0.046       46.732       10.934        0.055      326.821       -8.089      858.225
12/06/2013  01:13:00       22.540       36.687       29.839       17.808       17.761       19.891      317.123      315.466      395.649        0.189        0.051       43.057        9.462        0.048      326.778       -8.158      858.211
12/06/2013  01:14:00       51.320       42.999       18.636       20.676       21.182       22.663      427.479      448.674      513.601        0.311        0.069       66.953       19.644        0.086      326.848       -8.044      858.199
12/06/2013  01:15:00       35.332       10.505       -5.151       15.945       10.015        8.306      254.259      100.297       68.983        0.090        0.021       36.861        3.831        0.011      326.867       -8.012      858.183
12/06/2013  01:16:00      -16.356       19.143       -2.210       10.838        5.841        6.631      117.472       34.120       43.970        0.042        0.010       25.179        4.307        0.029      326.840       -8.055      858.164
12/06/2013  01:17:00       -9.322       12.832        3.167       17.128        7.489        8.938      293.365       56.089       79.887        0.035        0.021       15.860        6.705        0.179      326.828       -8.077      858.161
12/06/2013  01:18:00        7.616       14.476        6.517        9.534       15.103        9.936       90.894      228.086       98.725        0.036        0.021       16.357        5.726        0.123      326.810       -8.106      858.171
12/06/2013  01:19:00       64.639       38.431        2.315       16.948       11.635       12.080      287.237      135.362      145.927        0.311        0.028       75.201        7.510        0.010      326.850       -8.041      858.184
12/06/2013  01:20:00       60.531       42.359        4.993       18.620       19.841       13.725      346.691      393.651      188.382        0.321        0.046       73.880        7.997        0.012      326.768       -8.174      858.198
12/06/2013  01:21:00       56.328       36.339        2.794       23.439       21.572       18.498      549.399      465.346      342.161        0.293        0.068       67.033       12.384        0.034      326.732       -8.233      858.211
12/06/2013  01:22:00       17.432       46.464       -5.031       19.242       33.557       17.074      370.245     1126.094      291.518        0.214        0.089       49.626       19.641        0.157      326.690       -8.301      858.234
12/06/2013  01:23:00        0.816       94.692      -16.338       11.994       19.925        8.678      143.848      397.011       75.312        0.493        0.031       94.696        5.187        0.003      326.793       -8.133      858.232
12/06/2013  01:24:00        8.250      108.533       -8.649        9.277       14.065        9.022       86.070      197.824       81.395        0.614        0.018      108.846        6.706        0.004      326.726       -8.245      858.208
12/06/2013  01:25:00       22.632       80.425      -11.853       11.071       16.829       11.033      122.578      283.207      121.735        0.382        0.026       83.548       10.024        0.014      326.599       -8.449      858.166
12/06/2013  01:26:00       18.630       51.018      -10.125       10.864       23.370       10.041      118.024      546.148      100.831        0.191        0.038       54.313       10.765        0.039      326.609       -8.432      858.137
12/06/2013  01:27:00      -18.043       46.904      -10.632       15.853       10.087        7.542      251.317      101.756       56.881        0.152        0.020       50.254        8.949        0.032      326.763       -8.184      858.122
12/06/2013  01:28:00      -59.250       30.917       -9.979       20.846       22.280        9.296      434.557      496.379       86.410        0.279        0.051       66.831        6.033        0.008      326.715       -8.263      858.127
12/06/2013  01:29:00      -66.513       26.215       -7.289       22.482       18.292       13.186      505.445      334.580      173.879        0.309        0.051       71.493        7.912        0.012      326.649       -8.368      858.160
12/06/2013  01:30:00      -65.022       12.039       -3.566       18.776       14.033        9.069      352.555      196.930       82.242        0.251        0.032       66.127        4.744        0.005      326.693       -8.296      858.186
12/06/2013  01:31:00      -17.590       -5.873        1.897       14.153       11.238        8.792      200.306      126.292       77.294        0.038        0.020       18.544        8.758        0.223      326.748       -8.208      858.177
12/06/2013  01:32:00        6.733       15.308       -3.818       21.200        7.442        8.550      449.420       55.384       73.099        0.044        0.029       16.723        5.441        0.106      326.797       -8.126      858.180
12/06/2013  01:33:00      -42.544       25.733       -9.043       24.756       16.626       10.158      612.883      276.440      103.192        0.177        0.050       49.721        9.724        0.038      326.847       -8.046      858.230
12/06/2013  01:34:00      -94.785       19.064      -14.852       34.451       24.927       18.573     1186.905      621.362      344.949        0.586        0.108       96.684       14.307        0.022      326.640       -8.381      858.291
12/06/2013  01:35:00     -125.430       49.747      -13.179       41.101       28.596       22.473     1689.298      817.704      505.032        1.070        0.151      134.935       18.753        0.019      326.458       -8.677      858.324
12/06/2013  01:36:00       -5.710       54.381       12.539       41.925       29.821       23.497     1757.731      889.264      552.131        0.317        0.160       54.679       14.729        0.073      326.664       -8.342      858.308
12/06/2013  01:37:00       15.637      124.442      -18.176       27.360       28.990       22.986      748.544      840.438      528.349        0.909        0.106      125.421       16.728        0.018      326.768       -8.174      858.294
12/06/2013  01:38:00      -11.503       34.987       -9.470       34.288       43.719       12.474     1175.700     1911.349      155.607        0.234        0.162       36.829       10.428        0.080      326.725       -8.245      858.341
12/06/2013  01:39:00     -144.930      -34.296       -8.476       67.808       47.880       20.754     4597.968     2292.535      430.728        1.479        0.366      148.932       16.186        0.012      326.660       -8.351      858.390
12/06/2013  01:40:00     -121.077      -43.106      -15.084       53.161       55.380       27.272     2826.094     3066.971      743.776        1.169        0.332      128.521       18.101        0.020      326.377       -8.809      858.392
12/06/2013  01:41:00        5.456        3.374       -2.740       32.079       15.074       12.353     1029.041      227.232      152.605        0.073        0.070        6.415       15.337        5.717      326.536       -8.552      858.340
12/06/2013  01:42:00       50.666       20.293       11.989       20.928       15.724       11.710      437.974      247.232      137.122        0.197        0.041       54.578        8.856        0.026      326.681       -8.317      858.299
12/06/2013  01:43:00      -64.688       22.810       -7.059       40.279       25.901       15.460     1622.397      670.873      239.015        0.364        0.127       68.592       13.460        0.039      326.600       -8.447      858.329
12/06/2013  01:44:00     -134.980       35.857      -20.994       69.113       48.996       28.850     4776.655     2400.614      832.312        1.398        0.400      139.661       26.389        0.036      326.355       -8.844      858.372
12/06/2013  01:45:00      -39.794       -8.270       -1.373       48.573       33.420       18.927     2359.333     1116.879      358.229        0.274        0.192       40.645       20.890        0.264      326.364       -8.829      858.385
12/06/2013  01:46:00      102.915       46.234       -2.743       64.987       45.323       32.272     4223.268     2054.161     1041.494        1.003        0.366      112.824       25.215        0.050      326.649       -8.368      858.359
12/06/2013  01:47:00      126.784       84.537       29.182       70.247       30.169       29.742     4934.628      910.198      884.597        1.540        0.336      152.384       21.605        0.020      326.576       -8.487      858.330
12/06/2013  01:48:00      -92.765       22.006       -8.565       87.468       26.153       25.465     7650.567      683.998      648.469        0.907        0.449       95.339       33.895        0.126      326.543       -8.540      858.405
12/06/2013  01:49:00     -232.272      -39.979      -25.338       76.729       66.628       31.818     5887.397     4439.340     1012.365        3.376        0.567      235.687       28.046        0.014      326.338       -8.876      858.444
12/06/2013  01:50:00     -136.356       -1.017      -19.809       71.539       36.786       25.466     5117.860     1353.196      648.520        1.305        0.356      136.360       23.715        0.030      326.269       -8.985      858.443
12/06/2013  01:51:00       61.522       10.104       13.338       52.773       49.647       27.269     2785.028     2464.845      743.587        0.503        0.300       62.347       15.569        0.062      326.554       -8.520      858.388
12/06/2013  01:52:00       69.129       59.034       39.590       45.327       39.235       42.478     2054.518     1539.406     1804.376        0.761        0.270       90.905       33.099        0.133      326.694       -8.294      858.330
12/06/2013  01:53:00       20.744       31.482       -2.251       51.665       23.818       14.724     2669.289      567.292      216.800        0.244        0.173       37.702       21.352        0.321      326.617       -8.418      858.357
12/06/2013  01:54:00      -95.613       35.009      -13.405       39.943       32.066       23.533     1595.438     1028.227      553.797        0.686        0.159      101.821       18.674        0.034      326.720       -8.251      858.424
12/06/2013  01:55:00     -114.516       33.391      -13.537       40.325       25.908       19.231     1626.090      671.247      369.838        0.854        0.133      119.285       14.442        0.015      326.560       -8.512      858.450
12/06/2013  01:56:00      -18.327       -7.156       -9.783       41.946       16.310       15.369     1759.490      266.010      236.197        0.137        0.113       19.675       18.319        0.867      326.540       -8.544      858.398
12/06/2013  01:57:00       91.256       49.718       19.452       30.314       26.585       23.832      918.939      706.762      567.952        0.669        0.110      103.920       17.937        0.030      326.751       -8.202      858.349
12/06/2013  01:58:00      -20.016       33.209       12.852       25.939       26.169       25.623      672.819      684.817      656.542        0.184        0.101       38.775        5.811        0.022      326.686       -8.307      858.388
12/06/2013  01:59:00      -62.759        3.064      -11.340       37.038       16.129       10.541     1371.789      260.140      111.104        0.291        0.087       62.833        9.667        0.024      326.673       -8.329      858.450
12/06/2013  02:00:00      -63.389      -39.740        0.269       30.331       26.130       15.490      919.979      682.759      239.926        0.372        0.092       74.816       16.408        0.048      326.581       -8.479      858.448
12/06/2013  02:01:00      -45.043      -21.986        1.833       28.296       27.595       14.554      800.642      761.479      211.815        0.214        0.089       50.123       12.060        0.058      326.668       -8.338      858.408
12/06/2013  02:02:00      -24.942      -31.045       -7.845       35.787       23.786       13.206     1280.681      565.755      174.407        0.183        0.101       39.823        6.257        0.025      326.713       -8.265      858.370
12/06/2013  02:03:00       14.690       18.062       20.427       31.913       15.070       16.395     1018.429      227.091      268.783        0.124        0.076       23.281       15.260        0.430      326.729       -8.239      858.342
12/06/2013  02:04:00       15.316       21.872        8.720       25.279       27.039       21.441      639.038      731.104      459.705        0.131        0.091       26.702        7.852        0.086      326.681       -8.320      858.342
12/06/2013  02:05:00       -7.637       -0.822       14.272       19.033       12.885       14.003      362.246      166.033      196.088        0.049        0.036        7.681        5.065        0.435      326.714       -8.264      858.358
12/06/2013  02:06:00        3.421       23.313       -7.873       14.124       14.640        7.272      199.498      214.333       52.889        0.054        0.023       23.563        7.196        0.093      326.686       -8.310      858.352
12/06/2013  02:07:00      -11.445       -8.689       -2.598       14.549       10.906       10.275      211.672      118.937      105.581        0.032        0.022       14.370        6.183        0.185      326.659       -8.353      858.341
12/06/2013  02:08:00      -47.339      -30.634       -2.795       23.951       16.813       15.925      573.659      282.666      253.612        0.215        0.055       56.386       14.110        0.063      326.688       -8.304      858.334
12/06/2013  02:09:00      -37.249      -19.317        0.331       28.952       18.676       13.071      838.238      348.799      170.846        0.156        0.068       41.960       10.261        0.060      326.693       -8.298      858.328
12/06/2013  02:10:00      -47.900       -5.665        0.953       21.036        9.399        9.736      442.520       88.337       94.789        0.148        0.031       48.234        7.780        0.026      326.591       -8.460      858.306
12/06/2013  02:11:00      -38.400      -17.454       -8.529       23.688       10.687        6.493      561.103      114.202       42.165        0.128        0.036       42.181        7.413        0.031      326.711       -8.268      858.288
12/06/2013  02:12:00      -73.493      -26.838       -0.627       19.477       16.454       10.553      379.351      270.748      111.356        0.344        0.038       78.241        7.971        0.010      326.679       -8.319      858.300
12/06/2013  02:13:00      -68.884      -26.724        0.716       27.508       21.352       11.680      756.670      455.892      136.419        0.340        0.067       73.887       12.276        0.028      326.656       -8.355      858.321
12/06/2013  02:14:00     -120.600      -47.567       -4.601       15.005       13.645        7.995      225.158      186.187       63.927        0.865        0.024      129.642        4.133        0.001      326.628       -8.402      858.344
12/06/2013  02:15:00     -118.004      -32.968       -3.385       25.870       23.796       20.796      669.265      566.231      432.453        0.835        0.083      122.522       15.182        0.015      326.582       -8.476      858.358
12/06/2013  02:16:00      -65.599      -18.988       -0.609       24.784       21.154       13.970      614.238      447.511      195.147        0.296        0.063       68.292        7.249        0.011      326.457       -8.679      858.351
12/06/2013  02:17:00      -78.385      -16.242       -6.394       19.752       17.753       12.431      390.129      315.168      154.518        0.365        0.043       80.050        9.156        0.013      326.493       -8.620      858.334
12/06/2013  02:18:00     -178.297      -71.230       -7.965       41.078       40.291       23.244     1687.370     1623.386      540.300        2.039        0.193      191.999       18.207        0.009      326.372       -8.819      858.322
12/06/2013  02:19:00     -119.859      -48.052       -4.104       46.199       38.815       20.940     2134.393     1506.594      438.464        1.038        0.204      129.133       11.935        0.009      326.359       -8.838      858.293
12/06/2013  02:20:00     -104.527       -8.730      -10.134       28.418       20.646       15.047      807.591      426.263      226.422        0.628        0.073      104.891       11.177        0.011      326.336       -8.876      858.261
12/06/2013  02:21:00      -94.877      -12.550      -12.054       40.819       21.765       19.249     1666.193      473.709      370.537        0.591        0.126       95.703       21.639        0.051      326.250       -9.013      858.258
12/06/2013  02:22:00      -74.072       -4.488      -10.108       37.728       23.182       20.182     1423.440      537.406      407.312        0.399        0.118       74.208       22.066        0.088      326.248       -9.017      858.254
12/06/2013  02:23:00      -73.026      -13.610       -4.141       37.284       25.956       18.643     1390.079      673.716      347.547        0.397        0.121       74.284       14.540        0.038      326.254       -9.008      858.226
12/06/2013  02:24:00     -117.626      -19.716       -4.237       33.220       23.117       18.923     1103.579      534.404      358.063        0.812        0.100      119.267       17.470        0.021      326.293       -8.944      858.214
12/06/2013  02:25:00     -133.972      -22.472      -11.715       33.749       28.053       18.772     1138.988      786.950      352.378        1.043        0.114      135.844       18.215        0.018      326.217       -9.068      858.211
12/06/2013  02:26:00     -112.528      -35.009      -11.284       25.538       20.804       15.722      652.176      432.823      247.194        0.767        0.067      117.848       10.109        0.007      326.260       -8.997      858.213
12/06/2013  02:27:00     -115.060      -13.465      -11.793       39.179       28.326       14.781     1534.996      802.348      218.488        0.806        0.128      115.845       15.748        0.018      326.296       -8.940      858.237
12/06/2013  02:28:00     -147.517       -4.655      -12.622       46.985       29.843       24.619     2207.626      890.580      606.106        1.282        0.185      147.591       27.046        0.034      326.144       -9.186      858.286
12/06/2013  02:29:00     -170.803       -1.893      -12.717       47.109       33.689       26.177     2219.297     1134.940      685.230        1.669        0.202      170.814       24.659        0.021      326.038       -9.357      858.312
12/06/2013  02:30:00     -200.572       13.336      -17.205       38.905       29.960       24.017     1513.581      897.618      576.831        2.184        0.149      201.015       21.119        0.011      325.919       -9.552      858.303
12/06/2013  02:31:00     -153.289       -0.860       -9.723       45.832       32.626       28.303     2100.570     1064.478      801.081        1.378        0.198      153.291       25.082        0.027      325.868       -9.632      858.288
12/06/2013  02:32:00     -179.328       21.496      -17.167       44.381       32.693       23.696     1969.629     1068.855      561.480        1.826        0.180      180.612       18.437        0.010      325.833       -9.689      858.313
12/06/2013  02:33:00     -177.871      -19.226      -16.128       45.596       48.877       27.588     2078.953     2388.958      761.108        1.875        0.261      178.907       26.073        0.021      325.772       -9.789      858.352
12/06/2013  02:34:00     -138.926      -24.878      -11.549       67.007       31.131       30.170     4489.928      969.153      910.209        1.321        0.318      141.136       36.615        0.067      325.798       -9.745      858.389
12/06/2013  02:35:00     -130.558      -51.943        2.734       41.906       41.706       22.080     1756.095     1739.432      487.517        1.187        0.199      140.512       22.015        0.025      325.819       -9.712      858.400
12/06/2013  02:36:00     -121.779       15.911      -12.667       42.115       31.617       22.905     1773.660      999.651      524.650        0.927        0.165      122.814       18.004        0.021      325.816       -9.716      858.398
12/06/2013  02:37:00      -65.100       -9.727       -2.990       28.002       29.786       20.046      784.101      887.229      401.847        0.321        0.104       65.822       15.892        0.058      325.891       -9.595      858.372
12/06/2013  02:38:00      -69.813       -8.801        3.343       33.152       28.182       18.026     1099.061      794.226      324.921        0.359        0.111       70.366       16.327        0.054      325.989       -9.437      858.367
12/06/2013  02:39:00      -59.485      -22.890        2.310       35.193       25.518       17.484     1238.547      651.189      305.693        0.313        0.110       63.737       19.537        0.094      326.027       -9.376      858.411
12/06/2013  02:40:00      -61.122       28.665      -15.508       30.992       31.133       15.781      960.513      969.292      249.051        0.349        0.109       67.510       10.464        0.024      326.034       -9.365      858.404
12/06/2013  02:41:00      -76.291       33.552        0.199       36.688       22.536       22.814     1345.998      507.872      520.493        0.466        0.119       83.343       14.227        0.029      326.064       -9.315      858.371
12/06/2013  02:42:00     -125.211       37.947       -7.978       19.951       17.695       14.649      398.026      313.120      214.586        0.905        0.046      130.835        8.186        0.004      326.078       -9.293      858.374
12/06/2013  02:43:00      -99.284       22.258       -8.683       25.846       24.100       18.890      668.038      580.804      356.850        0.602        0.080      101.748       11.990        0.014      326.074       -9.300      858.392
12/06/2013  02:44:00     -128.675       38.624       -6.856       34.667       29.139       19.731     1201.781      849.085      389.308        1.027        0.122      134.347       18.034        0.018      326.110       -9.240      858.419
12/06/2013  02:45:00     -129.741      -51.433      -20.165       34.186       29.465       26.535     1168.704      868.201      704.095        1.131        0.137      139.564       17.619        0.016      326.125       -9.215      858.451
12/06/2013  02:46:00     -106.387      -14.494      -10.178       46.513       42.834       20.638     2163.501     1834.717      425.941        0.803        0.221      107.370       19.151        0.032      326.138       -9.194      858.468
12/06/2013  02:47:00     -120.360        4.619      -11.433       20.108       27.250       17.606      404.315      742.565      309.956        0.805        0.073      120.449       14.169        0.014      326.091       -9.270      858.458
12/06/2013  02:48:00     -118.366      -45.901      -12.439       22.845       32.396       14.617      521.910     1049.504      213.650        0.903        0.089      126.954        8.735        0.005      326.126       -9.214      858.448
12/06/2013  02:49:00     -111.765      -41.873       -5.126       30.473       16.555       13.587      928.575      274.076      184.619        0.783        0.069      119.351       16.595        0.019      326.203       -9.089      858.443
12/06/2013  02:50:00     -161.389      -34.767      -10.535       31.116       20.527       17.192      968.179      421.340      295.549        1.453        0.084      165.091       16.195        0.010      326.261       -8.995      858.450
12/06/2013  02:51:00     -126.701      -38.860       -5.527       51.213       24.202       23.406     2622.786      585.743      547.861        1.067        0.188      132.526       29.199        0.049      326.266       -8.989      858.451
12/06/2013  02:52:00     -119.362      -47.097       -4.793       34.229       24.628       21.242     1171.628      606.550      451.228        0.936        0.111      128.317       19.472        0.023      326.322       -8.898      858.410
12/06/2013  02:53:00     -118.362      -27.805       -7.755       43.057       39.053       18.951     1853.890     1525.165      359.149        0.929        0.187      121.584       18.065        0.022      326.379       -8.805      858.424
12/06/2013  02:54:00     -174.175      -22.187      -22.273       28.881       39.330       17.506      834.111     1546.831      306.443        1.701        0.134      175.582       12.392        0.005      326.349       -8.854      858.466
12/06/2013  02:55:00     -147.672      -22.666      -28.387       28.699       34.121       14.661      823.639     1164.261      214.950        1.266        0.110      149.401        8.251        0.003      326.349       -8.853      858.474
12/06/2013  02:56:00      -62.462      -40.843        0.817       50.639       29.775       19.813     2564.288      886.557      392.556        0.471        0.192       74.630       27.710        0.138      326.485       -8.633      858.419
12/06/2013  02:57:00      -88.643      -63.288        0.782       46.470       34.155       25.357     2159.435     1166.591      642.976        0.792        0.198      108.917       27.584        0.064      326.515       -8.584      858.402
12/06/2013  02:58:00     -102.729      -90.403        3.611       46.100       47.271       27.607     2125.230     2234.588      762.144        1.193        0.256      136.842       27.367        0.040      326.583       -8.475      858.395
12/06/2013  02:59:00     -131.453      -57.198        6.219       45.922       35.959       24.362     2108.796     1293.059      593.509        1.229        0.200      143.358       21.766        0.023      326.621       -8.412      858.383
12/06/2013  03:00:00      -97.782      -26.086       -5.397       40.934       29.013       19.304     1675.626      841.760      372.639        0.658        0.145      101.201       15.621        0.024      326.584       -8.473      858.360
12/06/2013  03:01:00      -96.053      -27.300       -3.409       50.336       24.455       19.689     2533.664      598.027      387.645        0.675        0.176       99.857       25.795        0.067      326.558       -8.515      858.323
12/06/2013  03:02:00     -128.291      -20.986       -6.495       28.256       32.824       22.969      798.427     1077.436      527.587        0.967        0.120      129.996       17.720        0.019      326.542       -8.542      858.315
12/06/2013  03:03:00     -119.820      -16.397       -6.032       49.733       27.757       19.045     2473.385      770.440      362.694        0.913        0.180      120.936       22.549        0.035      326.491       -8.623      858.319
12/06/2013  03:04:00      -96.641      -43.113        1.091       31.975       27.900       18.606     1022.383      778.384      346.187        0.667        0.107      105.822       16.915        0.026      326.517       -8.581      858.309
12/06/2013  03:05:00      -33.821      -17.800       -5.999       25.394       24.586       11.338      644.836      604.478      128.539        0.144        0.069       38.219       12.157        0.101      326.534       -8.554      858.287
12/06/2013  03:06:00      -15.370      -35.299        0.618       27.851       18.533       18.212      775.672      343.474      331.675        0.147        0.073       38.500       10.501        0.074      326.632       -8.396      858.263
12/06/2013  03:07:00      -57.868      -45.681       -7.178       16.418       18.206       18.047      269.566      331.477      325.704        0.321        0.046       73.726       12.646        0.029      326.546       -8.534      858.267
12/06/2013  03:08:00      -72.216      -14.578       -9.106       20.588       18.551       14.264      423.885      344.127      203.475        0.324        0.049       73.673       10.308        0.020      326.519       -8.578      858.253
12/06/2013  03:09:00      -74.159        0.510      -10.479       39.589       22.342       21.231     1567.284      499.169      450.735        0.406        0.126       74.160        9.420        0.016      326.397       -8.777      858.239
12/06/2013  03:10:00     -100.169        1.459        1.354       64.356       37.521       27.506     4141.663     1407.858      756.586        0.817        0.315      100.180       27.454        0.075      326.332       -8.881      858.240
12/06/2013  03:11:00     -123.383      -12.604        1.360       46.732       28.094       20.395     2183.918      789.276      415.938        0.939        0.169      124.025       22.287        0.032      326.298       -8.938      858.251
12/06/2013  03:12:00      -71.957        1.994       -8.189       29.724       16.510        8.930      883.498      272.574       79.751        0.324        0.062       71.984        8.480        0.014      326.344       -8.862      858.240
12/06/2013  03:13:00      -53.732        3.235       -6.674       18.877       10.917       12.205      356.342      119.189      148.951        0.178        0.031       53.829        9.274        0.030      326.321       -8.899      858.234
12/06/2013  03:14:00      -60.426      -16.632       -0.447       30.103       20.785       16.241      906.204      432.030      263.760        0.276        0.080       62.674       17.026        0.074      326.395       -8.778      858.254
12/06/2013  03:15:00     -114.563      -36.272       -8.613       23.107       17.268       13.438      533.951      298.176      180.578        0.776        0.051      120.168        8.356        0.005      326.343       -8.864      858.271
12/06/2013  03:16:00     -115.411      -11.821       -5.771       45.211       32.523       25.718     2044.068     1057.755      661.392        0.863        0.188      116.015       26.762        0.053      326.371       -8.819      858.290
12/06/2013  03:17:00      -87.872       26.884       -9.549       32.518       43.601       20.528     1057.434     1901.063      421.396        0.596        0.169       91.892       13.349        0.021      326.269       -8.984      858.280
12/06/2013  03:18:00      -51.461       61.095      -17.400       32.846       21.505       10.724     1078.848      462.453      115.013        0.417        0.083       79.880       11.692        0.021      326.354       -8.847      858.224
12/06/2013  03:19:00       14.146       63.929       -7.653       19.051       22.101       11.512      362.942      488.461      132.529        0.266        0.049       65.475       10.269        0.025      326.365       -8.828      858.181
12/06/2013  03:20:00      -29.941       -3.298       -4.254       27.437       19.350       10.359      752.771      374.415      107.311        0.108        0.062       30.122       13.060        0.188      326.357       -8.840      858.193
12/06/2013  03:21:00      -63.427      -24.580      -10.456       15.888        7.900        8.882      252.422       62.410       78.892        0.257        0.020       68.023        3.359        0.002      326.406       -8.761      858.195
12/06/2013  03:22:00      -37.928      -34.920       -5.804       21.287       17.204       14.643      453.139      295.984      214.423        0.183        0.048       51.555        8.581        0.028      326.592       -8.459      858.201
12/06/2013  03:23:00      -65.107       -3.780       -2.863       20.361       16.612       14.210      414.590      275.965      201.911        0.258        0.045       65.217        8.953        0.019      326.510       -8.593      858.243
12/06/2013  03:24:00        5.617        9.105       10.685       20.252       18.453       16.054      410.156      340.506      257.721        0.062        0.050       10.698       11.065        1.070      326.498       -8.611      858.245
12/06/2013  03:25:00       79.614       48.442       18.094       31.860       25.295       26.575     1015.031      639.846      706.239        0.569        0.118       93.194       19.151        0.042      326.481       -8.640      858.221
12/06/2013  03:26:00       19.348       31.284       -0.790       41.222       54.586       24.555     1699.235     2979.595      602.932        0.332        0.264       36.783       30.911        0.706      326.345       -8.860      858.263
12/06/2013  03:27:00        9.010      106.830      -16.660       16.439       27.089       23.494      270.252      733.797      551.964        0.666        0.078      107.209       22.027        0.042      326.247       -9.020      858.343
12/06/2013  03:28:00       73.918       73.336        0.450       37.249       25.341       22.842     1387.501      642.187      521.746        0.670        0.128      104.125       13.755        0.017      326.312       -8.914      858.309
12/06/2013  03:29:00       20.025       98.057       87.489       33.133       39.870       34.186     1097.780     1589.639     1168.683        1.076        0.193      100.081       26.150        0.068      326.295       -8.941      858.234
12/06/2013  03:30:00       -0.030       38.419       15.428       19.366       37.116       24.067      375.055     1377.575      579.206        0.202        0.117       38.419       12.565        0.107      326.280       -8.966      858.319
12/06/2013  03:31:00      -27.579       81.213       -7.792       28.004       29.656       23.534      784.198      879.482      553.847        0.482        0.111       85.768       21.970        0.066      326.357       -8.841      858.377
12/06/2013  03:32:00       39.330       41.434       -4.342       18.417       27.000       20.451      339.189      728.992      418.256        0.238        0.074       57.128       17.214        0.091      326.261       -8.995      858.320
12/06/2013  03:33:00       39.480       29.444       -3.409       21.469       11.660       13.372      460.908      135.953      178.823        0.161        0.039       49.251        6.692        0.018      326.236       -9.037      858.274
12/06/2013  03:34:00      -28.993        6.524       -5.149       19.853       21.349        9.696      394.134      455.784       94.003        0.093        0.047       29.718        9.325        0.098      326.264       -8.990      858.326
12/06/2013  03:35:00      -55.341       15.095       -8.848       25.113       16.456       13.555      630.649      270.814      183.741        0.223        0.054       57.363       13.348        0.054      326.304       -8.927      858.347
12/06/2013  03:36:00       16.706        9.091       14.780       25.856       18.881       15.634      668.555      356.476      244.420        0.092        0.063       19.020       16.197        0.725      326.397       -8.776      858.282
12/06/2013  03:37:00       51.439       79.120       50.044       44.471       31.146       38.626     1977.654      970.064     1491.970        0.792        0.222       94.371       29.349        0.097      326.330       -8.884      858.179
12/06/2013  03:38:00       21.955       39.249       -7.824       56.694       16.115       19.602     3214.224      259.702      384.247        0.297        0.193       44.972       27.269        0.368      326.309       -8.919      858.164
12/06/2013  03:39:00      -84.870       38.586      -10.028       24.525       22.405       18.190      601.462      501.982      330.884        0.511        0.072       93.230       12.392        0.018      326.399       -8.771      858.240
12/06/2013  03:40:00        7.275       23.513        8.174       36.215       15.803       18.693     1311.551      249.747      349.436        0.129        0.096       24.613       20.269        0.678      326.444       -8.700      858.217
12/06/2013  03:41:00       68.683       64.580        3.427       28.947       24.563       21.768      837.924      603.340      473.862        0.541        0.096       94.276       15.955        0.029      326.461       -8.673      858.145
12/06/2013  03:42:00       86.755       33.068        4.691       55.873       34.160       23.257     3121.827     1166.899      540.865        0.673        0.241       92.844       14.092        0.023      326.382       -8.801      858.120
12/06/2013  03:43:00      -30.297       33.147      -14.183       29.827       27.892       13.834      889.649      777.949      191.381        0.204        0.093       44.907       12.964        0.083      326.358       -8.838      858.208
12/06/2013  03:44:00        0.810       26.616       17.155       42.914       21.734       24.730     1841.589      472.372      611.552        0.196        0.146       26.628       28.269        1.127      326.411       -8.753      858.219
12/06/2013  03:45:00       70.311       62.365       10.419       37.082       24.946       25.150     1375.058      622.318      632.502        0.579        0.131       93.984       14.762        0.025      326.395       -8.780      858.142
12/06/2013  03:46:00       17.822        4.696      -18.496       21.027       37.606       15.662      442.139     1414.200      245.300        0.139        0.105       18.430        8.508        0.213      326.361       -8.833      858.159
12/06/2013  03:47:00       44.955      -54.675       -2.310       36.357       38.700       32.683     1321.848     1497.710     1068.162        0.445        0.194       70.784       30.654        0.188      326.575       -8.489      858.182
12/06/2013  03:48:00        4.612       -1.505        6.623       42.688       28.713       17.335     1822.286      824.417      300.503        0.151        0.147        4.851       13.934        8.250      326.559       -8.513      858.223
12/06/2013  03:49:00       70.440      124.937       83.963       66.318       60.973       35.200     4398.097     3717.690     1239.045        1.849        0.468      143.426       31.876        0.049      326.504       -8.604      858.155
12/06/2013  03:50:00       21.974      101.696      117.658       73.251       46.792       35.524     5365.711     2189.513     1261.968        1.674        0.441      104.043       33.502        0.104      326.498       -8.611      858.052
12/06/2013  03:51:00      -68.415      -10.012       13.348       73.852       42.215       32.411     5454.177     1782.113     1050.465        0.662        0.414       69.144       38.283        0.307      326.589       -8.464      858.133
12/06/2013  03:52:00      -67.476      -73.135       11.777       95.442       56.887       34.701     9109.224     3236.075     1204.158        1.179        0.677       99.508       36.032        0.131      326.792       -8.137      858.262
12/06/2013  03:53:00      -27.941      -33.083       13.043       54.572       65.587       27.123     2978.121     4301.655      735.647        0.503        0.401       43.304       36.020        0.692      326.790       -8.139      858.243
12/06/2013  03:54:00        3.645      154.657      164.484       39.659       72.450       53.025     1572.856     5248.973     2811.649        3.031        0.482      154.700       54.850        0.126      326.720       -8.256      858.043
12/06/2013  03:55:00       24.141      135.065      157.134       55.913       80.744       47.097     3126.274     6519.626     2218.108        2.769        0.593      137.205       53.110        0.150      326.699       -8.289      857.902
12/06/2013  03:56:00      -27.622      -13.547       28.930       42.994       48.124       50.971     1848.484     2315.956     2598.016        0.427        0.338       30.765       49.566        2.596      326.763       -8.183      858.001
12/06/2013  03:57:00      -76.291        5.850       -9.260       46.103       54.070       21.544     2125.530     2923.538      464.142        0.573        0.276       76.515       14.181        0.034      326.768       -8.175      858.147
12/06/2013  03:58:00        6.032       -3.722       18.623       37.365       43.582       22.729     1396.116     1899.428      516.590        0.210        0.191        7.088       23.748       11.227      326.759       -8.190      858.148
12/06/2013  03:59:00       43.435       65.772       40.913       39.172       32.355       47.299     1534.471     1046.848     2237.238        0.635        0.241       78.820       30.315        0.148      326.747       -8.209      858.029
12/06/2013  04:00:00       16.960       22.637       37.208       15.632       32.326       13.400      244.345     1044.973      179.571        0.183        0.073       28.286       15.924        0.317      326.745       -8.213      858.020
12/06/2013  04:01:00       37.426      -69.598       -9.998       32.127       45.935       23.623     1032.169     2109.986      558.026        0.502        0.185       79.022       12.386        0.025      326.808       -8.110      858.024
12/06/2013  04:02:00       10.908       -2.662       26.749       20.307       17.088       26.922      412.380      291.983      724.811        0.114        0.071       11.228       15.175        1.827      326.838       -8.061      858.028
12/06/2013  04:03:00       39.088       75.681       12.309       28.858       52.257       37.839      832.802     2730.804     1431.762        0.620        0.250       85.179       26.661        0.098      326.776       -8.161      858.064
12/06/2013  04:04:00       38.814       28.221       30.229       33.089       33.122       30.056     1094.860     1097.080      903.357        0.316        0.155       47.990       28.630        0.356      326.754       -8.197      858.033
12/06/2013  04:05:00       16.519       70.929       70.939       25.545       31.718       31.867      652.547     1006.017     1015.508        0.650        0.134       72.827       18.762        0.066      326.720       -8.254      857.942
12/06/2013  04:06:00      -13.986       -8.835       48.730       16.226       42.829       21.080      263.292     1834.340      444.361        0.259        0.127       16.543       24.451        2.185      326.802       -8.120      857.937
12/06/2013  04:07:00       22.037      -48.248       -9.928       36.554       35.435       34.234     1336.208     1255.648     1171.950        0.334        0.188       53.042       24.656        0.216      326.765       -8.180      857.963
12/06/2013  04:08:00       22.019       58.329       74.368       36.006       48.055       41.389     1296.457     2309.301     1713.081        0.737        0.266       62.347       41.129        0.435      326.637       -8.388      857.949
12/06/2013  04:09:00       50.660      103.298       92.241       56.631       51.448       52.015     3207.093     2646.871     2705.522        1.515        0.428      115.052       51.745        0.202      326.619       -8.417      857.885
12/06/2013  04:10:00      110.773       64.174       37.404       52.760       36.125       39.991     2783.627     1304.986     1599.270        1.174        0.284      128.020       29.196        0.052      326.558       -8.514      857.834
12/06/2013  04:11:00       75.807       73.587       71.190       44.418       49.539       43.936     1972.955     2454.075     1930.356        1.129        0.318      105.649       36.197        0.117      326.419       -8.740      857.824
12/06/2013  04:12:00       28.259       23.591       -1.915       20.473       15.894       22.427      419.127      252.624      502.962        0.127        0.059       36.812       13.236        0.129      326.291       -8.947      857.879
12/06/2013  04:13:00       93.110       58.743       33.036       31.397       13.317       24.836      985.771      177.341      616.811        0.750        0.089      110.092       16.027        0.021      326.357       -8.840      857.938
12/06/2013  04:14:00      140.109       62.425        5.107       30.389       34.092       22.869      923.505     1162.254      522.990        1.308        0.130      153.387       14.982        0.010      326.318       -8.905      857.932
12/06/2013  04:15:00       29.326       64.384       58.541       30.531       38.171       25.514      932.168     1456.989      650.959        0.574        0.152       70.748       17.628        0.062      326.362       -8.833      857.954
12/06/2013  04:16:00       16.125       42.780        2.185       26.642       21.168       18.468      709.817      448.104      341.062        0.180        0.075       45.718       16.327        0.128      326.309       -8.919      858.016
12/06/2013  04:17:00       -6.365       30.040       -4.452       14.368       25.294        6.537      206.434      639.811       42.731        0.093        0.044       30.707        8.124        0.070      326.342       -8.864      858.044
12/06/2013  04:18:00       24.718       11.839       43.006       29.365       50.147       37.341      862.331     2514.689     1394.318        0.369        0.239       27.407       35.112        1.641      326.440       -8.706      858.042
12/06/2013  04:19:00       36.538      129.325      127.751       37.849       60.613       28.780     1432.523     3673.887      828.283        2.016        0.297      134.388       35.428        0.069      326.426       -8.729      857.964
12/06/2013  04:20:00       85.279      104.952       78.819       58.937       53.478       48.249     3473.620     2859.862     2327.992        1.658        0.433      135.231       39.292        0.084      326.505       -8.602      857.913
12/06/2013  04:21:00       26.931       74.783       81.663       45.452       43.831       28.380     2065.870     1921.170      805.411        0.889        0.240       79.485       23.120        0.085      326.489       -8.627      857.931
12/06/2013  04:22:00       20.546        1.167       27.116       43.580       48.451       40.899     1899.233     2347.519     1672.767        0.354        0.296       20.579       38.331        3.469      326.505       -8.600      857.958
12/06/2013  04:23:00       17.016      102.393      117.493       39.889       47.496       35.093     1591.158     2255.868     1231.493        1.483        0.254      103.797       36.293        0.122      326.494       -8.618      857.930
12/06/2013  04:24:00       75.645      110.659       95.027       62.408       44.423       46.804     3894.713     1973.407     2190.621        1.753        0.403      134.043       38.613        0.083      326.490       -8.625      857.902
12/06/2013  04:25:00      100.528       63.391       55.969       57.136       41.091       39.902     3264.522     1688.487     1592.203        1.190        0.327      118.845       34.433        0.084      326.407       -8.761      857.933
12/06/2013  04:26:00       82.107       55.340       11.725       43.315       38.273       34.641     1876.178     1464.827     1200.028        0.724        0.227       99.016       19.203        0.038      326.264       -8.990      857.984
12/06/2013  04:27:00       40.980       57.304       -2.808       28.760       30.744       26.396      827.165      945.178      696.774        0.372        0.123       70.449       23.841        0.115      326.163       -9.156      858.018
12/06/2013  04:28:00       63.154       76.902       -7.398       38.754       38.635       25.666     1501.899     1492.632      658.720        0.680        0.183       99.511       22.979        0.053      326.124       -9.216      858.015
12/06/2013  04:29:00      116.796       84.133        2.222       32.216       18.146       21.324     1037.893      329.292      454.718        1.127        0.091      143.943       12.742        0.008      326.123       -9.219      857.983
12/06/2013  04:30:00       82.120       59.304        7.342       36.392       32.153       28.631     1324.352     1033.785      819.728        0.675        0.159      101.295       18.558        0.034      326.060       -9.320      857.956
12/06/2013  04:31:00       55.155       66.399       -7.868       30.107       33.955       28.735      906.450     1152.923      825.683        0.520        0.144       86.318       18.390        0.045      326.031       -9.368      857.956
12/06/2013  04:32:00       49.482       27.050        2.152       22.804       27.090       13.682      520.026      733.861      187.190        0.231        0.072       56.393        8.760        0.024      326.065       -9.312      857.979
12/06/2013  04:33:00       24.915        4.214        5.107       20.631       14.169       12.010      425.658      200.771      144.252        0.072        0.039       25.268        4.757        0.035      326.097       -9.261      858.008
12/06/2013  04:34:00        9.427       25.585       -6.576       14.388       13.182        8.506      207.010      173.769       72.359        0.062        0.023       27.267        5.098        0.035      326.172       -9.140      858.049
12/06/2013  04:35:00        8.731       47.387        0.601       29.524       20.714       15.445      871.669      429.090      238.534        0.193        0.077       48.184       13.330        0.077      326.133       -9.205      858.044
12/06/2013  04:36:00       66.087       85.597       -2.845       33.538       35.144       23.220     1124.818     1235.081      539.157        0.730        0.145      108.140       17.573        0.026      326.035       -9.361      857.963
12/06/2013  04:37:00       85.604       62.302        2.800       40.148       28.419       25.863     1611.877      807.666      668.910        0.715        0.154      105.876       18.504        0.031      326.079       -9.290      857.938
12/06/2013  04:38:00       34.925       62.026       -3.057       39.214       36.524       27.067     1537.759     1334.025      732.624        0.434        0.180       71.183       20.899        0.086      326.068       -9.308      857.944
12/06/2013  04:39:00       12.147      117.686      -18.524       20.047       26.368       13.736      401.897      695.281      188.673        0.781        0.064      118.311        7.338        0.004      326.149       -9.178      858.005
12/06/2013  04:40:00       12.908      102.829      -12.646       18.905       32.740       15.083      357.400     1071.926      227.492        0.628        0.083      103.636       13.804        0.018      326.167       -9.148      858.060
12/06/2013  04:41:00       62.318       46.458        1.275       25.936       22.808       20.817      672.685      520.226      433.342        0.383        0.081       77.730       17.199        0.049      326.133       -9.201      858.061
12/06/2013  04:42:00       63.170       44.635       17.882       21.565       17.036       15.928      465.038      290.217      253.712        0.366        0.050       77.348       10.309        0.018      326.197       -9.101      858.056
12/06/2013  04:43:00       82.598       51.631       14.777       11.528       15.126       10.501      132.894      228.798      110.271        0.509        0.024       97.407        9.686        0.010      326.227       -9.052      858.057
12/06/2013  04:44:00       99.183       45.685       11.641       20.886       16.623       14.858      436.233      276.330      220.766        0.650        0.047      109.199        9.954        0.008      326.252       -9.011      858.060
12/06/2013  04:45:00      105.992       70.821       26.745       27.426       23.089       31.485      752.177      533.120      991.325        0.962        0.114      127.475       20.170        0.025      326.286       -8.956      858.066
12/06/2013  04:46:00       90.467       56.762       29.434       32.648       21.656       21.571     1065.914      468.992      465.315        0.714        0.100      106.800       12.159        0.013      326.217       -9.067      858.086
12/06/2013  04:47:00       16.732       13.908       12.612       17.525       27.983       14.463      307.119      783.052      209.178        0.097        0.065       21.757        9.883        0.206      326.175       -9.136      858.128
12/06/2013  04:48:00       54.594       61.731       25.787       26.778       18.288       19.144      717.078      334.446      366.511        0.444        0.071       82.408       16.681        0.041      326.172       -9.140      858.112
12/06/2013  04:49:00       57.902       59.525       -2.796       28.309       23.617       16.336      801.395      557.781      266.853        0.426        0.081       83.041        9.686        0.014      326.128       -9.211      858.063
12/06/2013  04:50:00        5.711       11.247        3.509       17.244       12.887       12.041      297.343      166.064      144.990        0.039        0.030       12.614       10.817        0.735      326.130       -9.208      858.088
12/06/2013  04:51:00       22.059       15.659       10.518       20.414       17.060       12.183      416.721      291.047      148.431        0.085        0.043       27.052        8.759        0.105      326.156       -9.167      858.122
12/06/2013  04:52:00       -6.412        8.944       -3.578       35.451       13.283        9.386     1256.777      176.447       88.105        0.083        0.076       11.005        7.203        0.428      326.158       -9.163      858.151
12/06/2013  04:53:00     -128.531      -19.527      -11.771       35.693       18.242       14.703     1274.007      332.758      216.169        0.943        0.091      130.006       15.105        0.013      326.202       -9.092      858.199
12/06/2013  04:54:00      -30.145      -10.905        5.722       54.644       21.746       16.775     2985.988      472.872      281.396        0.240        0.187       32.057       22.172        0.478      326.178       -9.130      858.191
12/06/2013  04:55:00      107.591       47.028       11.060       49.340       32.521       25.511     2434.399     1057.622      650.825        0.903        0.207      117.420       24.468        0.043      326.233       -9.041      858.096
12/06/2013  04:56:00      106.541       68.018       11.623       47.988       30.297       23.535     2302.868      917.892      553.884        0.994        0.189      126.402        8.467        0.004      326.220       -9.063      858.037
12/06/2013  04:57:00      -53.166       44.537      -10.239       50.559       19.681       22.340     2556.263      387.330      499.059        0.418        0.172       69.356       20.184        0.085      326.173       -9.138      858.112
12/06/2013  04:58:00      -75.042       69.575       -4.734       37.982       34.528       27.315     1442.615     1192.213      746.131        0.694        0.169      102.333       20.048        0.038      326.074       -9.299      858.170
12/06/2013  04:59:00       44.968       72.432        4.222       72.826       33.713       27.258     5303.587     1136.556      742.982        0.723        0.359       85.256       30.479        0.128      326.226       -9.052      858.112
12/06/2013  05:00:00      134.196       88.735       19.659       47.882       33.283       40.103     2292.651     1107.761     1608.222        1.564        0.250      160.880       29.225        0.033      326.151       -9.175      858.042
12/06/2013  05:01:00      -28.410       23.896       14.116       32.004       37.801       31.555     1024.284     1428.945      995.690        0.251        0.172       37.123       21.887        0.348      326.120       -9.224      858.080
12/06/2013  05:02:00      -69.681       58.503      -12.116       39.364       28.288       21.255     1549.545      800.191      451.770        0.561        0.140       90.984       16.200        0.032      326.057       -9.327      858.114
12/06/2013  05:03:00        2.055       56.214        1.829       46.174       32.620       23.263     2132.058     1064.066      541.168        0.345        0.187       56.251       27.085        0.232      326.127       -9.214      858.092
12/06/2013  05:04:00      101.387       57.146        9.018       24.201       23.358       15.167      585.712      545.577      230.041        0.749        0.068      116.383        9.284        0.006      326.145       -9.184      858.048
12/06/2013  05:05:00       56.592       37.735       -1.604       46.196       27.877       25.241     2134.075      777.127      637.133        0.409        0.177       68.019       23.456        0.119      326.123       -9.219      858.058
12/06/2013  05:06:00       -7.398       36.722       -1.161       28.573       32.084       20.619      816.434     1029.411      425.160        0.184        0.114       37.460       22.659        0.366      326.078       -9.293      858.104
12/06/2013  05:07:00      -61.560      -13.446        5.394       41.730       33.869       22.912     1741.368     1147.084      524.973        0.371        0.171       63.011       19.855        0.099      326.076       -9.297      858.159
12/06/2013  05:08:00     -104.089        4.491      -11.037       31.605       31.491       19.017      998.891      991.681      361.663        0.666        0.118      104.186       18.770        0.032      325.968       -9.471      858.184
12/06/2013  05:09:00      -71.893      -16.601       -0.156       21.912       32.337       16.199      480.145     1045.681      262.404        0.362        0.089       73.785       12.698        0.030      325.992       -9.431      858.187
12/06/2013  05:10:00     -111.997        9.626      -12.010       26.105       23.746       16.687      681.472      563.888      278.455        0.715        0.076      112.410       13.048        0.013      325.932       -9.529      858.213
12/06/2013  05:11:00     -118.131       10.482      -11.977       15.207       15.685       12.328      231.256      246.016      151.983        0.742        0.031      118.595        4.808        0.002      325.955       -9.492      858.228
12/06/2013  05:12:00     -105.641        7.514      -11.655       16.387       15.045       11.623      268.522      226.350      135.090        0.599        0.031      105.908        7.529        0.005      325.933       -9.527      858.219
12/06/2013  05:13:00      -87.296       10.407      -12.581       29.163       24.134       15.269      850.496      582.446      233.147        0.478        0.083       87.914       10.968        0.016      325.841       -9.676      858.219
12/06/2013  05:14:00      -93.174       30.125      -12.454       27.081       15.796       15.676      733.402      249.507      245.750        0.549        0.061       97.923       13.345        0.019      325.797       -9.746      858.199
12/06/2013  05:15:00      -86.239       34.789       -7.460       31.236       21.540       15.899      975.659      463.963      252.774        0.520        0.085       92.992       10.997        0.014      325.868       -9.633      858.164
12/06/2013  05:16:00     -111.643       52.645      -19.386       43.926       26.774       17.698     1929.452      716.837      313.207        0.928        0.148      123.433       19.848        0.026      325.833       -9.689      858.179
12/06/2013  05:17:00     -129.884      -10.561       -4.681       35.682       41.853       19.493     1273.172     1751.636      379.977        1.020        0.170      130.313       16.008        0.015      325.716       -9.878      858.202
12/06/2013  05:18:00     -109.771      -16.972      -14.428       44.199       39.168       30.286     1953.540     1534.158      917.242        0.847        0.220      111.075       30.073        0.073      325.648       -9.987      858.195
12/06/2013  05:19:00     -106.699       -4.410      -11.112       23.571       33.544       19.143      555.577     1125.211      366.465        0.679        0.102      106.790       14.538        0.019      325.682       -9.933      858.176
12/06/2013  05:20:00     -112.000       65.733      -26.715       28.206       54.405       19.871      795.589     2959.898      394.845        1.086        0.208      129.864       20.621        0.025      325.810       -9.726      858.173
12/06/2013  05:21:00     -128.313      113.734      -25.807       36.297       53.279       28.421     1317.452     2838.621      807.779        1.751        0.248      171.464       28.761        0.028      325.826       -9.700      858.178
12/06/2013  05:22:00     -139.165       47.953      -13.871       43.603       42.077       27.796     1901.201     1770.451      772.590        1.315        0.222      147.195       25.300        0.030      325.732       -9.852      858.180
12/06/2013  05:23:00     -130.607       -2.832      -16.264       43.327       39.151       20.203     1877.222     1532.838      408.171        1.057        0.191      130.638       16.670        0.016      325.654       -9.977      858.189
12/06/2013  05:24:00     -130.137       19.140      -12.263       52.972       39.022       25.306     2806.064     1522.751      640.403        1.121        0.248      131.537       29.546        0.050      325.617      -10.038      858.202
12/06/2013  05:25:00     -142.246       43.064      -25.010       29.581       25.117       21.012      875.037      630.846      441.501        1.233        0.097      148.622       16.313        0.012      325.642       -9.998      858.219
12/06/2013  05:26:00     -127.440      -34.438      -22.430       31.073       25.571       18.679      965.528      653.875      348.895        0.995        0.098      132.011       13.899        0.011      325.624      -10.026      858.250
12/06/2013  05:27:00     -113.367      -43.334       -6.748       30.820       31.150       21.248      949.883      970.340      451.469        0.857        0.119      121.367       16.563        0.019      325.696       -9.910      858.271
12/06/2013  05:28:00      -46.208      -29.193       -2.328       22.753       20.642       15.087      517.711      426.078      227.617        0.208        0.059       54.657       15.459        0.080      325.620      -10.033      858.233
12/06/2013  05:29:00      -39.933        1.827       -0.553       19.518       14.244       10.004      380.961      202.899      100.074        0.114        0.034       39.975        4.533        0.013      325.655       -9.978      858.208
12/06/2013  05:30:00      -50.163      -12.940       -0.210       17.946       22.764       15.681      322.042      518.201      245.909        0.188        0.054       51.805       13.360        0.067      325.833       -9.689      858.222
12/06/2013  05:31:00      -73.040      -44.236       -9.163       42.841       26.605       19.344     1835.359      707.806      374.186        0.515        0.146       85.391        5.095        0.004      325.844       -9.670      858.234
12/06/2013  05:32:00     -146.185      -65.071      -14.584       46.665       22.824       20.818     2177.586      520.923      433.406        1.447        0.157      160.013       17.229        0.012      325.735       -9.848      858.233
12/06/2013  05:33:00     -110.979      -17.494       -6.166       41.285       46.620       20.616     1704.438     2173.467      425.028        0.848        0.215      112.349       20.159        0.032      325.733       -9.851      858.214
12/06/2013  05:34:00     -115.731        7.946      -11.752       30.263       14.966       15.308      915.874      223.984      234.331        0.748        0.069      116.004       15.494        0.018      325.647       -9.987      858.211
12/06/2013  05:35:00     -107.826      -29.039       -9.283       27.574       23.188       14.868      760.331      537.666      221.065        0.704        0.076      111.668       16.387        0.022      325.753       -9.818      858.215
12/06/2013  05:36:00      -73.756      -16.338       -1.640       23.358       28.905       16.253      545.595      835.492      264.167        0.368        0.082       75.544       12.040        0.025      325.808       -9.730      858.201
12/06/2013  05:37:00     -142.946       36.590      -10.205       39.514       27.605       18.379     1561.332      762.036      337.777        1.227        0.133      147.555       19.446        0.017      325.645       -9.993      858.225
12/06/2013  05:38:00     -135.824       17.822       -7.935       23.210       31.136       13.822      538.725      969.451      191.055        1.026        0.085      136.988       12.237        0.008      325.644       -9.995      858.249
12/06/2013  05:39:00      -98.256      -26.441      -11.994       21.275       20.356       12.838      452.620      414.383      164.827        0.576        0.052      101.752        8.124        0.006      325.672       -9.950      858.254
12/06/2013  05:40:00     -107.786       -6.967      -12.905       36.853       26.741       19.718     1358.168      715.100      388.801        0.715        0.123      108.011       20.101        0.035      325.635      -10.008      858.234
12/06/2013  05:41:00     -178.975       36.282      -15.764       50.040       28.345       24.416     2504.036      803.429      596.146        1.875        0.195      182.615       20.117        0.012      325.514      -10.204      858.210
12/06/2013  05:42:00     -129.606       10.448      -11.242       32.885       26.065       18.282     1081.414      679.402      334.247        0.956        0.105      130.027       16.224        0.016      325.500      -10.225      858.260
12/06/2013  05:43:00      -86.031      -41.460       -5.782       29.802       34.382       19.062      888.151     1182.143      363.352        0.579        0.122       95.500       15.849        0.028      325.552      -10.143      858.290
12/06/2013  05:44:00     -131.622      -47.664      -10.988       36.458       44.516       19.861     1329.218     1981.690      394.455        1.171        0.185      139.986       15.462        0.012      325.622      -10.028      858.330
12/06/2013  05:45:00     -118.940       -9.679       -8.648       43.308       25.828       17.243     1875.599      667.094      297.306        0.858        0.142      119.333       19.380        0.026      325.673       -9.946      858.355
12/06/2013  05:46:00      -75.760        8.266       -6.391       22.690       17.166       10.983      514.849      294.664      120.633        0.339        0.047       76.209        6.394        0.007      325.662       -9.964      858.353
12/06/2013  05:47:00     -125.332       10.570       -9.796       56.140       22.333       15.782     3151.668      498.752      249.065        0.991        0.195      125.777       19.988        0.025      325.730       -9.855      858.367
12/06/2013  05:48:00      -94.696      -21.952       -2.762       42.921       27.989       16.956     1842.216      783.380      287.494        0.618        0.146       97.207       15.012        0.024      325.619      -10.033      858.397
12/06/2013  05:49:00      -63.127       24.930       -7.361       31.849       45.109       24.033     1014.360     2034.866      577.576        0.414        0.181       67.871       14.596        0.046      325.669       -9.953      858.377
12/06/2013  05:50:00      -43.562      116.745      -12.072       28.236       37.605       20.660      797.273     1414.153      426.852        0.916        0.132      124.608       16.353        0.017      325.904       -9.574      858.317
12/06/2013  05:51:00      -64.758       42.414       -8.295       46.800       41.889       20.603     2190.277     1754.665      424.479        0.521        0.218       77.412       17.448        0.051      326.103       -9.251      858.302
12/06/2013  05:52:00     -158.713      -28.442      -12.844       66.602       60.446       29.024     4435.815     3653.717      842.366        1.755        0.447      161.242       21.717        0.018      325.634      -10.011      858.338
12/06/2013  05:53:00     -168.475       29.295      -25.397       65.992       81.134       36.474     4354.981     6582.724     1330.378        2.108        0.613      171.003       30.097        0.031      325.641      -10.001      858.364
12/06/2013  05:54:00      -43.939       79.497      -15.928       54.752       35.216       21.200     2997.749     1240.178      449.459        0.659        0.234       90.832       23.323        0.066      326.316       -8.907      858.352
12/06/2013  05:55:00       40.819       34.573        7.113       34.639       25.910       20.702     1199.862      671.327      428.592        0.261        0.115       53.493       18.004        0.113      326.103       -9.252      858.313
12/06/2013  05:56:00      -27.257       45.101       -4.138       26.515       36.629       16.733      703.029     1341.667      279.984        0.256        0.116       52.697       17.765        0.114      326.215       -9.070      858.341
12/06/2013  05:57:00     -132.328      -17.567      -11.641       54.763       45.040       21.430     2999.030     2028.577      459.238        1.172        0.274      133.489       13.006        0.009      325.802       -9.739      858.400
12/06/2013  05:58:00     -176.601      -78.876       -7.666       48.969       41.747       27.320     2397.985     1742.850      746.381        2.118        0.244      193.415       21.759        0.013      325.672       -9.950      858.411
12/06/2013  05:59:00      -71.974      -17.679       -2.639       43.309       26.521       16.892     1875.679      703.351      285.355        0.418        0.143       74.114       10.261        0.019      325.956       -9.491      858.386
12/06/2013  06:00:00      -83.237       13.770       -8.930       35.131       12.967       11.746     1234.214      168.140      137.977        0.437        0.077       84.368       14.878        0.031      326.006       -9.410      858.363
12/06/2013  06:01:00      -95.463       -0.462      -10.729       23.545       19.843       11.167      554.352      393.761      124.701        0.515        0.054       95.464        7.014        0.005      325.971       -9.466      858.353
12/06/2013  06:02:00      -78.965       11.515      -12.336       35.406       35.874       16.411     1253.571     1286.963      269.326        0.466        0.140       79.801       12.562        0.025      325.889       -9.599      858.327
12/06/2013  06:03:00      -63.578       17.924      -15.286       19.523       35.779       12.560      381.149     1280.116      157.746        0.321        0.091       66.057        9.442        0.020      325.856       -9.652      858.301
12/06/2013  06:04:00      -53.547       79.078      -15.676       31.361       26.209       13.686      983.499      686.911      187.303        0.561        0.093       95.501       11.435        0.014      326.408       -8.758      858.290
12/06/2013  06:05:00      -70.852       48.558      -18.112       20.076       27.476       14.733      403.037      754.948      217.075        0.454        0.069       85.895       11.138        0.017      326.389       -8.789      858.315
12/06/2013  06:06:00      -63.952       -3.462       -5.365        9.812       16.921        9.172       96.269      286.332       84.125        0.230        0.023       64.046        6.802        0.011      325.974       -9.462      858.349
12/06/2013  06:07:00      -40.628        7.142        1.774       22.652       13.725       12.152      513.119      188.370      147.660        0.128        0.042       41.251        7.926        0.037      325.795       -9.750      858.371
12/06/2013  06:08:00      -35.688       -9.972       -4.143       16.353       23.029        8.980      267.411      530.339       80.646        0.113        0.044       37.055        2.148        0.003      326.056       -9.328      858.413
12/06/2013  06:09:00      -16.330       -8.070       -4.335       19.891       11.202       10.971      395.654      125.484      120.372        0.050        0.032       18.215        3.473        0.036      325.821       -9.708      858.442
12/06/2013  06:10:00      -71.539      -22.439        2.636       38.155       19.962       15.326     1455.802      398.498      234.874        0.386        0.104       74.976       11.729        0.024      325.756       -9.814      858.447
12/06/2013  06:11:00      -44.969       -6.627        3.341       26.533       13.365       14.134      704.013      178.630      199.762        0.158        0.054       45.455        9.560        0.044      325.626      -10.023      858.436
12/06/2013  06:12:00      -18.266        1.073       -7.400       20.950        6.321        6.963      438.915       39.952       48.483        0.046        0.026       18.297        8.842        0.234      325.770       -9.791      858.443
12/06/2013  06:13:00      -13.760       -6.751       -0.207       13.771        7.173        5.813      189.634       51.455       33.789        0.025        0.014       15.327        4.133        0.073      325.919       -9.549      858.488
12/06/2013  06:14:00      -45.531      -25.692       -5.798       12.691       19.804        8.929      161.058      392.195       79.727        0.170        0.032       52.279        6.323        0.015      325.835       -9.686      858.547
12/06/2013  06:15:00      -13.950      -15.634       -1.461       19.063       10.802        9.598      363.387      116.685       92.129        0.051        0.029       20.954        6.261        0.089      325.760       -9.809      858.565
12/06/2013  06:16:00        6.743      -11.807        2.243        8.230       10.608       12.276       67.735      112.520      150.699        0.026        0.017       13.597        7.862        0.334      325.880       -9.612      858.547
12/06/2013  06:17:00        6.301       13.159        8.075       15.271       17.490        9.878      233.190      305.890       97.569        0.046        0.032       14.590       10.181        0.487      325.900       -9.580      858.524
12/06/2013  06:18:00      -39.792       11.235       -3.209       24.798       12.746       10.315      614.961      162.473      106.390        0.130        0.044       41.348       11.815        0.082      325.836       -9.685      858.528
12/06/2013  06:19:00      -90.062      -22.936       -4.239       26.776       19.891       12.111      716.978      395.650      146.667        0.496        0.063       92.937       12.443        0.018      325.748       -9.828      858.564
12/06/2013  06:20:00      -86.925       -2.691       -7.351       15.275       20.559       12.466      233.337      422.681      155.410        0.421        0.041       86.966        9.237        0.011      325.676       -9.941      858.592
12/06/2013  06:21:00      -87.980       -3.295       -6.386       23.666       17.992       13.076      560.072      323.728      170.993        0.442        0.053       88.042        9.388        0.011      325.578      -10.101      858.600
12/06/2013  06:22:00     -116.948      -36.418       -6.039       29.430       34.261       15.732      866.105     1173.821      247.511        0.866        0.114      122.487       15.058        0.015      325.587      -10.087      858.618
12/06/2013  06:23:00     -109.705      -66.506       -6.099       37.703       26.347       18.680     1421.487      694.167      348.958        0.948        0.123      128.289       12.071        0.009      325.602      -10.061      858.636
12/06/2013  06:24:00      -68.994      -35.520        2.304       31.709       32.001       18.902     1005.469     1024.033      357.268        0.421        0.119       77.601       14.269        0.034      325.614      -10.043      858.651
12/06/2013  06:25:00      -81.421      -32.539        7.704       38.166       30.134       22.880     1456.630      908.044      523.475        0.532        0.144       87.682       22.826        0.068      325.539      -10.163      858.664
12/06/2013  06:26:00     -100.859      -17.542        1.014       38.261       30.139       19.746     1463.902      908.334      389.888        0.662        0.138      102.373       19.604        0.037      325.530      -10.179      858.667
12/06/2013  06:27:00      -66.875      -40.151       10.926       30.682       28.903       20.891      941.410      835.371      436.442        0.421        0.111       78.002       15.124        0.038      325.562      -10.128      858.656
12/06/2013  06:28:00     -128.048      -24.539       -1.669       37.718       33.344       18.513     1422.634     1111.842      342.717        0.994        0.144      130.378       12.782        0.010      325.485      -10.250      858.653
12/06/2013  06:29:00     -123.164      -35.507       -8.021       37.244       39.683       22.776     1387.137     1574.764      518.730        0.999        0.174      128.181       17.794        0.019      325.458      -10.295      858.658
12/06/2013  06:30:00     -127.050      -17.855       -3.667       45.874       24.929       22.060     2104.423      621.463      486.663        0.984        0.161      128.299       23.507        0.034      325.409      -10.375      858.665
12/06/2013  06:31:00      -89.978      -19.192        1.872       45.062       23.145       20.842     2030.557      535.673      434.377        0.573        0.150       92.002       23.055        0.063      325.407      -10.377      858.670
12/06/2013  06:32:00      -81.559      -35.803        4.572       36.258       24.385       20.456     1314.648      594.624      418.452        0.514        0.116       89.071       18.560        0.043      325.530      -10.179      858.669
12/06/2013  06:33:00     -117.884      -18.641       -6.883       36.033       27.283       17.693     1298.364      744.387      313.048        0.832        0.118      119.349       17.121        0.021      325.461      -10.291      858.672
12/06/2013  06:34:00     -101.530       -8.280       -9.003       40.818       30.593       20.909     1666.131      935.906      437.166        0.675        0.152      101.867       18.642        0.033      325.313      -10.529      858.660
12/06/2013  06:35:00      -81.556        4.494      -10.265       31.445       20.238       15.072      988.795      409.587      227.171        0.420        0.081       81.680       14.740        0.033      325.422      -10.354      858.629
12/06/2013  06:36:00     -140.457      -28.814       -9.462       31.439       33.067       23.486      988.389     1093.431      551.616        1.164        0.132      143.382       19.385        0.018      325.434      -10.335      858.647
12/06/2013  06:37:00     -118.489      -31.844       -8.085       39.614       47.803       24.828     1569.280     2285.115      616.412        0.979        0.224      122.694       19.404        0.025      325.384      -10.413      858.671
12/06/2013  06:38:00     -121.470        5.354       -5.965       45.724       33.083       25.885     2090.722     1094.516      670.011        0.934        0.193      121.588       24.187        0.040      325.316      -10.523      858.692
12/06/2013  06:39:00     -151.143      -71.053       -2.931       63.791       45.693       24.432     4069.350     2087.808      596.904        1.733        0.338      167.011       27.663        0.027      325.367      -10.442      858.727
12/06/2013  06:40:00     -128.483      -36.445       -2.519       44.837       39.629       23.080     2010.358     1570.445      532.691        1.098        0.206      133.552       20.999        0.025      325.455      -10.300      858.743
12/06/2013  06:41:00     -122.168       11.586       -9.711       47.490       22.938       17.528     2255.272      526.174      307.230        0.912        0.154      122.716       18.215        0.022      325.482      -10.256      858.759
12/06/2013  06:42:00     -220.336       -2.252      -19.351       40.148       28.647       23.388     1611.901      820.677      546.989        2.595        0.149      220.348       17.989        0.007      325.475      -10.270      858.804
12/06/2013  06:43:00     -155.351       -9.936       -5.119       63.985       33.209       28.671     4094.092     1102.866      822.012        1.514        0.301      155.668       32.861        0.045      325.429      -10.343      858.841
12/06/2013  06:44:00     -101.924      -36.520       -5.496       34.267       38.034       19.575     1174.240     1446.568      383.171        0.738        0.150      108.270       17.171        0.025      325.455      -10.300      858.835
12/06/2013  06:45:00     -128.357      -12.866       -9.795       32.498       24.084       21.635     1056.140      580.017      468.052        0.942        0.105      129.001       19.775        0.023      325.389      -10.405      858.822
12/06/2013  06:46:00     -147.452      -11.539      -15.478       35.674       32.582       26.955     1272.650     1061.563      726.554        1.259        0.153      147.903       24.344        0.027      325.330      -10.500      858.822
12/06/2013  06:47:00     -102.429      -16.850        0.584       42.885       26.063       22.841     1839.123      679.266      521.697        0.691        0.152      103.805       22.728        0.048      325.386      -10.409      858.840
12/06/2013  06:48:00      -91.415      -56.719        0.674       45.565       36.367       22.434     2076.131     1322.532      503.305        0.774        0.195      107.582       19.597        0.033      325.474      -10.268      858.852
12/06/2013  06:49:00      -84.495      -44.472        1.804       35.401       30.281       18.940     1253.206      916.939      358.737        0.582        0.126       95.484       18.027        0.036      325.583      -10.093      858.843
12/06/2013  06:50:00     -120.050      -17.977       -7.062       33.201       29.487       17.939     1102.300      869.508      321.824        0.854        0.115      121.388       16.493        0.018      325.592      -10.078      858.831
12/06/2013  06:51:00     -128.842      -53.709       -6.947       28.776       25.389       18.214      828.033      644.587      331.753        1.067        0.090      139.588       12.129        0.008      325.496      -10.232      858.842
12/06/2013  06:52:00      -78.003      -12.175        0.483       22.704       21.716       14.889      515.451      471.601      221.692        0.372        0.060       78.947       13.267        0.028      325.532      -10.175      858.826
12/06/2013  06:53:00     -102.261      -23.018       -1.764       31.976       24.723       14.028     1022.467      611.244      196.779        0.641        0.092      104.820       12.700        0.015      325.636      -10.007      858.826
12/06/2013  06:54:00     -104.896      -55.614       -1.291       44.837       28.996       18.991     2010.344      840.781      360.672        0.865        0.161      118.727       23.838        0.040      325.649       -9.986      858.840
12/06/2013  06:55:00     -100.206      -15.097       -6.577       43.947       21.173       19.087     1931.325      448.280      364.308        0.653        0.137      101.337       24.644        0.059      325.699       -9.906      858.876
12/06/2013  06:56:00     -109.129      -11.868       -6.000       39.315       29.728       15.866     1545.707      883.783      251.724        0.738        0.134      109.773       17.279        0.025      325.558      -10.133      858.929
12/06/2013  06:57:00      -91.717      -14.202       -7.204       28.148       25.522       16.760      792.302      651.369      280.914        0.519        0.086       92.810       12.736        0.019      325.501      -10.226      858.975
12/06/2013  06:58:00      -71.442        1.568       -2.345       27.336       18.957       19.427      747.236      359.370      377.424        0.330        0.074       71.460       13.037        0.033      325.457      -10.298      859.012
12/06/2013  06:59:00      -68.975      -16.904        2.155       25.322       23.247       15.472      641.220      540.409      239.376        0.323        0.071       71.016       14.268        0.040      325.443      -10.319      859.043
12/06/2013  07:00:00     -127.454       18.590      -13.685       29.740       23.433       19.004      884.485      549.109      361.138        0.929        0.090      128.802       14.948        0.013      325.406      -10.379      859.052
12/06/2013  07:01:00     -120.939      -12.961      -17.129       22.056       25.165       13.416      486.452      633.293      180.001        0.819        0.065      121.632       13.767        0.013      325.294      -10.559      859.053
12/06/2013  07:02:00     -124.243      -27.916      -12.313       22.021       18.681       14.045      484.910      348.987      197.251        0.870        0.052      127.340        9.848        0.006      325.366      -10.444      859.070
12/06/2013  07:03:00      -69.528      -39.271       -7.804       52.386       25.422       21.331     2744.249      646.261      454.999        0.514        0.192       79.852       28.554        0.128      325.421      -10.354      859.089
12/06/2013  07:04:00      -27.430      -27.529        6.698       48.374       27.704       27.727     2340.066      767.501      768.809        0.271        0.194       38.862       29.587        0.580      325.460      -10.291      859.099
12/06/2013  07:05:00      -82.237      -22.121       -1.737       26.034       26.575       17.506      677.751      706.247      306.444        0.447        0.085       85.160       10.162        0.014      325.465      -10.284      859.110
12/06/2013  07:06:00      -77.569      -21.222       -2.137       19.950       20.493       12.542      398.000      419.955      157.302        0.372        0.049       80.420       10.361        0.017      325.510      -10.211      859.101
12/06/2013  07:07:00      -78.664        6.712       -7.127       20.525       24.068       17.209      421.282      579.273      296.139        0.379        0.065       78.949       13.356        0.029      325.460      -10.292      859.089
12/06/2013  07:08:00      -64.572        6.037       -6.138       27.153       14.438        8.831      737.273      208.445       77.986        0.263        0.051       64.854        6.651        0.011      325.453      -10.303      859.084
12/06/2013  07:09:00      -23.076      -38.598        4.846       26.708       19.351       15.209      713.321      374.463      231.308        0.168        0.066       44.970       14.615        0.106      325.633      -10.011      859.090
12/06/2013  07:10:00      -63.339      -25.376        3.805       27.800       17.807       18.557      772.867      317.096      344.352        0.305        0.072       68.233       16.625        0.059      325.620      -10.033      859.097
12/06/2013  07:11:00      -42.104      -35.237        0.237       37.579       20.167       13.003     1412.190      406.724      169.069        0.250        0.099       54.904       18.254        0.111      325.692       -9.916      859.112
12/06/2013  07:12:00       11.211        9.946       20.487       19.984        8.680        7.942      399.371       75.338       63.077        0.059        0.027       14.987       10.605        0.501      325.702       -9.898      859.103
12/06/2013  07:13:00       12.791        7.864       -2.279       18.910       20.356       12.654      357.590      414.374      160.119        0.058        0.047       15.015       12.225        0.663      325.887       -9.602      859.091
12/06/2013  07:14:00       -1.994       -7.112       -1.226        4.947        4.069        3.972       24.470       16.554       15.779        0.006        0.003        7.387        3.035        0.169      326.032       -9.366      859.107
12/06/2013  07:15:00      -11.925       -9.602        3.176       14.727        7.598        7.446      216.890       57.727       55.436        0.029        0.017       15.310        7.736        0.255      325.865       -9.636      859.119
12/06/2013  07:16:00      -22.095        1.907       -4.278       13.835        7.531        6.156      191.410       56.720       37.891        0.040        0.014       22.177        3.866        0.030      325.801       -9.741      859.129
12/06/2013  07:17:00       20.292       18.467       11.593        6.776        9.284        8.344       45.920       86.197       69.628        0.054        0.010       27.437        4.678        0.029      325.905       -9.572      859.119
12/06/2013  07:18:00       33.596       56.707       -3.475       15.871       26.835       19.157      251.900      720.120      366.978        0.285        0.067       65.912       19.672        0.089      325.620      -10.034      859.104
12/06/2013  07:19:00       25.221       60.009       -6.555       15.064       23.066       13.975      226.918      532.018      195.302        0.262        0.048       65.093       13.460        0.043      325.601      -10.062      859.105
12/06/2013  07:20:00       19.063       46.669       -2.315       19.267       30.324       12.858      371.220      919.539      165.327        0.200        0.073       50.412       12.594        0.062      325.658       -9.972      859.113
12/06/2013  07:21:00       66.097       33.397       11.667       13.756       15.717       17.866      189.237      247.009      319.187        0.319        0.038       74.055        8.995        0.015      325.841       -9.677      859.131
12/06/2013  07:22:00       31.438       35.763       28.871       23.169       16.234       21.722      536.793      263.556      471.845        0.219        0.064       47.617       13.886        0.085      325.840       -9.679      859.154
12/06/2013  07:23:00       51.514       21.542        4.188       22.950       16.947       12.620      526.695      287.209      159.266        0.205        0.049       55.836        8.634        0.024      325.831       -9.694      859.169
12/06/2013  07:24:00       42.712       39.014        4.728       25.557       13.802       12.480      653.175      190.482      155.744        0.218        0.050       57.848       10.606        0.034      325.859       -9.647      859.183
12/06/2013  07:25:00        4.250        1.398        6.455        9.740        7.458        7.634       94.861       55.617       58.285        0.014        0.010        4.474        6.640        2.202      325.962       -9.481      859.179
12/06/2013  07:26:00      -15.697       -5.628       -3.409       23.735        7.567        6.720      563.363       57.253       45.154        0.048        0.033       16.675        8.256        0.245      325.961       -9.482      859.193
12/06/2013  07:27:00      -46.346        5.236       -4.274       22.850       12.295        8.114      522.129      151.179       65.834        0.147        0.037       46.641        7.178        0.024      325.836       -9.683      859.216
12/06/2013  07:28:00      -51.422       12.305       -5.649        8.809        5.611        5.299       77.604       31.479       28.076        0.148        0.007       52.874        4.937        0.009      325.863       -9.638      859.229
12/06/2013  07:29:00      -33.448        5.769       -6.797        6.873        6.791        6.200       47.245       46.120       38.436        0.066        0.007       33.941        1.901        0.003      325.980       -9.454      859.222
12/06/2013  07:30:00      -33.644        6.289       -6.885       11.865       13.848       10.246      140.770      191.756      104.982        0.083        0.022       34.227        8.450        0.061      326.050       -9.338      859.242
12/06/2013  07:31:00       11.608       16.376       15.069       19.021        7.384       10.003      361.802       54.525      100.053        0.057        0.026       20.073        7.537        0.141      326.210       -9.079      859.224
12/06/2013  07:32:00       21.636       32.277       -0.694       21.247       12.123       10.564      451.446      146.958      111.606        0.111        0.036       38.857        9.706        0.062      326.212       -9.075      859.201
12/06/2013  07:33:00       -5.984       22.765       -3.166       13.410       14.880        8.087      179.839      221.420       65.394        0.052        0.023       23.538        7.063        0.090      326.290       -8.950      859.222
12/06/2013  07:34:00        5.218       26.753       -1.246       12.628       21.915       11.933      159.464      480.261      142.399        0.076        0.039       27.257       13.585        0.248      326.353       -8.846      859.234
12/06/2013  07:35:00      -17.426       10.585       -1.802       13.310       11.268        9.340      177.146      126.966       87.242        0.041        0.020       20.389        8.308        0.166      326.267       -8.987      859.263
12/06/2013  07:36:00      -40.288       14.013       -5.481       11.217        6.814        6.309      125.825       46.432       39.798        0.103        0.011       42.656        3.579        0.007      326.150       -9.176      859.262
12/06/2013  07:37:00      -21.397       22.591        3.006       23.229       21.819       17.352      539.581      476.071      301.088        0.115        0.066       31.116       15.099        0.235      326.383       -8.799      859.257
12/06/2013  07:38:00      -51.594       20.224       -4.460       28.661       14.260        9.604      821.443      203.351       92.246        0.210        0.056       55.416        9.245        0.028      326.361       -8.833      859.259
12/06/2013  07:39:00      -49.887       -6.369       -7.765       10.571       12.533        7.336      111.754      157.085       53.813        0.146        0.016       50.292        5.807        0.013      326.293       -8.945      859.271
12/06/2013  07:40:00      -41.957      -21.035       -3.559        9.634        8.805        6.195       92.817       77.521       38.380        0.121        0.010       46.935        4.090        0.008      326.246       -9.021      859.280
12/06/2013  07:41:00      -43.254       -7.344       -9.465        9.679        7.709        5.924       93.682       59.429       35.097        0.110        0.009       43.873        2.966        0.005      326.241       -9.029      859.274
12/06/2013  07:42:00      -49.577        3.054       -5.735       21.079       11.814       10.162      444.330      139.559      103.266        0.159        0.034       49.671        5.073        0.010      326.280       -8.965      859.278
12/06/2013  07:43:00       30.102       32.519       10.375       19.453       21.994       19.198      378.415      483.736      368.575        0.165        0.062       44.313       13.304        0.090      326.517       -8.582      859.277
12/06/2013  07:44:00       16.353       41.996        4.749       20.753       26.174       20.714      430.668      685.098      429.067        0.180        0.077       45.067       18.092        0.161      326.640       -8.382      859.295
12/06/2013  07:45:00       -9.168       19.219        7.223       14.081       22.467       15.645      198.282      504.786      244.753        0.073        0.047       21.294       14.297        0.451      326.752       -8.200      859.330
12/06/2013  07:46:00      -26.844        2.608       -2.917       21.578       17.166       12.371      465.594      294.676      153.031        0.082        0.046       26.970        7.359        0.074      326.478       -8.644      859.353
12/06/2013  07:47:00      -46.376      -32.249        1.292       32.171       21.598       17.367     1034.995      466.482      301.616        0.250        0.090       56.486        9.646        0.029      326.395       -8.778      859.365
12/06/2013  07:48:00       14.342      -43.050        3.931       28.129       30.678       20.432      791.225      941.117      417.485        0.211        0.107       45.376       18.189        0.161      326.526       -8.566      859.374
12/06/2013  07:49:00      -37.237      -14.380        4.012       40.746        9.823       18.503     1660.261       96.495      342.356        0.185        0.105       39.917       23.406        0.344      326.362       -8.833      859.362
12/06/2013  07:50:00      -84.227      -21.958       -8.551       17.768       21.361       12.930      315.695      456.301      167.181        0.429        0.047       87.042        6.112        0.005      326.386       -8.795      859.365
12/06/2013  07:51:00      -50.367      -20.017       -3.575       24.722       14.661       12.500      611.163      214.956      156.259        0.197        0.049       54.198        9.480        0.031      326.421       -8.737      859.360
12/06/2013  07:52:00      -45.455      -25.360       -7.291       15.091       13.778        9.337      227.753      189.830       87.184        0.163        0.025       52.051        5.526        0.011      326.489       -8.627      859.340
12/06/2013  07:53:00      -31.052      -11.447       -0.169       12.004       17.178       12.297      144.091      295.082      151.209        0.084        0.030       33.095       10.138        0.094      326.524       -8.571      859.339
12/06/2013  07:54:00      -42.095      -11.969       -5.246       23.952       16.713        9.329      573.681      279.341       87.024        0.144        0.047       43.764        9.363        0.046      326.532       -8.559      859.361
12/06/2013  07:55:00      -36.226      -17.279       -6.119       16.767        9.314        8.401      281.119       86.751       70.572        0.104        0.022       40.136        2.970        0.005      326.722       -8.249      859.378
12/06/2013  07:56:00        4.108      -19.424        5.088       10.770       15.759       15.395      115.988      248.348      237.005        0.051        0.030       19.854        3.795        0.037      326.966       -7.853      859.394
12/06/2013  07:57:00      -15.239       -6.501        6.844       20.532        9.150       11.052      421.567       83.727      122.154        0.047        0.031       16.568        7.243        0.191      326.871       -8.008      859.388
12/06/2013  07:58:00      -20.973        4.970       13.677       30.274       12.580       15.840      916.538      158.247      250.917        0.099        0.066       21.554       18.190        0.712      326.992       -7.811      859.379
12/06/2013  07:59:00      -28.877       18.042       -3.404       17.736       22.147       19.359      314.567      490.480      374.766        0.118        0.059       34.050       13.621        0.160      326.973       -7.841      859.386
12/06/2013  08:00:00      -13.295       11.787       15.488       26.525       20.201       23.211      703.561      408.073      538.758        0.110        0.083       17.767       15.661        0.777      327.237       -7.413      859.387
12/06/2013  08:01:00      -23.943       31.676       31.446       19.793       17.882       19.782      391.753      319.777      391.335        0.183        0.055       39.707       10.099        0.065      327.327       -7.267      859.384
12/06/2013  08:02:00      -46.215      -23.685       -3.989       36.619       29.162       19.594     1340.939      850.437      383.936        0.264        0.129       51.931       23.074        0.197      327.104       -7.630      859.403
12/06/2013  08:03:00       28.464      -18.999       19.140       41.111       31.325       25.380     1690.143      981.255      644.165        0.243        0.166       34.223       28.143        0.676      327.141       -7.569      859.424
12/06/2013  08:04:00      -30.838        8.670       16.645       40.973       20.137       19.703     1678.746      405.505      388.228        0.189        0.124       32.034       21.614        0.455      327.135       -7.579      859.449
12/06/2013  08:05:00      -62.391      -24.800        2.400       59.686       47.380       26.767     3562.414     2244.822      716.486        0.552        0.326       67.140       27.298        0.165      326.804       -8.116      859.467
12/06/2013  08:06:00      -21.717      -38.813       -1.776       23.144       17.721       10.211      535.641      314.023      104.269        0.147        0.048       44.475        2.561        0.003      327.043       -7.729      859.467
12/06/2013  08:07:00       -6.149      -31.569       -5.133       16.129       19.134       16.152      260.146      366.110      260.896        0.097        0.044       32.162       10.291        0.102      327.181       -7.502      859.456
12/06/2013  08:08:00      -72.174      -38.131       -5.739       23.534       38.168       18.511      553.870     1456.797      342.643        0.452        0.118       81.628       15.817        0.038      326.844       -8.051      859.450
12/06/2013  08:09:00     -105.579      -43.257       -9.738       19.864       27.107       15.857      394.588      734.777      251.433        0.725        0.069      114.096       10.085        0.008      326.779       -8.159      859.458
12/06/2013  08:10:00      -68.586      -49.264       -5.657       32.993       23.782       15.447     1088.544      565.587      238.618        0.453        0.095       84.445        9.517        0.013      326.869       -8.011      859.454
12/06/2013  08:11:00      -35.121      -54.320       -7.418       19.837       26.008       14.309      393.506      676.393      204.736        0.276        0.064       64.685        9.927        0.024      326.842       -8.054      859.440
12/06/2013  08:12:00      -33.874      -41.902       -5.685       22.524       18.389       16.815      507.323      338.170      282.751        0.203        0.056       53.882        9.353        0.030      327.020       -7.765      859.428
12/06/2013  08:13:00        2.479      -56.630        1.537       32.006       28.953       23.224     1024.415      838.284      539.334        0.281        0.120       56.684       14.433        0.065      327.005       -7.791      859.430
12/06/2013  08:14:00      -40.473      -14.707        8.644       26.231       22.237       22.291      688.066      494.504      496.874        0.180        0.084       43.062       16.651        0.150      327.005       -7.790      859.443
12/06/2013  08:15:00      -23.551       17.078       20.720       52.754       29.278       28.273     2782.993      857.214      799.388        0.286        0.222       29.091       30.356        1.089      327.113       -7.614      859.427
12/06/2013  08:16:00      -15.511       30.398       10.077       24.098       26.221       27.063      580.701      687.524      732.393        0.163        0.100       34.127       10.534        0.095      327.247       -7.396      859.418
12/06/2013  08:17:00      -89.696      -44.942        5.402       41.413       40.443       23.312     1715.077     1635.600      543.446        0.699        0.195      100.325       17.676        0.031      326.960       -7.863      859.434
12/06/2013  08:18:00      -60.986      -36.017        8.160       50.864       33.579       23.621     2587.114     1127.519      557.939        0.468        0.214       70.827       22.839        0.104      326.978       -7.834      859.445
12/06/2013  08:19:00      -49.097      -46.820        5.235       34.992       28.174       19.694     1224.455      793.799      387.836        0.352        0.120       67.843       12.936        0.036      326.928       -7.915      859.452
12/06/2013  08:20:00      -77.744      -44.587       -1.887       39.588       30.419       19.945     1567.178      925.316      397.813        0.546        0.145       89.622       17.678        0.039      326.922       -7.924      859.452
12/06/2013  08:21:00      -55.661      -26.111       -0.666       29.550       18.078       15.012      873.200      326.798      225.360        0.260        0.071       61.481       13.668        0.049      326.961       -7.860      859.455
12/06/2013  08:22:00      -39.814        8.152        6.789       31.157       22.244       15.419      970.753      494.803      237.754        0.170        0.085       40.640       18.944        0.217      326.982       -7.827      859.441
12/06/2013  08:23:00        1.766      -11.511       14.582       27.920       34.920       24.697      779.509     1219.378      609.960        0.148        0.130       11.645       16.522        2.013      327.202       -7.470      859.428
12/06/2013  08:24:00        6.922       24.514       49.965       27.920       49.786       30.086      779.551     2478.670      905.147        0.365        0.208       25.472       33.878        1.769      327.246       -7.399      859.422
12/06/2013  08:25:00       20.407      -27.753        7.020       32.806       38.647       32.208     1076.220     1493.606     1037.337        0.242        0.180       34.448       22.280        0.418      327.391       -7.164      859.413
12/06/2013  08:26:00      -14.947      -36.760       13.444       37.674       39.436       20.308     1419.345     1555.236      412.420        0.257        0.169       39.683       23.780        0.359      327.326       -7.270      859.429
12/06/2013  08:27:00      -54.069      -26.266        2.051       24.203       20.946       11.507      585.764      438.734      132.412        0.239        0.058       60.111        5.562        0.009      327.186       -7.496      859.473
12/06/2013  08:28:00       -9.216      -30.041       -0.699       13.697       19.883       13.663      187.596      395.351      186.684        0.088        0.038       31.423        9.811        0.097      327.365       -7.206      859.513
12/06/2013  08:29:00        0.354       34.293       58.047       20.296       30.843       25.391      411.944      951.263      644.726        0.328        0.100       34.295       22.177        0.418      327.517       -6.959      859.499
12/06/2013  08:30:00       30.843       73.021       86.494       44.572       53.001       32.585     1986.704     2809.118     1061.761        0.981        0.293       79.268       38.572        0.237      327.222       -7.437      859.468
12/06/2013  08:31:00       74.999       91.690       45.926       44.727       35.951       46.939     2000.469     1292.459     2203.286        1.082        0.275      118.456       36.457        0.095      326.972       -7.843      859.449
12/06/2013  08:32:00       66.876       71.589       58.740       34.469       32.799       32.754     1188.106     1075.792     1072.828        0.819        0.167       97.967       19.798        0.041      327.109       -7.621      859.473
12/06/2013  08:33:00      105.363       73.345       43.170       39.132       27.718       34.916     1531.319      768.312     1219.141        1.093        0.176      128.377       23.898        0.035      327.133       -7.583      859.503
12/06/2013  08:34:00       78.821       58.655       45.239       47.062       33.203       41.440     2214.856     1102.468     1717.273        0.837        0.252       98.250       29.271        0.089      327.150       -7.554      859.512
12/06/2013  08:35:00       40.994       72.417       64.025       43.127       29.080       25.052     1859.950      845.673      627.592        0.718        0.167       83.215       20.412        0.060      327.322       -7.276      859.536
12/06/2013  08:36:00       77.104       41.397       44.417       43.142       57.569       32.840     1861.223     3314.156     1078.483        0.794        0.313       87.514       29.961        0.117      327.182       -7.503      859.572
12/06/2013  08:37:00       68.243       40.371       26.263       28.975       30.441       21.883      839.545      926.633      478.876        0.461        0.112       79.291       17.801        0.050      327.243       -7.403      859.595
12/06/2013  08:38:00        3.974       -1.127        0.739       17.363       29.314       19.013      301.474      859.290      361.499        0.077        0.076        4.130       15.650       14.356      327.569       -6.873      859.611
12/06/2013  08:39:00       -5.170        4.808       23.474        7.611       13.606       10.001       57.930      185.118      100.017        0.047        0.017        7.060        8.625        1.493      327.822       -6.461      859.611
12/06/2013  08:40:00        1.175       11.124       11.143       13.353       10.711       14.945      178.309      114.726      223.340        0.038        0.026       11.186       10.005        0.800      327.486       -7.009      859.620
12/06/2013  08:41:00       20.405        0.033       12.681       33.646       34.024       23.253     1132.043     1157.604      540.720        0.170        0.142       20.405       12.139        0.354      327.397       -7.154      859.628
12/06/2013  08:42:00      -10.324       40.372       54.238       22.111       30.589       23.927      488.889      935.700      572.492        0.334        0.100       41.672       19.722        0.224      327.509       -6.971      859.627
12/06/2013  08:43:00       14.288       36.881       51.818       26.006       27.312       19.360      676.320      745.938      374.799        0.302        0.090       39.552       15.533        0.154      327.282       -7.340      859.646
12/06/2013  08:44:00       15.831       25.461       38.730       27.981       24.814       19.697      782.922      615.746      387.972        0.209        0.089       29.982       16.133        0.290      327.200       -7.473      859.648
12/06/2013  08:45:00       -8.150      -33.755        9.875       25.220       27.913       20.509      636.038      779.117      420.610        0.157        0.092       34.725       19.552        0.317      327.274       -7.352      859.645
12/06/2013  08:46:00       -5.294        1.990       22.250       16.102       18.612       16.258      259.279      346.418      264.330        0.070        0.044        5.655       11.395        4.060      327.434       -7.094      859.627
12/06/2013  08:47:00      -58.246       -9.905        0.565       39.328       23.871       19.980     1546.691      569.828      399.184        0.300        0.126       59.082       17.412        0.087      327.374       -7.190      859.611
12/06/2013  08:48:00       -7.272       21.171       17.057       18.786       23.498       26.003      352.913      552.155      676.177        0.119        0.079       22.385       19.295        0.743      327.456       -7.056      859.604
12/06/2013  08:49:00      -16.074       14.142       34.213       17.831       22.199       16.629      317.959      492.806      276.522        0.136        0.054       21.409       11.301        0.279      327.605       -6.816      859.595
12/06/2013  08:50:00       -8.051       30.904       41.181       14.533       17.824       15.749      211.222      317.703      248.030        0.175        0.039       31.935       10.345        0.105      327.478       -7.022      859.605
12/06/2013  08:51:00      -18.577        8.867       30.601       12.693       28.424       30.242      161.113      807.900      914.597        0.162        0.094       20.585       26.634        1.674      327.360       -7.215      859.610
12/06/2013  08:52:00        5.953      -37.082        7.643       32.662       24.150       18.217     1066.836      583.234      331.860        0.173        0.099       37.557       15.795        0.177      327.392       -7.162      859.629
12/06/2013  08:53:00      -14.396       14.434       10.755       20.687       30.985       19.157      427.944      960.046      366.989        0.114        0.088       20.386       19.541        0.919      327.600       -6.824      859.640
12/06/2013  08:54:00       -7.254       10.076        5.005       34.100       34.277       25.202     1162.817     1174.943      635.165        0.158        0.149       12.415       15.858        1.631      327.503       -6.981      859.647
12/06/2013  08:55:00      -37.646       -9.923        5.527       29.585       19.753       15.291      875.258      390.168      233.810        0.152        0.075       38.932       16.584        0.181      327.518       -6.957      859.648
12/06/2013  08:56:00      -59.890       22.217        1.950       33.697       21.035       17.360     1135.520      442.478      301.374        0.298        0.094       63.878       19.748        0.096      327.486       -7.009      859.661
12/06/2013  08:57:00      -82.198       25.873        3.421       27.471       21.166       15.478      754.675      448.007      239.564        0.444        0.072       86.174       13.349        0.024      327.379       -7.184      859.689
12/06/2013  08:58:00      -82.613      -23.263       -7.097       27.141       21.652       17.336      736.649      468.808      300.535        0.446        0.075       85.826        8.917        0.011      327.448       -7.070      859.697
12/06/2013  08:59:00      -34.693       -7.067       -2.203       39.527       24.087       16.402     1562.381      580.199      269.038        0.183        0.121       35.405        9.736        0.076      327.628       -6.777      859.706
12/06/2013  09:00:00       -9.961        1.920       13.602       17.576       18.561       12.067      308.903      344.506      145.607        0.054        0.040       10.145       12.932        1.625      327.998       -6.174      859.695
12/06/2013  09:01:00      -35.483       28.307       -7.320       15.893       12.537       10.546      252.586      157.181      111.227        0.132        0.026       45.391        4.145        0.008      327.569       -6.874      859.711
12/06/2013  09:02:00      -26.765        2.037      -19.493       19.888       15.535        9.645      395.547      241.348       93.020        0.092        0.036       26.843        6.921        0.066      327.772       -6.543      859.732
12/06/2013  09:03:00        4.785        1.853       -7.147       11.256       14.094       13.514      126.688      198.639      182.616        0.029        0.025        5.132        6.358        1.535      327.841       -6.431      859.758
12/06/2013  09:04:00      -32.668      -14.567        6.297       44.749       26.505       16.579     2002.498      702.517      274.851        0.215        0.149       35.769       20.010        0.313      327.815       -6.475      859.778
12/06/2013  09:05:00      -44.567      -11.931      -10.686       11.823       24.618       11.767      139.779      606.024      138.455        0.156        0.044       46.136        9.529        0.043      327.554       -6.897      859.783
12/06/2013  09:06:00      -51.939       10.807      -12.894       13.655       23.718       12.602      186.467      562.544      158.801        0.194        0.045       53.051        8.044        0.023      327.648       -6.745      859.788
12/06/2013  09:07:00      -16.869       -7.146        7.239       16.306       10.195        9.881      265.877      103.944       97.628        0.043        0.023       18.320       10.231        0.312      328.217       -5.819      859.797
12/06/2013  09:08:00       20.105       32.515        8.311       18.150       23.972       20.043      329.406      574.653      401.729        0.142        0.065       38.229       13.215        0.120      328.111       -5.992      859.787
12/06/2013  09:09:00        9.197       51.674        4.958       22.944       37.701       29.301      526.443     1421.371      858.534        0.279        0.140       52.486       27.422        0.273      328.156       -5.918      859.772
12/06/2013  09:10:00       23.399       37.950        7.800       33.860       38.744       19.081     1146.487     1501.083      364.095        0.253        0.151       44.584       19.862        0.198      328.123       -5.972      859.768
12/06/2013  09:11:00       45.051       32.499        4.595       25.198       30.675       20.813      634.951      940.971      433.175        0.256        0.100       55.550       18.495        0.111      327.863       -6.396      859.770
12/06/2013  09:12:00       21.785       35.315        3.008       21.114       23.585       24.158      445.797      556.265      583.618        0.166        0.079       41.494       14.792        0.127      328.135       -5.953      859.765
12/06/2013  09:13:00       36.827       23.214       13.423       27.767       25.646       23.050      771.034      657.727      531.299        0.202        0.098       43.533       12.788        0.086      328.225       -5.806      859.752
12/06/2013  09:14:00       27.047       50.081        5.775       31.450       33.362       26.208      989.121     1113.008      686.853        0.303        0.139       56.918       24.607        0.187      328.165       -5.903      859.745
12/06/2013  09:15:00       35.631       74.763       -2.450       36.509       29.074       33.243     1332.922      845.316     1105.068        0.507        0.164       82.820       22.414        0.073      328.210       -5.829      859.734
12/06/2013  09:16:00       60.432       60.480       16.985       33.924       17.887       26.227     1150.828      319.935      687.853        0.488        0.108       85.498       15.106        0.031      327.952       -6.251      859.724
12/06/2013  09:17:00      -12.642        3.321        4.078       22.298       25.301       13.310      497.216      640.117      177.160        0.075        0.066       13.071       11.851        0.822      328.250       -5.765      859.735
12/06/2013  09:18:00        6.538      -38.834       -1.958       19.081       24.125       22.139      364.083      582.007      490.127        0.150        0.072       39.381       18.698        0.225      328.397       -5.526      859.767
12/06/2013  09:19:00        0.371      -34.985        0.510       23.733       13.807       12.428      563.243      190.645      154.444        0.107        0.045       34.987        6.929        0.039      328.228       -5.802      859.804
12/06/2013  09:20:00      -57.317      -38.641       -0.419       33.442       12.849       15.655     1118.396      165.103      245.073        0.315        0.076       69.126       13.052        0.036      328.081       -6.040      859.812
12/06/2013  09:21:00      -27.770      -25.947       -0.565       17.202       13.194       13.190      295.898      174.079      173.971        0.104        0.032       38.006        9.789        0.066      328.237       -5.786      859.803
12/06/2013  09:22:00      -23.766        2.965        4.215       17.800       14.032       11.188      316.837      196.889      125.164        0.062        0.032       23.951        6.073        0.064      328.417       -5.494      859.807
12/06/2013  09:23:00       14.513       26.220        5.225       22.550       23.550       18.377      508.520      554.584      337.727        0.116        0.070       29.968        9.389        0.098      328.721       -4.997      859.827
12/06/2013  09:24:00       16.939       39.027       -1.076       22.623       26.158       21.534      511.806      684.248      463.728        0.174        0.083       42.544       19.013        0.200      328.502       -5.355      859.841
12/06/2013  09:25:00      -10.202       -3.107       34.505       16.559       28.095       15.062      274.196      789.310      226.856        0.130        0.065       10.665        9.888        0.860      328.913       -4.684      859.839
12/06/2013  09:26:00       32.347       25.154       27.680       27.369       23.085       21.366      749.044      532.932      456.518        0.209        0.087       40.976       13.490        0.108      328.592       -5.207      859.839
12/06/2013  09:27:00        8.847       23.815        6.244       17.862       22.509       22.317      319.056      506.639      498.035        0.100        0.066       25.406       10.703        0.177      328.432       -5.468      859.833
12/06/2013  09:28:00       -6.583       16.323      -10.843       12.851       14.259       18.899      165.140      203.310      357.160        0.058        0.036       17.600        7.679        0.190      328.423       -5.483      859.815
12/06/2013  09:29:00       -5.666        4.993       -4.212       10.000        9.494       14.682      100.001       90.140      215.557        0.024        0.020        7.552        7.141        0.894      328.666       -5.087      859.800
12/06/2013  09:30:00      -37.249      -33.918        6.325       34.497       24.380       16.325     1190.029      594.384      266.515        0.231        0.103       50.378       16.100        0.102      328.459       -5.425      859.791
12/06/2013  09:31:00      -29.329      -44.941      -14.935       29.379       22.831       13.256      863.124      521.252      175.720        0.233        0.078       53.664        5.943        0.012      328.435       -5.463      859.793
12/06/2013  09:32:00      -23.592       -4.039        2.738       15.529       19.449       17.563      241.144      378.249      308.459        0.075        0.046       23.935       10.942        0.209      328.630       -5.146      859.776
12/06/2013  09:33:00      -54.364       14.385       11.720       14.305       10.355       12.725      204.647      107.232      161.928        0.189        0.024       56.235        8.024        0.020      328.384       -5.546      859.760
12/06/2013  09:34:00        8.515       30.352        9.744       21.595       34.751       19.011      466.348     1207.605      361.399        0.156        0.102       31.524       21.701        0.474      329.047       -4.465      859.742
12/06/2013  09:35:00        9.257       36.066        0.594       21.844       33.877       22.341      477.147     1147.672      499.131        0.175        0.106       37.235       22.163        0.354      329.018       -4.512      859.749
12/06/2013  09:36:00      -11.272       51.395       18.561       31.279       36.290       44.340      978.381     1316.956     1966.003        0.369        0.213       52.616       17.681        0.113      329.123       -4.341      859.752
12/06/2013  09:37:00       -3.667       18.960       62.518       21.528       44.336       27.074      463.457     1965.685      733.010        0.372        0.158       19.311       27.760        2.066      329.257       -4.122      859.741
12/06/2013  09:38:00       30.329       58.864       74.618       38.878       41.497       27.716     1511.483     1722.030      768.150        0.698        0.200       66.218       26.953        0.166      328.801       -4.866      859.738
12/06/2013  09:39:00       27.006       54.688       62.530       43.656       31.254       34.485     1905.807      976.806     1189.239        0.585        0.204       60.992       26.388        0.187      328.945       -4.632      859.753
12/06/2013  09:40:00       34.671       62.181       74.500       37.724       40.883       27.627     1423.117     1671.459      763.225        0.724        0.193       71.194       24.753        0.121      328.833       -4.814      859.758
12/06/2013  09:41:00       17.091       39.169       76.336       54.336       70.757       42.409     2952.427     5006.598     1798.559        0.870        0.488       42.735       40.568        0.901      329.096       -4.385      859.765
12/06/2013  09:42:00       92.906       85.063       46.897       42.011       40.839       51.227     1764.934     1667.810     2624.249        1.206        0.303      125.966       32.991        0.069      328.633       -5.141      859.780
12/06/2013  09:43:00       48.217       68.210       46.908       41.209       38.486       49.550     1698.202     1481.209     2455.172        0.741        0.282       83.531       29.813        0.127      329.023       -4.506      859.778
12/06/2013  09:44:00       46.235       97.354      105.899       46.623       48.654       25.865     2173.710     2367.220      668.981        1.402        0.260      107.775       14.990        0.019      328.754       -4.943      859.784
12/06/2013  09:45:00       91.680       70.970       47.431       33.969       32.140       44.111     1153.903     1032.979     1945.742        0.991        0.207      115.939       32.494        0.079      328.321       -5.650      859.804
12/06/2013  09:46:00       71.778       47.285       33.077       21.116       31.703       28.484      445.887     1005.061      811.330        0.537        0.113       85.954        8.225        0.009      328.409       -5.506      859.807
12/06/2013  09:47:00       15.389       26.493       24.749       27.545       23.354       17.639      758.743      545.406      311.118        0.158        0.081       30.638       13.778        0.202      328.886       -4.727      859.787
12/06/2013  09:48:00        2.995       11.171        9.048       25.215       47.722       23.700      635.796     2277.347      561.708        0.184        0.174       11.565       13.560        1.375      329.109       -4.362      859.758
12/06/2013  09:49:00       59.669       40.641       37.989       59.160       34.425       42.489     3499.897     1185.057     1805.308        0.657        0.325       72.195       21.812        0.091      329.164       -4.274      859.719
12/06/2013  09:50:00       87.274       50.881       39.686       57.093       45.847       38.497     3259.594     2101.924     1481.988        0.931        0.342      101.023       34.900        0.119      328.971       -4.589      859.698
12/06/2013  09:51:00      161.823       93.745       -0.545       44.313       34.707       38.744     1963.621     1204.605     1501.126        1.982        0.233      187.016       22.710        0.015      328.491       -5.372      859.682
12/06/2013  09:52:00      128.942       93.331       12.076       40.177       36.803       33.260     1614.195     1354.492     1106.213        1.478        0.204      159.175       18.533        0.014      328.569       -5.247      859.678
12/06/2013  09:53:00      117.836       78.873       24.905       55.694       40.849       32.312     3101.809     1668.612     1044.058        1.327        0.291      141.796       24.080        0.029      328.800       -4.869      859.698
12/06/2013  09:54:00       50.130       54.590       59.804       48.604       41.649       25.837     2362.360     1734.630      667.576        0.692        0.238       74.116        6.461        0.008      329.316       -4.025      859.720
12/06/2013  09:55:00       17.731       38.697       75.789       42.829       40.897       29.297     1834.353     1672.583      858.295        0.596        0.218       42.565       26.379        0.384      329.161       -4.279      859.739
12/06/2013  09:56:00       78.012       74.791       51.014       46.684       37.920       39.109     2179.357     1437.892     1529.545        0.971        0.257      108.072       28.791        0.071      328.697       -5.037      859.735
12/06/2013  09:57:00       95.557       45.428        5.681       42.458       39.517       25.559     1802.670     1561.618      653.282        0.762        0.201      105.806       23.683        0.050      328.597       -5.200      859.743
12/06/2013  09:58:00       83.392       41.493        2.574       37.128       36.385       27.290     1378.507     1323.895      744.766        0.606        0.172       93.145       15.969        0.029      328.631       -5.144      859.751
12/06/2013  09:59:00       78.019       55.006       11.678       33.821       30.553       23.908     1143.887      933.467      571.588        0.595        0.132       95.460       16.215        0.029      328.715       -5.008      859.748
12/06/2013  10:00:00       61.438       15.358       -6.838       42.048       22.786       18.263     1768.068      519.217      333.534        0.334        0.131       63.329       19.197        0.092      328.940       -4.641      859.735
12/06/2013  10:01:00       69.240       49.193       21.555       38.793       35.703       37.190     1504.902     1274.670     1383.073        0.592        0.208       84.936       22.646        0.071      328.916       -4.679      859.721
12/06/2013  10:02:00      105.445       54.667       20.832       36.355       32.452       27.278     1321.717     1053.164      744.070        0.883        0.156      118.773       17.626        0.022      328.776       -4.908      859.708
12/06/2013  10:03:00       55.837       26.610       24.782       35.039       37.028       25.889     1227.716     1371.042      670.215        0.385        0.163       61.854        9.955        0.026      328.946       -4.631      859.705
12/06/2013  10:04:00       83.291       56.413       16.110       29.867       22.337       23.358      892.050      498.924      545.589        0.616        0.097      100.597       13.917        0.019      328.740       -4.968      859.695
12/06/2013  10:05:00       43.062       41.762        2.246       32.141       28.370       25.015     1033.035      804.858      625.738        0.303        0.123       59.986       17.301        0.083      329.118       -4.350      859.683
12/06/2013  10:06:00       47.175       41.228       13.073       38.272       29.501       31.468     1464.736      870.325      990.238        0.371        0.166       62.652       23.328        0.139      329.232       -4.163      859.675
12/06/2013  10:07:00       82.338       76.004       -3.155       21.944       21.211       22.084      481.535      449.894      487.689        0.699        0.071      112.054       11.076        0.010      328.937       -4.645      859.676
12/06/2013  10:08:00       36.596       53.526       -0.821       40.271       39.983       27.459     1621.761     1598.658      754.015        0.409        0.199       64.840       18.067        0.078      329.135       -4.322      859.674
12/06/2013  10:09:00      113.902       74.988       -1.433       49.836       23.828       24.581     2483.659      567.779      604.225        1.113        0.183      136.370       14.050        0.011      329.109       -4.364      859.670
12/06/2013  10:10:00       70.176       68.764        3.171       34.474       18.824       27.884     1188.467      354.355      777.525        0.599        0.116       98.251       23.476        0.057      329.008       -4.530      859.675
12/06/2013  10:11:00       78.901       61.733        3.499       41.417       33.540       24.476     1715.358     1124.950      599.056        0.674        0.172      100.181       21.248        0.045      329.236       -4.157      859.656
12/06/2013  10:12:00       60.893       45.261        2.278       24.877       22.980       26.089      618.842      528.096      680.657        0.379        0.091       75.872       19.479        0.066      329.337       -3.992      859.638
12/06/2013  10:13:00       70.072       43.828        3.648       34.923       22.702       23.959     1219.581      515.384      574.057        0.458        0.115       82.650       22.220        0.072      329.071       -4.425      859.621
12/06/2013  10:14:00       86.359       54.846       -0.910       35.004       24.784       32.135     1225.289      614.267     1032.651        0.667        0.144      102.303        7.263        0.005      329.113       -4.357      859.600
12/06/2013  10:15:00      113.472       66.104        6.282       36.744       35.106       25.788     1350.138     1232.406      665.032        1.027        0.162      131.323       12.322        0.009      329.091       -4.395      859.593
12/06/2013  10:16:00       99.504       69.912       12.134       45.627       35.028       37.205     2081.862     1226.974     1384.202        0.981        0.235      121.609       21.597        0.032      329.203       -4.212      859.587
12/06/2013  10:17:00      105.503       72.527       35.133       33.559       36.688       39.798     1126.196     1346.009     1583.885        1.084        0.203      128.027       27.440        0.046      329.227       -4.171      859.595
12/06/2013  10:18:00       34.546       27.652        9.397       34.668       22.936       18.805     1201.848      526.063      353.636        0.206        0.104       44.250       12.723        0.083      329.653       -3.473      859.598
12/06/2013  10:19:00       14.935       56.277       66.943       36.637       35.462       34.739     1342.283     1257.553     1206.789        0.584        0.190       58.225       24.541        0.178      329.862       -3.133      859.592
12/06/2013  10:20:00       57.340       61.628       40.260       49.244       28.239       23.790     2424.928      797.432      565.984        0.625        0.189       84.177       18.516        0.048      329.491       -3.740      859.593
12/06/2013  10:21:00       81.944       56.908        2.439       24.132       23.959       18.311      582.355      574.028      335.292        0.573        0.075       99.766       15.817        0.025      329.179       -4.250      859.602
12/06/2013  10:22:00       96.531       74.113        1.712       31.997       26.202       28.874     1023.822      686.521      833.689        0.868        0.127      121.701       10.357        0.007      329.297       -4.056      859.602
12/06/2013  10:23:00       71.615       62.130        9.076       25.968       16.898       24.073      674.312      285.554      579.515        0.531        0.077       94.810       16.928        0.032      329.214       -4.192      859.608
12/06/2013  10:24:00       51.004       55.638       12.694       28.870       21.492       23.440      833.500      461.902      549.419        0.385        0.092       75.478       20.124        0.071      329.361       -3.953      859.601
12/06/2013  10:25:00        5.235       32.614       15.468       22.394       17.193       16.850      501.471      295.589      283.919        0.121        0.054       33.032        9.148        0.077      329.622       -3.524      859.609
12/06/2013  10:26:00       43.229       43.013       13.184       19.037       15.647       26.550      362.423      244.822      704.910        0.260        0.066       60.982       13.982        0.053      329.575       -3.603      859.606
12/06/2013  10:27:00        1.138       52.263        2.565       28.886       19.044       19.183      834.385      362.657      367.998        0.215        0.078       52.275        8.759        0.028      329.625       -3.522      859.587
12/06/2013  10:28:00        7.640       20.476       12.696       20.205       18.730       17.858      408.251      350.810      318.912        0.086        0.054       21.855       13.806        0.399      329.888       -3.091      859.563
12/06/2013  10:29:00       20.771       56.700        8.626       36.685       43.816       30.552     1345.783     1919.883      933.435        0.396        0.210       60.385       31.477        0.272      329.827       -3.190      859.531
12/06/2013  10:30:00       65.664       45.934       32.897       48.456       36.398       29.950     2348.018     1324.833      896.989        0.604        0.228       80.135       21.801        0.074      329.951       -2.989      859.512
12/06/2013  10:31:00       72.198       67.972       61.348       53.879       44.669       38.204     2902.920     1995.296     1459.545        0.998        0.318       99.160       29.183        0.087      329.821       -3.200      859.504
12/06/2013  10:32:00       32.716       71.141        7.776       46.775       44.361       34.303     2187.883     1967.904     1176.668        0.576        0.267       78.303       21.462        0.075      329.763       -3.296      859.469
12/06/2013  10:33:00       -2.960       36.525       56.474       31.258       33.280       32.493      977.071     1107.583     1055.815        0.384        0.157       36.645       25.582        0.487      330.215       -2.554      859.445
12/06/2013  10:34:00      126.952       74.681        9.616       33.777       25.857       32.030     1140.877      668.585     1025.897        1.231        0.142      147.289       10.808        0.005      329.477       -3.764      859.439
12/06/2013  10:35:00       99.069       91.290       -0.077       24.344       19.861       22.706      592.618      394.466      515.540        0.983        0.075      134.716        8.592        0.004      329.583       -3.589      859.428
12/06/2013  10:36:00       76.152       85.749       -2.412       39.117       30.397       25.383     1530.173      923.974      644.305        0.813        0.155      114.682        8.603        0.006      329.802       -3.231      859.409
12/06/2013  10:37:00       95.181       72.771       13.835       33.635       29.480       30.376     1131.285      869.054      922.713        0.873        0.146      119.812       14.227        0.014      329.552       -3.639      859.403
12/06/2013  10:38:00       98.477       64.469       34.558       54.319       33.711       40.004     2950.551     1136.420     1600.287        1.037        0.284      117.703       29.939        0.065      329.699       -3.401      859.395
12/06/2013  10:39:00      120.034       69.817       33.785       53.321       44.057       44.603     2843.116     1940.979     1989.414        1.360        0.339      138.862       29.122        0.044      329.581       -3.593      859.400
12/06/2013  10:40:00      113.729      106.749       42.749       70.710       32.515       47.861     4999.904     1057.238     2290.660        1.725        0.417      155.979       42.076        0.073      329.770       -3.285      859.395
12/06/2013  10:41:00       70.302       58.864       52.345       59.865       45.811       38.617     3583.841     2098.602     1491.305        0.916        0.359       91.692       30.865        0.113      329.917       -3.042      859.394
12/06/2013  10:42:00       36.481       54.342       65.406       63.823       46.001       49.260     4073.413     2116.052     2426.591        0.859        0.431       65.451       49.430        0.570      329.859       -3.138      859.396
12/06/2013  10:43:00       85.657       86.292       54.654       41.635       29.772       39.518     1733.490      886.373     1561.650        1.098        0.209      121.588       33.048        0.074      329.629       -3.515      859.391
12/06/2013  10:44:00       70.568       51.477       34.077       42.210       30.718       29.954     1781.671      943.586      897.267        0.621        0.181       87.348       19.310        0.049      329.588       -3.583      859.377
12/06/2013  10:45:00       80.180       74.730       18.439       34.725       23.093       32.065     1205.859      533.294     1028.177        0.756        0.138      109.606       25.599        0.055      329.592       -3.575      859.350
12/06/2013  10:46:00      105.014       71.463       27.004       33.081       33.378       31.225     1094.328     1114.119      975.013        1.002        0.159      127.023       21.487        0.029      329.644       -3.491      859.314
12/06/2013  10:47:00       78.459       67.059       37.818       31.945       26.703       25.752     1020.488      713.062      663.165        0.724        0.120      103.212        9.161        0.008      329.691       -3.412      859.293
12/06/2013  10:48:00        2.161       72.276       94.166       27.713       41.876       31.847      767.995     1753.630     1014.263        0.882        0.177       72.309       28.456        0.155      329.968       -2.959      859.272
12/06/2013  10:49:00      128.796       96.952       58.368       56.604       34.539       44.581     3204.055     1192.915     1987.500        1.789        0.319      161.208       42.943        0.071      329.639       -3.499      859.263
12/06/2013  10:50:00      103.798       47.254        7.749       51.494       43.318       39.785     2651.633     1876.476     1582.857        0.959        0.306      114.048       20.895        0.034      329.502       -3.722      859.267
12/06/2013  10:51:00       86.266       65.892       19.702       18.401       18.994       22.390      338.609      360.791      501.325        0.669        0.060      108.552       10.270        0.009      329.525       -3.683      859.242
12/06/2013  10:52:00       65.605       28.903       38.123       38.877       47.550       32.024     1511.400     2260.982     1025.568        0.569        0.240       71.690       21.025        0.086      329.814       -3.212      859.199
12/06/2013  10:53:00       56.179       87.720       52.507       48.448       33.823       34.155     2347.250     1143.983     1166.561        0.913        0.233      104.167       31.517        0.092      330.031       -2.856      859.158
12/06/2013  10:54:00       64.174       61.500       74.484       75.765       38.158       41.163     5740.346     1456.062     1694.366        1.117        0.445       88.884       35.595        0.160      329.955       -2.981      859.142
12/06/2013  10:55:00       27.423      109.266      107.527       52.502       57.281       54.557     2756.466     3281.120     2976.498        1.663        0.451      112.655       47.395        0.177      329.969       -2.957      859.126
12/06/2013  10:56:00       92.226       76.716       54.666       64.480       45.996       62.089     4157.615     2115.643     3854.995        1.375        0.506      119.962       46.878        0.153      329.890       -3.086      859.122
12/06/2013  10:57:00      113.759       86.827       26.517       54.068       38.920       36.145     2923.320     1514.788     1306.428        1.346        0.287      143.108       30.917        0.047      329.731       -3.348      859.116
12/06/2013  10:58:00       38.349       47.547       35.898       63.125       48.000       34.514     3984.789     2304.044     1191.182        0.625        0.374       61.085       24.716        0.164      330.118       -2.713      859.097
12/06/2013  10:59:00       65.663       86.583       88.876       74.420       66.363       49.456     5538.364     4403.982     2445.854        1.605        0.619      108.666       50.142        0.213      329.975       -2.948      859.092
12/06/2013  11:00:00       92.251       83.347       53.680       59.659       27.672       29.970     3559.185      765.721      898.213        1.178        0.261      124.326       26.852        0.047      329.667       -3.454      859.100
12/06/2013  11:01:00       68.559       60.839       50.771       60.814       47.885       53.998     3698.362     2292.952     2915.770        0.994        0.445       91.661       35.992        0.154      329.802       -3.231      859.097
12/06/2013  11:02:00       63.306       80.045       12.368       15.190       16.843       26.604      230.745      283.700      707.766        0.589        0.061      102.053       14.226        0.019      329.532       -3.672      859.084
12/06/2013  11:03:00       65.066       63.706        7.506       23.376       26.230       17.893      546.416      688.027      320.150        0.495        0.078       91.060        7.010        0.006      329.626       -3.520      859.050
12/06/2013  11:04:00       39.587       24.903       30.568       34.639       38.254       36.070     1199.871     1463.365     1301.030        0.354        0.198       46.769       31.194        0.445      329.933       -3.017      859.012
12/06/2013  11:05:00       85.124       57.213       40.697       56.276       35.829       39.729     3166.956     1283.689     1578.400        0.910        0.301      102.564       36.563        0.127      330.029       -2.860      858.990
12/06/2013  11:06:00       31.565       51.684       73.452       41.640       55.490       32.946     1733.855     3079.157     1085.420        0.748        0.295       60.560       32.104        0.281      330.155       -2.652      858.989
12/06/2013  11:07:00       46.304       30.305       29.431       46.114       35.015       32.046     2126.526     1226.052     1026.967        0.415        0.219       55.340       22.182        0.161      330.036       -2.848      859.001
12/06/2013  11:08:00       80.880       52.979       12.731       61.514       41.815       38.705     3783.922     1748.485     1498.052        0.827        0.352       96.687       23.581        0.059      329.864       -3.130      858.978
12/06/2013  11:09:00       11.221       60.498       91.042       47.517       42.686       35.671     2257.832     1822.090     1272.434        0.871        0.268       61.530       32.936        0.287      330.106       -2.733      858.950
12/06/2013  11:10:00       31.320      117.873      101.937       66.612       47.710       40.014     4437.097     2276.220     1601.143        1.679        0.416      121.963       33.246        0.074      330.012       -2.888      858.920
12/06/2013  11:11:00       79.055      101.543       56.671       44.561       42.883       61.260     1985.721     1838.944     3752.819        1.367        0.379      128.688       43.149        0.112      329.822       -3.199      858.910
12/06/2013  11:12:00       42.656       40.412       47.872       35.172       30.277       26.475     1237.053      916.701      700.905        0.430        0.143       58.760       22.539        0.147      329.788       -3.255      858.899
12/06/2013  11:13:00       31.568       11.830       26.360       23.937       28.327       29.747      572.982      802.392      884.885        0.205        0.113       33.712       23.469        0.485      329.939       -3.006      858.864
12/06/2013  11:14:00       36.731       39.144        2.078       19.591       15.356       28.881      383.817      235.807      834.085        0.217        0.073       53.679       14.600        0.074      329.851       -3.152      858.823
12/06/2013  11:15:00       75.574       34.386       23.339       37.306       28.238       25.804     1391.768      797.402      665.845        0.515        0.143       83.028       21.572        0.068      329.770       -3.284      858.811
12/06/2013  11:16:00       22.677       66.018       68.233       34.058       38.691       24.303     1159.957     1497.018      590.641        0.639        0.162       69.804       17.395        0.062      330.058       -2.812      858.800
12/06/2013  11:17:00       38.761       32.600       15.147       51.829       52.754       33.155     2686.280     2783.029     1099.231        0.468        0.328       50.648       17.159        0.115      329.930       -3.022      858.784
12/06/2013  11:18:00       47.239      -40.125       23.136       54.663      102.834       53.578     2988.063    10574.925     2870.582        1.040        0.822       61.981       70.858        1.307      330.272       -2.461      858.771
12/06/2013  11:19:00       38.097       67.141       80.696       42.738       71.076       44.171     1826.540     5051.836     1951.110        1.065        0.441       77.197       48.433        0.394      329.964       -2.966      858.742
12/06/2013  11:20:00       44.189      -37.998       15.655       31.537       68.552       38.178      994.559     4699.323     1457.581        0.540        0.358       58.280       44.405        0.581      330.110       -2.728      858.704
12/06/2013  11:21:00       62.605       78.841       65.148       55.254       44.326       41.557     3052.996     1964.811     1727.023        1.056        0.337      100.674       26.265        0.068      329.989       -2.926      858.670
12/06/2013  11:22:00       48.086       86.291       77.367       67.093       39.696       37.385     4501.459     1575.779     1397.674        1.161        0.374       98.785       40.121        0.165      330.004       -2.901      858.644
12/06/2013  11:23:00       83.026       71.853       76.323       35.796       45.017       30.085     1281.332     2026.567      905.123        1.105        0.211      109.801       27.776        0.064      329.897       -3.077      858.619
12/06/2013  11:24:00       51.064      126.495      121.509       46.295       49.473       36.673     2143.182     2447.573     1344.896        1.965        0.297      136.414       34.288        0.063      329.872       -3.118      858.587
12/06/2013  11:25:00      123.403      102.468       44.933       53.750       46.801       58.998     2889.106     2190.334     3480.795        1.815        0.428      160.400       32.739        0.042      329.897       -3.076      858.569
12/06/2013  11:26:00      108.996       90.370       15.397       30.790       28.101       30.055      948.049      789.687      903.297        1.146        0.132      141.587       14.598        0.011      329.947       -2.993      858.564
12/06/2013  11:27:00       97.108       69.352        4.670       29.552       15.829       16.224      873.347      250.559      263.233        0.782        0.069      119.330       13.268        0.012      329.735       -3.342      858.565
12/06/2013  11:28:00       29.680       35.427        2.198       23.921       22.614       19.217      572.224      511.403      369.280        0.180        0.073       46.216       13.214        0.082      330.112       -2.724      858.549
12/06/2013  11:29:00       82.194       66.935        3.744       39.344       32.599       31.191     1547.962     1062.697      972.848        0.742        0.179      106.001       21.962        0.043      329.976       -2.948      858.537
12/06/2013  11:30:00      119.164       87.420       -2.187       19.168       21.817       17.229      367.405      475.968      296.847        1.149        0.057      147.792        8.754        0.004      329.739       -3.335      858.516
12/06/2013  11:31:00       76.219       68.647        0.625       34.703       30.804       26.532     1204.267      948.871      703.931        0.669        0.143      102.575       14.724        0.021      329.906       -3.060      858.491
12/06/2013  11:32:00       51.717       45.823       -3.346       36.007       28.564       18.289     1296.498      815.913      334.496        0.362        0.122       69.097       10.991        0.025      329.866       -3.126      858.474
12/06/2013  11:33:00       21.788       53.542        4.919       22.605       26.634       24.047      510.982      709.358      578.278        0.258        0.090       57.805       16.635        0.083      330.106       -2.734      858.450
12/06/2013  11:34:00       61.804       36.223       15.875       31.635       34.641       26.628     1000.776     1199.999      709.029        0.415        0.145       71.637       12.816        0.032      330.102       -2.738      858.425
12/06/2013  11:35:00       69.790       80.586        6.316       32.723       27.956       26.527     1070.813      781.540      703.660        0.698        0.128      106.605       24.264        0.052      329.918       -3.041      858.396
12/06/2013  11:36:00       81.879       74.771       -3.285       24.297       25.698       26.837      590.339      660.391      720.228        0.714        0.099      110.882       20.588        0.034      329.955       -2.981      858.385
12/06/2013  11:37:00       22.670       55.838        8.961       18.587       39.105       29.145      345.465     1529.240      849.446        0.322        0.136       60.264       26.046        0.187      330.140       -2.677      858.386
12/06/2013  11:38:00       24.704        8.651       16.417       29.919       46.823       24.123      895.168     2192.359      581.934        0.231        0.183       26.175       23.256        0.789      330.248       -2.500      858.396
12/06/2013  11:39:00       87.681       18.873       10.664       36.328       57.343       38.399     1319.711     3288.239     1474.448        0.712        0.304       89.689       26.894        0.090      330.175       -2.621      858.407
12/06/2013  11:40:00       82.573       82.260        6.046       30.587       30.979       31.870      935.592      959.713     1015.707        0.827        0.146      116.554       21.314        0.033      330.018       -2.877      858.412
12/06/2013  11:41:00       51.618       35.203       18.444       32.857       24.175       29.520     1079.611      584.447      871.406        0.339        0.127       62.480       19.287        0.095      330.175       -2.621      858.407
12/06/2013  11:42:00       97.856       74.126        7.266       42.654       33.506       34.061     1819.398     1122.670     1160.138        0.961        0.205      122.762       31.260        0.065      330.142       -2.675      858.390
12/06/2013  11:43:00       44.249       90.246        2.776       46.897       35.109       33.754     2199.351     1232.661     1139.313        0.734        0.229      100.511       36.503        0.132      329.938       -3.008      858.381
12/06/2013  11:44:00       95.139       66.484       29.525       27.445       15.694       21.447      753.237      246.304      459.955        0.790        0.073      116.067        6.618        0.003      329.911       -3.054      858.366
12/06/2013  11:45:00       40.735       23.634       18.562       34.558       36.516       22.149     1194.223     1333.442      490.560        0.279        0.151       47.095       26.153        0.308      330.022       -2.870      858.353
12/06/2013  11:46:00       28.647       27.760       12.843       28.587       23.669       18.432      817.199      560.212      339.724        0.174        0.086       39.891       13.418        0.113      330.253       -2.492      858.334
12/06/2013  11:47:00       21.545       38.967        4.779       19.575       28.299       19.540      383.162      800.824      381.800        0.179        0.078       44.526       17.348        0.152      330.301       -2.414      858.310
12/06/2013  11:48:00       18.776      123.239       -9.353       27.752       32.408       29.131      770.192     1050.274      848.603        0.915        0.133      124.661       22.902        0.034      330.079       -2.777      858.284
12/06/2013  11:49:00        7.412      128.606      -18.619       16.450       32.721       17.318      270.613     1070.668      299.922        0.929        0.082      128.819       11.951        0.009      329.958       -2.975      858.264
12/06/2013  11:50:00      -21.898       39.715       10.466       23.894       25.874       22.691      570.941      669.484      514.874        0.196        0.088       45.352       17.884        0.155      330.281       -2.446      858.245
12/06/2013  11:51:00      -44.922       65.765      -15.718       25.836       29.632       16.153      667.482      878.067      260.919        0.420        0.090       79.643       14.079        0.031      330.111       -2.727      858.243
12/06/2013  11:52:00      -46.026       58.431       -4.616       26.975       24.338       23.477      727.643      592.317      551.187        0.371        0.094       74.382       20.238        0.074      330.180       -2.612      858.226
12/06/2013  11:53:00        5.071       52.960       -2.514       49.099       23.583       27.302     2410.713      556.156      745.409        0.327        0.186       53.202       23.451        0.194      330.262       -2.477      858.189
12/06/2013  11:54:00       63.896       52.738       11.645       41.822       34.866       26.618     1749.093     1215.638      708.500        0.534        0.184       82.850       22.165        0.072      330.272       -2.461      858.148
12/06/2013  11:55:00       44.803       79.766      -13.454       35.340       75.040       27.281     1248.902     5631.050      744.265        0.809        0.381       91.487       21.104        0.053      330.281       -2.448      858.112
12/06/2013  11:56:00       32.362      128.626      -10.840       28.999       49.818       29.361      840.933     2481.824      862.092        1.095        0.209      132.635       29.012        0.048      330.073       -2.789      858.083
12/06/2013  11:57:00       39.782       79.175      -12.639       26.691       50.472       25.513      712.422     2547.376      650.925        0.596        0.196       88.607       20.195        0.052      330.150       -2.661      858.075
12/06/2013  11:58:00        4.101       45.057       -2.387       25.439       44.622       19.674      647.139     1991.140      387.080        0.254        0.151       45.243       23.613        0.272      330.295       -2.423      858.076
12/06/2013  11:59:00       16.374      120.356      -11.234       22.148       37.803       21.190      490.553     1429.034      449.029        0.862        0.118      121.464       20.952        0.030      330.162       -2.641      858.082
12/06/2013  12:00:00       -0.017       41.741        0.238       19.227       29.975       21.769      369.672      898.530      473.908        0.174        0.087       41.741       15.572        0.139      330.372       -2.297      858.067
12/06/2013  12:01:00      -11.069       53.803       -4.848       28.922       53.133       20.858      836.492     2823.163      435.067        0.357        0.205       54.930        7.981        0.021      330.339       -2.351      858.052
12/06/2013  12:02:00      -39.651       24.897       -6.180       24.150       28.471       20.679      583.242      810.582      427.627        0.203        0.091       46.819       12.752        0.074      330.388       -2.271      858.050
12/06/2013  12:03:00        9.838       42.145       -0.927       31.118       29.508       21.416      968.321      870.740      458.661        0.209        0.115       43.278       13.259        0.094      330.427       -2.207      858.054
12/06/2013  12:04:00       -3.011       41.235       15.876       28.378       37.278       23.165      805.337     1389.618      536.638        0.235        0.137       41.345       18.315        0.196      330.537       -2.027      858.050
12/06/2013  12:05:00        6.641       71.160        0.055       31.564       69.013       25.083      996.278     4762.856      629.169        0.575        0.319       71.469       33.907        0.225      330.500       -2.087      858.024
12/06/2013  12:06:00       19.839       40.128        2.334       18.804       61.115       23.628      353.582     3735.017      558.270        0.333        0.232       44.765       20.818        0.216      330.384       -2.278      858.018
12/06/2013  12:07:00       18.501       54.770       -1.437       25.034       45.918       28.771      626.688     2108.473      827.787        0.345        0.178       57.810       24.316        0.177      330.278       -2.453      858.011
12/06/2013  12:08:00       -4.122      122.216       -7.599       26.534       43.580       23.763      704.075     1899.181      564.659        0.909        0.158      122.286       17.442        0.020      330.280       -2.447      858.004
12/06/2013  12:09:00        7.724       77.794       -2.988       28.907       35.625       29.783      835.604     1269.139      887.017        0.456        0.150       78.176       28.629        0.134      330.365       -2.309      857.980
12/06/2013  12:10:00       63.940       83.089       -9.374       24.992       32.886       26.950      624.588     1081.505      726.306        0.676        0.122      104.843       20.878        0.040      330.293       -2.428      857.945
12/06/2013  12:11:00       55.784       89.291      -12.225       30.481       23.765       23.647      929.100      564.752      559.175        0.664        0.103      105.284       13.860        0.017      330.237       -2.518      857.915
12/06/2013  12:12:00       85.048       53.029       -7.563       16.950       20.521       17.580      287.287      421.130      309.068        0.556        0.051      100.226        6.595        0.004      330.144       -2.672      857.899
12/06/2013  12:13:00       42.956       39.287       -9.765       34.501       30.320       17.967     1190.322      919.328      322.802        0.296        0.122       58.212       16.025        0.076      330.203       -2.575      857.901
12/06/2013  12:14:00       18.122        0.083       -2.035       10.467       17.925       21.125      109.561      321.308      446.282        0.060        0.044       18.122        9.558        0.278      330.349       -2.335      857.887
12/06/2013  12:15:00       31.537       15.943       30.615       26.967       44.264       22.928      727.206     1959.301      525.672        0.270        0.161       35.338       24.649        0.487      330.381       -2.282      857.872
12/06/2013  12:16:00       93.501       41.225       15.346       55.121       26.971       28.790     3038.307      727.420      828.868        0.764        0.230      102.185       19.709        0.037      330.417       -2.224      857.862
12/06/2013  12:17:00       86.834       60.873       32.014       61.746       36.110       38.117     3812.515     1303.926     1452.931        0.942        0.328      106.045       35.623        0.113      330.350       -2.333      857.847
12/06/2013  12:18:00       70.665       52.971       15.035       42.572       35.980       33.082     1812.360     1294.576     1094.401        0.611        0.210       88.314       17.455        0.039      330.437       -2.190      857.837
12/06/2013  12:19:00       81.530       63.524        5.547       43.384       39.341       30.866     1882.166     1547.675      952.713        0.755        0.219      103.356       15.438        0.022      330.413       -2.231      857.838
12/06/2013  12:20:00       76.961       63.438       13.970       31.460       44.500       29.783      989.741     1980.292      887.002        0.700        0.193       99.736       21.256        0.045      330.283       -2.444      857.843
12/06/2013  12:21:00       65.060       24.649       15.940       29.029       25.484       31.965      842.682      649.423     1021.784        0.380        0.126       69.573       16.991        0.060      330.439       -2.189      857.830
12/06/2013  12:22:00       76.419       51.398       -4.760       30.459       20.579       27.122      927.747      423.481      735.587        0.530        0.104       92.096       20.134        0.048      330.397       -2.256      857.807
12/06/2013  12:23:00      118.667       78.523       -7.704       43.503       32.267       30.340     1892.512     1041.165      920.487        1.208        0.193      142.294       11.064        0.006      330.346       -2.340      857.777
12/06/2013  12:24:00       94.942       84.499       21.241       39.458       27.065       34.731     1556.919      732.535     1206.238        1.005        0.175      127.099       22.629        0.032      330.290       -2.433      857.741
12/06/2013  12:25:00      105.871       71.851       24.288       31.519       25.559       29.490      993.427      653.243      869.638        0.974        0.126      127.950       16.207        0.016      330.260       -2.481      857.723
12/06/2013  12:26:00       72.645       36.046       11.858       34.904       29.127       24.188     1218.301      848.359      585.040        0.468        0.133       81.097       17.798        0.048      330.302       -2.411      857.709
12/06/2013  12:27:00       82.618       46.563        5.874       31.441       27.464       20.874      988.552      754.257      435.717        0.560        0.109       94.836       11.318        0.014      330.417       -2.222      857.694
12/06/2013  12:28:00       53.639       29.316        6.689       41.960       28.442       22.081     1760.661      808.957      487.558        0.342        0.153       61.128       18.844        0.095      330.706       -1.748      857.692
12/06/2013  12:29:00      105.717       60.686        9.300       49.975       42.695       33.240     2497.518     1822.842     1104.881        1.018        0.271      121.897       23.833        0.038      330.466       -2.144      857.699
12/06/2013  12:30:00      123.976      103.509        9.765       28.804       27.459       33.316      829.685      753.983     1109.954        1.444        0.135      161.506       17.206        0.011      330.275       -2.456      857.711
12/06/2013  12:31:00       71.043       59.156       26.783       39.905       29.523       39.937     1592.392      871.581     1594.951        0.666        0.203       92.448       34.150        0.136      330.392       -2.264      857.708
12/06/2013  12:32:00      103.340       76.213       42.158       54.469       32.192       44.983     2966.870     1036.321     2023.453        1.214        0.301      128.404       36.291        0.080      330.506       -2.078      857.695
12/06/2013  12:33:00       40.670       43.555       35.835       32.897       25.358       30.564     1082.230      643.005      934.185        0.375        0.133       59.591       20.354        0.117      330.593       -1.935      857.680
12/06/2013  12:34:00       25.086       61.790       -4.525       24.732       44.845       24.221      611.666     2011.079      586.644        0.384        0.160       66.689       21.567        0.105      330.550       -2.006      857.653
12/06/2013  12:35:00      100.899       55.272        9.707       50.583       30.243       31.419     2558.600      914.622      987.168        0.889        0.223      115.046       18.024        0.025      330.429       -2.203      857.632
12/06/2013  12:36:00       78.986       55.134       27.978       52.647       37.745       45.635     2771.704     1424.689     2082.574        0.817        0.314       96.325       35.994        0.140      330.619       -1.893      857.610
12/06/2013  12:37:00      136.161      102.946       26.886       37.776       27.010       34.483     1427.036      729.563     1189.066        1.660        0.167      170.698       18.419        0.012      330.426       -2.210      857.581
12/06/2013  12:38:00       64.139       69.025       65.568       42.038       37.818       29.170     1767.188     1430.219      850.884        0.861        0.202       94.225       11.776        0.016      330.571       -1.972      857.567
12/06/2013  12:39:00       58.023       54.950       31.272       41.952       26.159       35.759     1759.962      684.319     1278.718        0.554        0.186       79.914       12.980        0.026      330.497       -2.093      857.562
12/06/2013  12:40:00       50.579       37.418       63.374       48.319       48.236       36.389     2334.712     2326.737     1324.185        0.698        0.299       62.916       42.355        0.453      330.561       -1.987      857.540
12/06/2013  12:41:00       72.367       67.664       44.028       40.191       25.223       35.862     1615.336      636.179     1286.055        0.764        0.177       99.072       24.364        0.060      330.483       -2.115      857.518
12/06/2013  12:42:00       72.342       93.117       67.927       78.348       46.495       60.225     6138.414     2161.765     3627.087        1.522        0.596      117.916       62.479        0.281      330.605       -1.916      857.482
12/06/2013  12:43:00      133.859      123.710       -6.847       40.594       33.245       32.676     1647.899     1105.262     1067.752        1.854        0.191      182.270       19.711        0.012      330.348       -2.337      857.461
12/06/2013  12:44:00       92.433       66.920       14.953       42.777       32.070       27.727     1829.861     1028.456      768.785        0.844        0.181      114.115       18.153        0.025      330.410       -2.235      857.445
12/06/2013  12:45:00      116.824       65.852        4.814       60.022       49.249       41.955     3602.635     2425.497     1760.236        1.290        0.389      134.105       29.403        0.048      330.509       -2.073      857.461
12/06/2013  12:46:00      113.512       67.446        6.606       24.530       33.614       30.637      601.731     1129.872      938.643        1.007        0.134      132.037       15.298        0.013      330.351       -2.331      857.493
12/06/2013  12:47:00      106.858       46.159       -6.048       32.181       25.946       22.010     1035.585      673.202      484.441        0.789        0.110      116.401       17.362        0.022      330.355       -2.326      857.497
12/06/2013  12:48:00       77.484       70.326       41.139       51.442       54.195       40.904     2646.304     2937.075     1673.174        0.995        0.363      104.640       30.852        0.087      330.471       -2.134      857.458
12/06/2013  12:49:00       67.415       71.288       54.848       54.808       39.523       37.515     3003.884     1562.055     1407.411        0.930        0.299       98.116       31.471        0.103      330.560       -1.988      857.412
12/06/2013  12:50:00       13.224       31.319       32.910       32.453       37.903       39.804     1053.172     1436.645     1584.379        0.316        0.204       33.996       30.291        0.794      330.643       -1.854      857.400
12/06/2013  12:51:00       14.281       56.530      -23.904       16.875       29.994       13.151      284.750      899.611      172.951        0.266        0.068       58.306        9.113        0.024      330.426       -2.211      857.441
12/06/2013  12:52:00       21.640       50.601      -18.869       25.580       16.368       13.954      654.346      267.923      194.703        0.225        0.056       55.034        9.240        0.028      330.447       -2.172      857.448
12/06/2013  12:53:00       40.426       43.687       10.770       25.274       17.560       15.225      638.791      308.348      231.794        0.242        0.059       59.521       12.176        0.042      330.539       -2.023      857.387
12/06/2013  12:54:00      105.769       87.575       17.911       56.311       33.094       37.778     3170.932     1095.194     1427.179        1.243        0.285      137.319       22.986        0.028      330.559       -1.992      857.332
12/06/2013  12:55:00       52.618       47.240       35.004       37.688       32.600       27.337     1420.404     1062.776      747.314        0.473        0.162       70.712       17.701        0.063      330.807       -1.584      857.337
12/06/2013  12:56:00       59.134       81.354       -0.636       30.218       29.068       30.112      913.150      844.929      906.737        0.639        0.133      100.575       21.620        0.046      330.499       -2.089      857.356
12/06/2013  12:57:00       71.637       65.494       -7.284       12.079       16.209       13.964      145.893      262.727      194.984        0.504        0.030       97.064       10.596        0.012      330.392       -2.262      857.356
12/06/2013  12:58:00      109.862       79.508        5.497       17.455       19.151       20.339      304.682      366.748      413.662        0.975        0.054      135.615       13.346        0.010      330.416       -2.221      857.311
12/06/2013  12:59:00       64.263       45.878       23.228       53.815       34.349       39.417     2896.060     1179.819     1553.702        0.620        0.281       78.959       18.932        0.057      330.692       -1.773      857.248
12/06/2013  13:00:00      -11.952       30.150       20.469       18.571       22.723       29.873      344.891      516.320      892.373        0.161        0.088       32.433       19.790        0.372      330.738       -1.696      857.226
12/06/2013  13:01:00      -18.567      -16.397       -6.429       19.970       14.822       16.867      398.811      219.695      284.511        0.078        0.045       24.771        7.376        0.089      330.622       -1.886      857.252
12/06/2013  13:02:00       33.802       26.231       28.060       32.294       21.342       15.701     1042.922      455.477      246.509        0.218        0.087       42.786       10.747        0.063      330.791       -1.609      857.271
12/06/2013  13:03:00       52.172       30.460        1.020       22.540       23.554       18.111      508.061      554.785      328.011        0.252        0.070       60.413       12.552        0.043      330.508       -2.074      857.270
12/06/2013  13:04:00       65.039       49.426        1.317       44.792       30.091       24.935     2006.318      905.490      621.757        0.510        0.177       81.688       19.580        0.057      330.519       -2.055      857.257
12/06/2013  13:05:00       61.512       72.648       -4.311       38.099       34.798       28.665     1451.530     1210.927      821.679        0.628        0.174       95.192       25.275        0.070      330.540       -2.023      857.248
12/06/2013  13:06:00      121.635       75.071       18.678       64.755       30.498       36.266     4193.204      930.126     1315.224        1.361        0.322      142.936       20.451        0.020      330.574       -1.966      857.218
12/06/2013  13:07:00      164.916      109.260       55.307       29.514       23.208       30.664      871.047      538.618      940.260        2.227        0.117      197.826       13.415        0.005      330.547       -2.011      857.179
12/06/2013  13:08:00       90.019       61.863       27.004       19.695       16.071       23.622      387.878      258.264      557.978        0.693        0.060      109.227        8.985        0.007      330.494       -2.098      857.160
12/06/2013  13:09:00       28.468       58.752       -8.769       24.053       21.322       17.036      578.562      454.626      290.229        0.283        0.066       65.286       14.852        0.052      330.550       -2.005      857.150
12/06/2013  13:10:00        1.657       91.965       -6.904       23.872       18.481       13.347      569.886      341.564      178.131        0.480        0.054       91.979        8.522        0.009      330.526       -2.043      857.147
12/06/2013  13:11:00      -13.023       37.057      -22.642       14.738       29.953       10.359      217.214      897.167      107.310        0.164        0.061       39.278       10.810        0.076      330.571       -1.971      857.142
12/06/2013  13:12:00       32.749       15.450       15.447       26.738       18.582       13.527      714.940      345.306      182.968        0.140        0.062       36.210        8.192        0.051      330.878       -1.466      857.117
12/06/2013  13:13:00       23.312       47.059        5.945       21.365       27.893       21.584      456.473      778.026      465.872        0.225        0.085       52.517       18.933        0.130      330.765       -1.652      857.082
12/06/2013  13:14:00        9.880       38.971        7.764       32.155       22.863       16.328     1033.975      522.712      266.592        0.175        0.091       40.204        8.398        0.044      330.675       -1.799      857.058
12/06/2013  13:15:00        1.857       37.226       -5.409        6.433       15.514       12.195       41.378      240.669      148.722        0.092        0.022       37.272        8.005        0.046      330.636       -1.864      857.040
12/06/2013  13:16:00        6.035       26.056        0.470       16.353       38.091       17.715      267.426     1450.943      313.811        0.137        0.102       26.746       21.277        0.633      330.910       -1.415      857.022
12/06/2013  13:17:00       29.407       49.282       -8.741       30.367       31.222       17.201      922.151      974.822      295.865        0.278        0.110       57.389        5.314        0.009      330.821       -1.560      856.991
12/06/2013  13:18:00       68.674       73.959       46.730       53.004       34.042       38.632     2809.441     1158.866     1492.418        0.891        0.273      100.926       32.875        0.106      330.848       -1.517      856.946
12/06/2013  13:19:00       17.094       28.027       52.530       27.731       58.587       30.711      769.026     3432.451      943.180        0.449        0.257       32.829       24.857        0.573      330.934       -1.376      856.915
12/06/2013  13:20:00       47.503       42.416       26.289       39.247       30.070       32.266     1540.355      904.180     1041.093        0.412        0.174       63.684       24.689        0.150      330.722       -1.724      856.893
12/06/2013  13:21:00       84.690       47.722       16.284       29.802       25.365       31.870      888.188      643.363     1015.668        0.613        0.127       97.210       23.568        0.059      330.680       -1.792      856.876
12/06/2013  13:22:00       58.112       61.817        9.714       25.413       20.078       24.877      645.810      403.123      618.875        0.448        0.083       84.843       15.209        0.032      330.623       -1.887      856.875
12/06/2013  13:23:00       19.506       32.630        0.952       19.924       15.606       14.529      396.964      243.561      211.082        0.115        0.043       38.015       12.021        0.100      330.654       -1.836      856.874
12/06/2013  13:24:00        5.014       -2.330        2.059        8.178        9.309       11.191       66.885       86.661      125.230        0.016        0.014        5.529        6.947        1.579      330.964       -1.326      856.874
12/06/2013  13:25:00       33.970       15.176       20.953       18.177       22.524       14.032      330.416      507.314      196.892        0.143        0.052       37.206       11.623        0.098      330.724       -1.720      856.880
12/06/2013  13:26:00       70.237       34.845       32.635       31.951       43.023       25.035     1020.880     1850.984      626.766        0.535        0.175       78.405       14.462        0.034      330.769       -1.647      856.899
12/06/2013  13:27:00       99.015       60.258       25.102       54.057       29.363       34.329     2922.185      862.158     1178.502        0.951        0.248      115.909       31.083        0.072      330.671       -1.807      856.933
12/06/2013  13:28:00      124.559       80.519       38.911       43.110       28.696       31.234     1858.431      823.477      975.579        1.358        0.183      148.318       21.754        0.022      330.703       -1.754      856.938
12/06/2013  13:29:00      127.314       62.303       30.361       41.772       41.197       29.366     1744.910     1697.218      862.347        1.266        0.215      141.741       17.581        0.015      330.790       -1.611      856.915
12/06/2013  13:30:00      102.393       81.778       72.745       82.145       58.790       49.044     6747.850     3456.291     2405.331        1.753        0.630      131.042       44.927        0.118      330.821       -1.562      856.870
12/06/2013  13:31:00      129.967      100.668       59.319       76.162       65.296       64.947     5800.603     4263.619     4218.152        2.241        0.714      164.394       59.616        0.132      330.787       -1.619      856.837
12/06/2013  13:32:00      103.217      108.488       78.714       70.511       51.292       51.567     4971.775     2630.907     2659.172        1.944        0.513      149.745       47.401        0.100      330.749       -1.680      856.826
12/06/2013  13:33:00       68.069       50.831       63.289       53.974       45.547       38.961     2913.176     2074.560     1517.936        0.886        0.325       84.955       29.712        0.122      330.725       -1.719      856.826
12/06/2013  13:34:00       68.553       68.559       61.189       25.081       29.269       28.965      629.069      856.651      838.959        0.773        0.116       96.953       14.779        0.023      330.721       -1.726      856.826
12/06/2013  13:35:00       40.841       23.467       14.198       30.936       25.446       22.076      957.059      647.491      487.330        0.226        0.105       47.102        9.606        0.042      330.838       -1.533      856.815
12/06/2013  13:36:00       58.489       25.616       10.238       32.526       24.135       20.840     1057.973      582.481      434.326        0.313        0.104       63.852       14.650        0.053      330.964       -1.326      856.805
12/06/2013  13:37:00       82.167       41.659       24.419       29.858       21.712       21.022      891.524      471.408      441.934        0.544        0.090       92.124        9.604        0.011      330.801       -1.594      856.788
12/06/2013  13:38:00       19.456       30.777       55.983       26.783       32.286       17.963      717.333     1042.354      322.683        0.327        0.104       36.411       11.270        0.096      331.138       -1.040      856.753
12/06/2013  13:39:00       23.861      -20.446       47.899       24.373       44.753       22.318      594.035     2002.796      498.075        0.319        0.155       31.423       16.946        0.291      331.131       -1.053      856.720
12/06/2013  13:40:00       73.253       51.752       64.312       63.845       52.684       37.590     4076.215     2775.647     1413.026        1.022        0.413       89.690       27.879        0.097      331.019       -1.236      856.704
12/06/2013  13:41:00      114.453       17.199       28.280       41.296       39.617       37.896     1705.366     1569.537     1436.070        0.945        0.236      115.738       15.819        0.019      330.671       -1.806      856.705
12/06/2013  13:42:00       60.071       31.720       41.221       42.084       36.489       19.650     1771.091     1331.450      386.115        0.490        0.174       67.931       20.656        0.092      330.822       -1.559      856.665
12/06/2013  13:43:00       54.909       99.511      103.090       62.889       57.782       43.615     3954.965     3338.783     1902.270        1.637        0.460      113.655       40.219        0.125      331.003       -1.263      856.625
12/06/2013  13:44:00       86.893       86.774       58.191       69.946       54.526       52.853     4892.400     2973.108     2793.484        1.456        0.533      122.801       39.119        0.101      330.785       -1.619      856.620
12/06/2013  13:45:00       30.600       64.454       83.687       48.970       45.549       31.294     2398.013     2074.682      979.319        0.877        0.273       71.349       28.183        0.156      330.995       -1.276      856.626
12/06/2013  13:46:00       33.352      -49.269        1.113       43.038       77.240       41.953     1852.311     5966.072     1760.017        0.656        0.479       59.496       54.615        0.843      331.158       -1.006      856.623
12/06/2013  13:47:00       54.957      -34.975        8.041       55.127       72.670       37.312     3039.032     5280.926     1392.165        0.701        0.486       65.143       47.514        0.532      330.780       -1.629      856.616
12/06/2013  13:48:00       23.537      -48.007       10.050       29.139       45.274       28.257      849.066     2049.749      798.463        0.333        0.185       53.466       20.944        0.153      331.090       -1.119      856.610
12/06/2013  13:49:00       52.597       72.000       77.528       53.254       44.967       33.320     2836.010     2021.995     1110.251        0.996        0.298       89.166       29.657        0.111      331.011       -1.249      856.604
12/06/2013  13:50:00       39.418      -71.827       27.077       61.295      100.361       48.392     3757.016    10072.415     2341.813        1.181        0.809       81.933       59.326        0.524      330.939       -1.367      856.587
12/06/2013  13:51:00       46.759       -3.787       58.910       53.008       99.996       46.213     2809.835     9999.227     2135.613        1.030        0.747       46.912       61.838        1.738      330.979       -1.301      856.564
12/06/2013  13:52:00       50.094      -47.486       19.371       35.801       73.224       36.294     1281.693     5361.736     1317.229        0.655        0.398       69.024       44.462        0.415      331.030       -1.218      856.530
12/06/2013  13:53:00       35.154      -15.643        9.065       26.532       21.033       20.215      703.973      442.390      408.641        0.156        0.078       38.478       16.899        0.193      330.994       -1.278      856.501
12/06/2013  13:54:00       19.458       -4.931       13.838       22.485       20.808       22.857      505.587      432.992      522.435        0.103        0.073       20.073       15.404        0.589      331.177       -0.977      856.464
12/06/2013  13:55:00       22.769      -47.491        7.427       34.414       52.859       28.905     1184.316     2794.082      835.518        0.382        0.241       52.667       28.941        0.302      331.218       -0.910      856.441
12/06/2013  13:56:00       43.398       24.256       38.471       36.690       67.849       47.232     1346.158     4603.547     2230.885        0.606        0.409       49.716       50.022        1.012      331.048       -1.188      856.421
12/06/2013  13:57:00       32.979       28.691       34.306       35.110       32.224       18.472     1232.687     1038.391      341.207        0.285        0.131       43.712       14.778        0.114      331.042       -1.199      856.425
12/06/2013  13:58:00       28.912       19.874       27.772       30.244       20.214       26.466      914.709      408.599      700.441        0.201        0.101       35.084       21.210        0.365      331.129       -1.054      856.426
12/06/2013  13:59:00       13.519       30.464       25.322       32.878       27.514       21.862     1080.940      757.015      477.950        0.203        0.116       33.329       20.027        0.361      331.267       -0.827      856.433
12/06/2013  14:00:00       34.286       26.016        8.091       26.125       20.706       22.057      682.539      428.722      486.511        0.176        0.080       43.039        5.550        0.017      331.094       -1.112      856.474
12/06/2013  14:01:00        2.319       34.975       -3.613       19.134       15.085       14.242      366.107      227.570      202.823        0.102        0.040       35.052       13.356        0.145      331.060       -1.169      856.525
12/06/2013  14:02:00       -6.686        8.741        2.028       16.565       17.133       10.130      274.415      293.556      102.619        0.040        0.034       11.005        7.461        0.460      331.156       -1.009      856.550
12/06/2013  14:03:00      -27.958       18.232       -3.633       18.653       16.981       14.849      347.946      288.371      220.487        0.099        0.043       33.377        9.056        0.074      331.037       -1.205      856.536
12/06/2013  14:04:00       22.727       38.926       20.590       40.005       32.036       23.392     1600.365     1026.331      547.193        0.281        0.159       45.075       15.080        0.112      331.170       -0.988      856.497
12/06/2013  14:05:00       44.526       14.741       -4.889       19.156       25.779       14.203      366.967      664.554      201.726        0.173        0.062       46.903       10.601        0.051      330.978       -1.303      856.453
12/06/2013  14:06:00       28.223       32.056        5.567       20.354       22.915       13.440      414.286      525.080      180.627        0.149        0.056       42.709        9.897        0.054      331.029       -1.220      856.409
12/06/2013  14:07:00       51.318       34.177       40.063       61.447       45.994       27.314     3775.747     2115.472      746.078        0.602        0.332       61.657       14.768        0.057      331.185       -0.963      856.342
12/06/2013  14:08:00      110.039       75.339       63.331       72.318       48.539       47.145     5229.905     2356.040     2222.653        1.580        0.490      133.358       44.771        0.113      331.129       -1.056      856.255
12/06/2013  14:09:00        8.536      101.346      106.519       43.856       53.558       47.110     1923.328     2868.476     2219.396        1.435        0.351      101.705       39.168        0.148      331.123       -1.066      856.214
12/06/2013  14:10:00        9.202      -65.395        9.667       38.078       77.687       38.218     1449.956     6035.332     1460.589        0.670        0.447       66.040       39.027        0.349      331.146       -1.026      856.224
12/06/2013  14:11:00       51.064      -68.698        5.512       35.392       46.727       27.126     1252.566     2183.416      735.806        0.576        0.209       85.597       29.779        0.121      331.130       -1.053      856.234
12/06/2013  14:12:00       74.764       44.491       27.442       17.901       36.051       24.994      320.441     1299.665      624.688        0.528        0.112       87.000       14.781        0.029      330.963       -1.328      856.219
12/06/2013  14:13:00      103.345       82.308        1.561       40.218       29.630       32.202     1617.467      877.950     1036.941        1.049        0.177      132.117       14.041        0.011      330.977       -1.305      856.166
12/06/2013  14:14:00      167.645      125.320       12.407       51.347       40.807       40.079     2636.514     1665.221     1606.349        2.493        0.295      209.308       29.005        0.019      331.007       -1.257      856.099
12/06/2013  14:15:00      116.975       79.749       45.973       56.774       52.736       38.524     3223.262     2781.102     1484.120        1.482        0.374      141.574       19.274        0.019      331.052       -1.183      856.072
12/06/2013  14:16:00       91.574       65.836       20.355       34.141       34.944       32.816     1165.608     1221.069     1076.922        0.830        0.173      112.784       20.739        0.034      331.000       -1.268      856.090
12/06/2013  14:17:00       20.988       10.820        8.854       36.146       19.006       16.068     1306.554      361.214      258.180        0.128        0.096       23.613        9.750        0.170      331.019       -1.236      856.116
12/06/2013  14:18:00        0.341       53.761        4.044       21.261       29.843       20.521      452.050      890.582      421.116        0.233        0.088       53.763       14.100        0.069      331.020       -1.235      856.126
12/06/2013  14:19:00       57.195       14.692       17.934       37.225       18.942       24.047     1385.678      358.807      578.245        0.307        0.116       59.052       17.005        0.083      331.095       -1.111      856.110
12/06/2013  14:20:00      120.790       56.006       -2.723       46.240       39.183       29.797     2138.160     1535.310      887.859        1.115        0.228      133.142       16.544        0.015      330.965       -1.323      856.069
12/06/2013  14:21:00      108.011      124.175       68.609       76.004       43.227       49.120     5776.668     1868.556     2412.793        2.092        0.503      164.578       43.603        0.070      331.089       -1.123      856.043
12/06/2013  14:22:00       59.296       97.996      115.419       64.772       57.271       44.368     4195.457     3279.915     1968.529        1.794        0.472      114.539       47.622        0.173      331.088       -1.123      856.055
12/06/2013  14:23:00       99.180       98.897       88.181       55.927       36.735       34.018     3127.858     1349.463     1157.224        1.651        0.282      140.061       25.230        0.032      331.066       -1.160      856.079
12/06/2013  14:24:00       57.847       29.239       26.964       34.944       44.551       29.387     1221.104     1984.780      863.569        0.450        0.203       64.816       28.206        0.189      331.044       -1.197      856.109
12/06/2013  14:25:00       56.987      -48.937        5.335       29.842       27.777       20.638      890.523      771.551      425.914        0.388        0.104       75.115       16.539        0.048      331.144       -1.030      856.133
12/06/2013  14:26:00       35.689      -43.367        3.138       21.541       22.645       19.143      464.000      512.807      366.436        0.225        0.067       56.164       14.492        0.067      331.203       -0.934      856.134
12/06/2013  14:27:00       32.064      -22.736        1.708       46.150       46.760       40.204     2129.798     2186.453     1616.399        0.374        0.297       39.307       37.738        0.922      331.293       -0.784      856.130
12/06/2013  14:28:00       35.900      -46.746       -7.067       30.819       40.177       27.137      949.834     1614.221      736.407        0.341        0.165       58.941       21.081        0.128      331.156       -1.011      856.146
12/06/2013  14:29:00       67.961      -28.916        2.613       23.179       42.205       20.226      537.257     1781.232      409.074        0.409        0.136       73.857       14.024        0.036      331.069       -1.155      856.135
12/06/2013  14:30:00       86.093       39.388       31.383       44.628       45.519       31.753     1991.702     2071.958     1008.229        0.751        0.254       94.675       22.679        0.057      331.195       -0.948      856.095
12/06/2013  14:31:00       67.977       63.435        7.725       48.337       37.178       24.682     2336.473     1382.234      609.182        0.652        0.216       92.978       13.733        0.022      331.099       -1.105      856.071
12/06/2013  14:32:00       83.183       36.050        3.356       38.250       27.838       25.258     1463.065      774.942      637.951        0.555        0.144       90.658       22.635        0.062      331.143       -1.032      856.072
12/06/2013  14:33:00       59.832       39.417       -3.117       36.206       34.784       29.411     1310.855     1209.952      865.033        0.426        0.169       71.649       26.726        0.139      331.195       -0.946      856.088
12/06/2013  14:34:00       48.992       39.983       13.457       49.843       31.252       21.520     2484.338      976.687      463.103        0.405        0.196       63.236       20.873        0.109      331.160       -1.003      856.087
12/06/2013  14:35:00      100.146       92.806       63.257       58.474       61.227       55.140     3419.248     3748.796     3040.395        1.642        0.510      136.536       48.719        0.127      331.213       -0.918      856.063
12/06/2013  14:36:00      178.680      116.281       56.785       41.594       25.769       31.175     1730.055      664.022      971.903        2.602        0.168      213.185       12.025        0.003      331.000       -1.270      856.042
12/06/2013  14:37:00      123.042      118.591       99.227       52.034       55.882       54.250     2707.490     3122.852     2943.078        2.391        0.439      170.889       43.690        0.065      331.039       -1.205      856.032
12/06/2013  14:38:00       89.827      133.583      119.287       77.816       52.773       53.855     6055.340     2784.992     2900.338        2.594        0.587      160.976       45.916        0.081      331.163       -1.000      855.999
12/06/2013  14:39:00       85.084       66.792       72.941       68.486       54.635       40.864     4690.338     2985.023     1669.905        1.318        0.467      108.168       25.599        0.056      331.210       -0.922      856.015
12/06/2013  14:40:00       27.218      -48.498       10.765       28.159       77.413       32.128      792.903     5992.755     1032.230        0.551        0.391       55.614       40.422        0.528      331.250       -0.856      856.067
12/06/2013  14:41:00      -24.029      -79.848      -11.955       48.926       54.486       26.527     2393.791     2968.724      703.698        0.658        0.303       83.386       20.514        0.061      331.410       -0.593      856.126
12/06/2013  14:42:00      -68.445      -10.539       -4.114       36.016       33.020       17.686     1297.167     1090.323      312.808        0.376        0.135       69.252       14.726        0.045      331.487       -0.466      856.183
12/06/2013  14:43:00     -122.253      -48.227        1.562       58.065       40.315       27.705     3371.533     1625.289      767.550        1.152        0.288      131.421       25.820        0.039      331.270       -0.823      856.225
12/06/2013  14:44:00       -3.881       11.645        4.622       41.738       30.977       19.676     1742.041      959.568      387.150        0.163        0.154       12.275       19.483        2.519      331.447       -0.531      856.221
12/06/2013  14:45:00      136.500      117.225       28.858       66.885       68.875       62.026     4473.575     4743.779     3847.269        2.313        0.653      179.927       53.867        0.090      331.398       -0.615      856.125
12/06/2013  14:46:00      151.294      147.847      125.128      147.841      105.995       82.027    21857.055    11234.957     6728.460        5.011        1.991      211.539       92.050        0.189      331.264       -0.834      855.975
12/06/2013  14:47:00      138.289      180.965      186.164      122.846      130.325       89.960    15091.163    16984.705     8092.849        6.334        2.008      227.755       93.263        0.168      331.282       -0.807      855.843
12/06/2013  14:48:00      247.385      194.439      139.104      122.999       90.911       97.022    15128.762     8264.843     9413.310        7.557        1.640      314.652       81.165        0.067      331.227       -0.897      855.750
12/06/2013  14:49:00      161.434      158.224      113.104      113.996      121.921       91.306    12995.039    14864.629     8336.706        5.004        1.810      226.044       68.360        0.091      331.192       -0.954      855.753
12/06/2013  14:50:00       64.485      -40.664       47.154       87.463       92.669       56.274     7649.817     8587.556     3166.791        1.372        0.970       76.235       52.805        0.480      331.266       -0.831      855.804
12/06/2013  14:51:00       25.699     -132.214        6.296       64.318      102.119       42.882     4136.764    10428.344     1838.839        1.729        0.820      134.689       30.167        0.050      331.361       -0.674      855.821
12/06/2013  14:52:00      -66.444      -38.374        6.018       84.185       60.659       43.100     7087.165     3679.522     1857.593        0.927        0.631       76.729       26.012        0.115      331.490       -0.462      855.815
12/06/2013  14:53:00     -159.792     -132.750       -9.303       93.582       78.356       46.274     8757.682     6139.714     2141.319        3.014        0.852      207.740       40.121        0.037      331.403       -0.607      855.857
12/06/2013  14:54:00     -133.394      -78.569        6.954       79.091       63.857       45.996     6255.397     4077.708     2115.636        1.823        0.622      154.813       37.720        0.059      331.421       -0.576      855.882
12/06/2013  14:55:00     -142.938     -100.895        4.857      101.816       60.779       44.001    10366.419     3694.093     1936.102        2.331        0.800      174.960       41.985        0.058      331.404       -0.604      855.900
12/06/2013  14:56:00      -47.339      -37.445       -0.239       56.130       39.741       31.602     3150.611     1579.316      998.700        0.468        0.286       60.358       23.324        0.149      331.512       -0.425      855.867
12/06/2013  14:57:00       -2.771       95.984      126.189       36.468       71.328       58.931     1329.923     5087.752     3472.907        1.752        0.495       96.024       54.278        0.320      331.546       -0.371      855.793
12/06/2013  14:58:00       49.693      198.128      180.076       76.790       64.222       52.934     5896.687     4124.425     2801.974        4.348        0.641      204.264       46.434        0.052      331.520       -0.415      855.672
12/06/2013  14:59:00      102.800       86.087      109.230       74.053       70.435       41.810     5483.920     4961.072     1748.065        2.105        0.610      134.085       41.312        0.095      331.504       -0.440      855.631
12/06/2013  15:00:00       -4.220       -6.252       33.757       52.632       67.282       52.029     2770.160     4526.879     2707.054        0.560        0.500        7.543       48.061       40.602      331.687       -0.136      855.706
12/06/2013  15:01:00      -75.859      -49.747        1.323      119.200       85.505       37.148    14208.647     7311.093     1379.957        1.556        1.145       90.716       28.454        0.098      331.705       -0.110      855.797
12/06/2013  15:02:00     -141.703     -155.707        6.954      104.371       83.312       49.052    10893.349     6940.914     2406.099        3.230        1.012      210.534       33.277        0.025      331.440       -0.546      855.875
12/06/2013  15:03:00      -98.861     -102.932       10.007       66.955       57.973       37.507     4483.019     3360.812     1406.791        1.486        0.463      142.718       33.889        0.056      331.442       -0.542      855.918
12/06/2013  15:04:00      -46.183     -122.006        9.092       46.328       46.899       32.118     2146.314     2199.526     1031.560        1.124        0.269      130.454       23.793        0.033      331.480       -0.478      855.904
12/06/2013  15:05:00      -52.439      -86.163        3.819       53.241       71.273       30.544     2834.554     5079.879      932.938        0.952        0.442      100.866       27.281        0.073      331.467       -0.500      855.840
12/06/2013  15:06:00      -22.258       35.292       82.925       23.778       46.453       42.941      565.389     2157.891     1843.946        0.659        0.228       41.725       37.198        0.795      331.644       -0.208      855.764
12/06/2013  15:07:00      -16.601       25.177       74.711       18.412       43.590       23.704      339.005     1900.091      561.882        0.465        0.140       30.158       24.150        0.641      331.641       -0.211      855.745
12/06/2013  15:08:00       36.326      -12.802       59.505       50.354       86.948       49.870     2535.572     7559.937     2487.035        0.880        0.629       38.516       55.976        2.112      331.527       -0.400      855.732
12/06/2013  15:09:00      103.349     -118.608      -29.303       50.469       75.163       35.535     2547.118     5649.489     1262.745        1.753        0.473      157.318       20.612        0.017      331.484       -0.472      855.720
12/06/2013  15:10:00       46.287      -15.951       29.827       48.211       46.880       33.904     2324.323     2197.725     1149.492        0.448        0.284       48.959       33.810        0.477      331.531       -0.395      855.697
12/06/2013  15:11:00       12.224       32.092       76.318       38.300       45.460       36.826     1466.854     2066.639     1356.150        0.595        0.244       34.342       22.944        0.446      331.553       -0.359      855.676
12/06/2013  15:12:00       50.327      -74.683       17.266       39.165       49.817       36.337     1533.908     2481.755     1320.399        0.687        0.267       90.057       31.025        0.119      331.575       -0.322      855.700
12/06/2013  15:13:00        7.263      -61.336      -13.797       40.293       34.037       26.469     1623.504     1158.526      700.612        0.374        0.174       61.765       24.365        0.156      331.654       -0.191      855.732
12/06/2013  15:14:00       -7.984      -19.024        9.519       28.124       13.331       15.460      790.934      177.704      239.003        0.086        0.060       20.631       11.647        0.319      331.791        0.034      855.756
12/06/2013  15:15:00      -61.095      -45.457        4.229       29.159       34.964       17.891      850.249     1222.491      320.085        0.410        0.120       76.151       14.218        0.035      331.697       -0.120      855.751
12/06/2013  15:16:00      -24.381      -18.795        7.216       33.068       23.042       17.039     1093.525      530.926      290.330        0.146        0.096       30.784       12.739        0.171      331.701       -0.112      855.731
12/06/2013  15:17:00      -13.360      -23.770        6.227       52.370       24.954       19.520     2742.610      622.685      381.033        0.226        0.187       27.267       17.406        0.407      331.665       -0.174      855.726
12/06/2013  15:18:00      -94.502      -54.535        3.575       39.455       28.826       19.450     1556.722      830.966      378.309        0.734        0.138      109.109       16.157        0.022      331.487       -0.467      855.727
12/06/2013  15:19:00      -85.454      -45.699        5.882       50.717       40.012       27.154     2572.257     1600.988      737.330        0.717        0.246       96.906       23.443        0.059      331.441       -0.541      855.736
12/06/2013  15:20:00      -32.771      -27.106        6.652       34.429       32.147       18.328     1185.325     1033.458      335.912        0.220        0.128       42.529       20.716        0.237      331.484       -0.471      855.750
12/06/2013  15:21:00       -5.745       11.482       15.081       32.263       55.926       23.547     1040.900     3127.677      554.461        0.256        0.236       12.838       25.782        4.033      331.547       -0.369      855.738
12/06/2013  15:22:00       16.957       15.308       58.700       42.180       49.546       34.693     1779.158     2454.765     1203.617        0.470        0.272       22.845       24.605        1.160      331.630       -0.230      855.677
12/06/2013  15:23:00       68.314       -9.965       59.204       83.409       82.696       63.269     6956.989     6838.642     4002.952        1.303        0.890       69.037       66.441        0.926      331.643       -0.210      855.618
12/06/2013  15:24:00       59.983      -42.936       60.264       78.920      132.594       78.281     6228.437    17581.081     6127.916        1.950        1.497       73.767       90.234        1.496      331.560       -0.347      855.574
12/06/2013  15:25:00       83.580       22.997       74.581       90.038       60.874       46.176     8106.757     3705.685     2132.204        1.351        0.697       86.686       41.626        0.231      331.581       -0.310      855.563
12/06/2013  15:26:00       53.839       -5.897       18.450       58.885       41.189       30.479     3467.403     1696.502      928.969        0.468        0.305       54.162       22.353        0.170      331.565       -0.338      855.601
12/06/2013  15:27:00       53.551      -68.789      -15.551       24.142       52.785       20.769      582.834     2786.248      431.331        0.582        0.190       87.176       16.868        0.037      331.636       -0.221      855.627
12/06/2013  15:28:00       11.101       25.463       -8.069       23.104       22.542       19.383      533.817      508.126      375.713        0.113        0.071       27.777        8.437        0.092      331.603       -0.275      855.629
12/06/2013  15:29:00      -21.322       17.444        0.270       29.450       20.151       20.943      867.290      406.058      438.623        0.124        0.086       27.549        9.933        0.130      331.593       -0.292      855.615
12/06/2013  15:30:00      -69.179       56.193       -8.675       29.550       48.253       20.951      873.204     2328.333      438.940        0.583        0.182       89.126       15.422        0.030      331.533       -0.391      855.652
12/06/2013  15:31:00      -79.760      105.064      -21.773       28.214       27.330       18.011      796.002      746.906      324.413        0.987        0.093      131.909        8.109        0.004      331.537       -0.384      855.685
12/06/2013  15:32:00      -62.387       50.489       -7.241       53.970       24.588       15.332     2912.750      604.548      235.062        0.512        0.188       80.258       12.085        0.023      331.540       -0.380      855.692
12/06/2013  15:33:00       63.582       39.192      -10.981       22.794       18.605       16.511      519.581      346.130      272.608        0.342        0.057       74.691        8.896        0.014      331.552       -0.358      855.676
12/06/2013  15:34:00       64.851       31.367       40.125       38.727       53.196       38.363     1499.813     2829.824     1471.703        0.630        0.290       72.039       28.406        0.155      331.614       -0.257      855.669
12/06/2013  15:35:00       55.529      -46.562        1.779       40.924       57.969       38.134     1674.813     3360.382     1454.167        0.587        0.324       72.467       30.739        0.180      331.996        0.373      855.657
12/06/2013  15:36:00       22.770       -0.203       61.355       33.864       63.332       33.827     1146.775     4010.939     1144.297        0.529        0.315       22.771       33.379        2.149      331.836        0.108      855.613
12/06/2013  15:37:00       23.738       -3.989       51.254       44.610       51.265       34.096     1990.011     2628.116     1162.535        0.449        0.289       24.071       33.197        1.902      331.772        0.002      855.581
12/06/2013  15:38:00       35.175      -37.201       26.559       32.424       50.101       37.878     1051.320     2510.115     1434.719        0.416        0.250       51.197       34.933        0.466      331.762       -0.014      855.553
12/06/2013  15:39:00       14.096      -92.687      -19.078       50.670       43.587       28.750     2567.492     1899.841      826.569        0.722        0.265       93.753       17.682        0.036      331.857        0.143      855.546
12/06/2013  15:40:00      -63.193      -36.709        6.571       74.809       42.835       34.967     5596.350     1834.799     1222.658        0.702        0.433       73.081       37.718        0.266      331.762       -0.014      855.542
12/06/2013  15:41:00      -96.329      -66.363       10.120       71.376       62.814       39.133     5094.515     3945.580     1531.379        1.218        0.529      116.976       30.487        0.068      331.593       -0.292      855.551
12/06/2013  15:42:00      -22.679      -21.896       20.363       68.485       57.610       32.576     4690.188     3318.892     1061.206        0.524        0.454       31.524       33.308        1.116      331.591       -0.297      855.536
12/06/2013  15:43:00       34.255      -74.536       33.178       65.060       73.247       40.521     4232.752     5365.059     1641.967        0.953        0.562       82.031       40.922        0.249      331.626       -0.238      855.512
12/06/2013  15:44:00        6.442        5.503       73.882       70.279       96.520       54.283     4939.125     9316.135     2946.698        1.136        0.860        8.472       50.940       36.150      331.461       -0.508      855.489
12/06/2013  15:45:00       55.881     -143.947        9.012      111.423      130.121       86.552    12415.091    16931.516     7491.187        3.037        1.842      154.413       82.011        0.282      331.338       -0.713      855.473
12/06/2013  15:46:00       20.356      -36.179       38.884       54.956       97.332       50.525     3020.172     9473.443     2552.812        0.914        0.752       41.513       51.009        1.510      331.398       -0.613      855.472
12/06/2013  15:47:00       27.019      -92.822        5.172       48.693       75.003       42.946     2371.007     5625.524     1844.399        0.960        0.492       96.675       40.266        0.173      331.426       -0.568      855.472
12/06/2013  15:48:00       34.445      -74.883        3.255       87.727       49.071       33.333     7696.088     2407.930     1111.071        0.901        0.561       82.425       28.069        0.116      331.567       -0.334      855.479
12/06/2013  15:49:00       98.956     -141.884      -16.192       81.940       79.729       51.206     6714.217     6356.679     2622.097        2.294        0.785      172.984       52.157        0.091      331.347       -0.699      855.428
12/06/2013  15:50:00       87.962     -104.844       -3.441       75.044      101.402       56.882     5631.562    10282.329     3235.548        1.894        0.957      136.855       51.713        0.143      331.341       -0.707      855.416
12/06/2013  15:51:00       21.777     -105.939      -12.524       71.292       76.593       44.858     5082.613     5866.427     2012.254        1.241        0.648      108.154       35.212        0.106      331.378       -0.646      855.426
12/06/2013  15:52:00       83.760     -109.481      -13.711       70.028       67.467       56.182     4903.920     4551.812     3156.422        1.590        0.631      137.847       48.893        0.126      331.242       -0.870      855.418
12/06/2013  15:53:00       47.498      -95.783        7.736       75.281       75.371       50.047     5667.189     5680.732     2504.686        1.267        0.693      106.913       55.990        0.274      331.306       -0.764      855.431
12/06/2013  15:54:00       11.543      -58.640       17.607       54.088       65.810       51.583     2925.488     4330.942     2660.802        0.690        0.496       59.765       32.992        0.305      331.408       -0.595      855.433
12/06/2013  15:55:00       -0.323       18.326       77.634       30.917       62.185       43.704      955.856     3867.020     1910.079        0.655        0.337       18.329       42.498        5.376      331.377       -0.648      855.411
12/06/2013  15:56:00       31.531      -51.468       41.189       72.428       88.838       59.595     5245.821     7892.263     3551.506        1.101        0.834       60.359       58.102        0.927      331.345       -0.700      855.417
12/06/2013  15:57:00      123.705     -174.231      -33.898       50.655       54.131       34.691     2565.932     2930.198     1203.478        2.675        0.335      213.681       26.706        0.016      331.227       -0.897      855.423
12/06/2013  15:58:00       44.916     -150.143      -41.149      112.412       74.151       44.421    12636.348     5498.348     1973.252        2.318        1.005      156.717       55.957        0.127      331.342       -0.706      855.421
12/06/2013  15:59:00      -45.953      -20.925       -0.031       47.090       31.864       19.686     2217.455     1015.334      387.521        0.308        0.181       50.493       18.749        0.138      331.465       -0.504      855.427
12/06/2013  16:00:00       -7.452      -41.345        6.719       39.100       34.492       29.871     1528.776     1189.680      892.289        0.271        0.181       42.012       22.179        0.279      331.445       -0.534      855.404
12/06/2013  16:01:00        5.907      -37.553       46.457       41.614       62.783       41.703     1731.698     3941.685     1739.179        0.551        0.371       38.015       23.782        0.391      331.447       -0.533      855.358
12/06/2013  16:02:00       71.390      -60.125       12.607       60.370       76.314       61.032     3644.570     5823.786     3724.879        1.103        0.660       93.335       59.517        0.407      331.381       -0.640      855.328
12/06/2013  16:03:00        3.563       84.460      118.771       56.089       60.517       41.466     3146.005     3662.361     1719.430        1.489        0.426       84.535       24.311        0.083      331.318       -0.745      855.305
12/06/2013  16:04:00       97.004      -82.061       36.204       79.118       96.956       75.951     6259.614     9400.454     5768.596        1.944        1.071      127.058       79.339        0.390      331.253       -0.852      855.322
12/06/2013  16:05:00       40.611      -95.214       -9.981       52.016       78.496       33.011     2705.666     6161.566     1089.724        1.038        0.498      103.513       20.495        0.039      331.410       -0.594      855.389
12/06/2013  16:06:00      -46.916      -34.251        1.805       46.293       27.893       18.734     2143.036      778.024      350.974        0.332        0.164       58.088       19.297        0.110      331.468       -0.500      855.434
12/06/2013  16:07:00       40.966       42.241       46.618       41.021       38.084       35.055     1682.763     1450.393     1228.835        0.500        0.218       58.843       31.820        0.292      331.416       -0.582      855.417
12/06/2013  16:08:00       -0.306      133.746      155.722       31.417       67.789       37.320      987.017     4595.380     1392.808        2.455        0.349      133.746       38.987        0.085      331.410       -0.594      855.341
12/06/2013  16:09:00       62.135     -108.032       17.653       69.574       80.513       65.914     4840.474     6482.355     4344.617        1.575        0.783      124.626       60.690        0.237      331.394       -0.620      855.355
12/06/2013  16:10:00      105.367     -158.101      -28.681       50.179       40.462       27.544     2517.929     1637.139      758.680        2.092        0.246      189.995       23.428        0.015      331.342       -0.706      855.409
12/06/2013  16:11:00       55.707      -58.072       28.409       56.708      105.572       58.341     3215.741    11145.460     3403.718        1.252        0.888       80.471       75.599        0.883      331.350       -0.692      855.401
12/06/2013  16:12:00      117.050      -89.275        2.083       66.365      110.909       64.999     4404.323    12300.817     4224.889        2.130        1.047      147.210       83.312        0.320      331.220       -0.908      855.383
12/06/2013  16:13:00       59.832      -30.471       30.323       75.288       79.085       49.232     5668.315     6254.491     2423.752        0.988        0.717       67.144       58.036        0.747      331.276       -0.814      855.361
12/06/2013  16:14:00       70.324      -52.407       43.862       53.503       84.331       47.451     2862.563     7111.704     2251.607        1.092        0.611       87.704       41.979        0.229      331.273       -0.817      855.339
12/06/2013  16:15:00       50.313       47.548       73.125       65.205       73.707       52.222     4251.706     5432.757     2727.087        1.127        0.621       69.226       53.094        0.588      331.280       -0.807      855.327
12/06/2013  16:16:00       23.114      -37.024       28.291       46.101       56.058       39.414     2125.260     3142.535     1553.425        0.476        0.341       43.647       25.568        0.343      331.310       -0.756      855.309
12/06/2013  16:17:00       82.736       82.978       68.321       54.382       38.524       44.937     2957.426     1484.094     2019.292        1.243        0.323      117.178       32.066        0.075      331.220       -0.906      855.304
12/06/2013  16:18:00       99.832       63.251       57.863       64.350       50.746       46.404     4140.980     2575.111     2153.375        1.309        0.443      118.182       37.022        0.098      331.174       -0.982      855.291
12/06/2013  16:19:00      123.873       61.457       27.067       67.773       52.155       49.181     4593.204     2720.195     2418.791        1.479        0.487      138.281       24.359        0.031      331.128       -1.058      855.271
12/06/2013  16:20:00       77.132       42.561       44.004       59.202       35.110       39.690     3504.867     1232.747     1575.276        0.800        0.316       88.095       35.352        0.161      331.213       -0.916      855.266
12/06/2013  16:21:00       36.512       26.392       69.121       51.542       54.470       51.195     2656.605     2967.027     2620.976        0.752        0.412       45.052       46.022        1.044      331.292       -0.787      855.253
12/06/2013  16:22:00       94.643      -45.178       14.338       59.636       57.870       45.377     3556.464     3348.991     2059.048        1.008        0.448      104.873       38.408        0.134      331.282       -0.804      855.245
12/06/2013  16:23:00       96.410      -39.698       25.117       55.313       62.202       40.045     3059.566     3869.147     1603.635        1.002        0.427      104.264       42.303        0.165      331.287       -0.794      855.255
12/06/2013  16:24:00       22.659        5.246       39.905       37.278       42.555       31.834     1389.667     1810.959     1013.432        0.317        0.211       23.258       33.055        2.020      331.277       -0.812      855.259
12/06/2013  16:25:00       48.052       -0.252       30.469       53.547       53.461       47.902     2867.251     2858.078     2294.577        0.563        0.401       48.053       46.820        0.949      331.296       -0.781      855.254
12/06/2013  16:26:00      107.230       76.069       60.146       55.503       46.065       42.439     3080.552     2121.985     1801.109        1.395        0.350      131.472       35.919        0.075      331.273       -0.818      855.229
12/06/2013  16:27:00       39.372       84.265       79.834       47.112       24.605       27.925     2219.507      605.393      779.802        0.931        0.180       93.010       14.808        0.025      331.361       -0.674      855.219
12/06/2013  16:28:00       -1.889       23.002       64.396       20.899       39.929       22.795      436.788     1594.356      519.606        0.361        0.128       23.079       27.785        1.449      331.342       -0.705      855.241
12/06/2013  16:29:00       49.268      -64.124        1.802       43.804       48.685       31.182     1918.813     2370.205      972.339        0.590        0.263       80.865       36.452        0.203      331.328       -0.727      855.266
12/06/2013  16:30:00       74.379     -103.171      -29.619       45.593       36.797       26.093     2078.732     1353.994      680.827        1.058        0.206      127.186        8.177        0.004      331.361       -0.671      855.265
12/06/2013  16:31:00       20.140      -55.278       -0.417       50.311       40.046       34.555     2531.180     1603.646     1194.080        0.439        0.266       58.833       30.640        0.271      331.364       -0.668      855.244
12/06/2013  16:32:00      -14.861       -3.852       22.793       15.932       21.613       11.130      253.829      467.131      123.866        0.080        0.042       15.352        7.135        0.216      331.355       -0.683      855.216
12/06/2013  16:33:00      -13.228       -1.204        9.862       18.719       17.291       12.220      350.384      298.991      149.333        0.054        0.040       13.283       10.024        0.570      331.317       -0.746      855.190
12/06/2013  16:34:00        6.211       30.717       12.949       21.410       14.263        9.111      458.377      203.429       83.013        0.095        0.037       31.338        5.660        0.033      331.297       -0.778      855.159
12/06/2013  16:35:00      -16.753       -2.678        3.835       20.808       10.313       11.004      432.977      106.363      121.088        0.048        0.033       16.966        7.382        0.189      331.288       -0.793      855.149
12/06/2013  16:36:00       -0.181       28.777       12.736       12.686       30.600       18.857      160.932      936.379      355.571        0.122        0.073       28.778       21.417        0.554      331.361       -0.674      855.136
12/06/2013  16:37:00      -29.097       21.521        1.686       21.597       34.164       17.274      466.432     1167.173      298.406        0.162        0.097       36.191       17.793        0.242      331.277       -0.811      855.126
12/06/2013  16:38:00       -8.250        6.871       10.074       22.408       24.429       16.980      502.118      596.752      288.332        0.080        0.069       10.737       14.879        1.920      331.293       -0.785      855.118
12/06/2013  16:39:00      -52.039      -26.799        2.374       36.505       33.575       19.123     1332.602     1127.286      365.672        0.313        0.141       58.534       17.231        0.087      331.277       -0.812      855.100
12/06/2013  16:40:00      -48.269      -71.854        6.498       33.438       52.426       20.051     1118.127     2748.446      402.061        0.590        0.213       86.561       17.561        0.041      331.327       -0.729      855.077
12/06/2013  16:41:00      -29.910      -61.622        3.672       16.064       46.463        9.442      258.046     2158.841       89.146        0.361        0.125       68.497        8.338        0.015      331.303       -0.768      855.045
12/06/2013  16:42:00      -38.090      -29.764       -1.882       35.734       30.937       15.416     1276.902      957.084      237.653        0.241        0.124       48.340       18.512        0.147      331.394       -0.618      855.031
12/06/2013  16:43:00       -7.675       19.196       45.515       24.247       41.096       44.222      587.927     1688.870     1955.607        0.336        0.212       20.674       36.457        3.110      331.445       -0.536      855.013
12/06/2013  16:44:00       18.265      -39.158       17.924       36.766       59.140       50.188     1351.745     3497.547     2518.815        0.478        0.368       43.208       48.113        1.240      331.444       -0.537      855.008
12/06/2013  16:45:00       -9.684        6.150       11.478       15.589       20.484       18.796      243.004      419.604      353.302        0.064        0.051       11.472       10.330        0.811      331.489       -0.464      855.006
12/06/2013  16:46:00      -22.430       29.997       -1.690       17.850       17.629       16.634      318.640      310.783      276.698        0.116        0.045       37.455        6.034        0.026      331.396       -0.615      854.995
12/06/2013  16:47:00      -10.105       32.429        7.345       17.634       16.325       14.908      310.958      266.502      222.249        0.100        0.040       33.967       13.703        0.163      331.397       -0.615      854.965
12/06/2013  16:48:00      -66.580       15.524        0.530       26.022       17.053       13.297      677.145      290.821      176.800        0.291        0.057       68.366        8.709        0.016      331.372       -0.654      854.943
12/06/2013  16:49:00      -22.347       13.467        4.404       25.073       19.689       13.898      628.668      387.642      193.164        0.095        0.060       26.091       14.257        0.299      331.330       -0.723      854.932
12/06/2013  16:50:00       -7.821       45.793       22.039       58.998       25.633       45.240     3480.762      657.034     2046.641        0.441        0.309       46.457       41.379        0.793      331.387       -0.632      854.974
12/06/2013  16:51:00      -16.615       -4.021       24.358       25.242       45.194       37.867      637.146     2042.480     1433.872        0.250        0.206       17.095       37.143        4.721      331.467       -0.500      854.986
12/06/2013  16:52:00       13.061       -5.562       69.022       40.015       69.913       44.365     1601.161     4887.783     1968.244        0.671        0.423       14.196       30.785        4.703      331.433       -0.554      854.966
12/06/2013  16:53:00       32.083        3.779       76.396       54.866       81.162       50.508     3010.272     6587.336     2551.107        0.951        0.607       32.304       57.276        3.144      331.427       -0.565      854.902
12/06/2013  16:54:00      101.188      -71.918       12.495       61.678       70.660       51.412     3804.207     4992.852     2643.172        1.350        0.572      124.141       42.691        0.118      331.420       -0.577      854.856
12/06/2013  16:55:00        3.887       81.524      124.628       45.017       70.751       53.885     2026.519     5005.720     2903.612        1.606        0.497       81.617       51.603        0.400      331.365       -0.668      854.846
12/06/2013  16:56:00       34.707      100.692      132.138       54.257       63.217       33.459     2943.796     3996.408     1119.533        1.843        0.403      106.505       34.903        0.107      331.348       -0.696      854.829
12/06/2013  16:57:00       39.913       34.826       70.173       66.585       68.615       42.547     4433.516     4708.034     1810.275        0.934        0.548       52.971       42.352        0.639      331.347       -0.698      854.857
12/06/2013  16:58:00      -30.566      -37.673       -7.601       85.622       59.516       24.798     7331.203     3542.158      614.956        0.695        0.574       48.513       26.345        0.295      331.420       -0.576      854.896
12/06/2013  16:59:00     -105.851      -43.499        6.880       68.053       46.731       27.699     4631.199     2183.746      767.254        1.036        0.379      114.440       31.027        0.074      331.468       -0.498      854.930
12/06/2013  17:00:00       15.732       -6.339        6.248       27.531       31.024       22.867      757.946      962.514      522.889        0.128        0.112       16.961       10.669        0.396      331.490       -0.463      854.905
12/06/2013  17:01:00       73.632      -30.376       24.817       81.705       87.486       48.944     6675.769     7653.851     2395.494        1.184        0.836       79.652       62.766        0.621      331.458       -0.516      854.892
12/06/2013  17:02:00       31.401      -17.349       43.099       48.976       78.394       49.508     2398.679     6145.644     2451.013        0.707        0.550       35.875       56.682        2.496      331.487       -0.467      854.884
12/06/2013  17:03:00        3.608      -38.915       -7.953       73.561       51.909       30.936     5411.158     2694.504      957.006        0.532        0.453       39.082       22.537        0.333      331.551       -0.361      854.884
12/06/2013  17:04:00      -31.454      -17.962        5.779       30.575       28.028       23.874      934.857      785.559      569.951        0.182        0.115       36.221       18.508        0.261      331.609       -0.265      854.886
12/06/2013  17:05:00      -53.697      -98.111        1.311       32.773       52.320       23.833     1074.072     2737.428      568.009        0.844        0.219      111.844       18.880        0.028      331.625       -0.239      854.869
12/06/2013  17:06:00       30.180      -48.632       47.560       64.150      102.046       54.916     4115.227    10413.421     3015.728        1.154        0.877       57.236       58.679        1.051      331.563       -0.342      854.812
12/06/2013  17:07:00       18.521      -30.953       11.374       27.928       40.431       32.095      779.976     1634.648     1030.120        0.244        0.172       36.072       26.570        0.543      331.670       -0.165      854.805
12/06/2013  17:08:00       27.476      -89.127      -13.635       24.998       26.107       13.674      624.894      681.567      186.988        0.519        0.075       93.266       13.293        0.020      331.673       -0.159      854.811
12/06/2013  17:09:00       10.610      -31.975        8.463       30.183       47.302       20.889      911.010     2237.488      436.338        0.239        0.179       33.689       21.699        0.415      331.560       -0.347      854.808
12/06/2013  17:10:00      -46.633        1.343        9.932       42.602       38.235       35.829     1814.955     1461.905     1283.711        0.342        0.228       46.653       28.802        0.381      331.644       -0.207      854.774
12/06/2013  17:11:00      -74.101      -88.831        2.580       56.080       81.858       31.755     3145.022     6700.732     1008.368        1.212        0.543      115.680       30.483        0.069      331.739       -0.051      854.779
12/06/2013  17:12:00     -112.453      -57.083        9.531       82.781       70.756       34.654     6852.651     5006.356     1200.883        1.452        0.653      126.112       28.043        0.049      331.701       -0.115      854.779
12/06/2013  17:13:00      -86.172      -93.245        2.362       69.815      105.650       39.350     4874.093    11161.933     1548.426        1.685        0.879      126.966       39.743        0.098      331.668       -0.170      854.835
12/06/2013  17:14:00     -326.570     -162.030       -4.280      168.527      124.854       72.506    28401.343    15588.421     5257.079        9.107        2.462      364.557       74.865        0.042      331.762       -0.017      854.786
12/06/2013  17:15:00     -178.960     -119.837       -9.082      102.988      115.025       57.973    10606.434    13230.644     3360.871        3.683        1.360      215.377       61.816        0.082      331.772        0.001      854.753
12/06/2013  17:16:00     -151.195      -41.817      -11.367       78.205       71.635       43.516     6116.026     5131.615     1893.680        1.894        0.657      156.872       40.560        0.067      331.739       -0.053      854.786
12/06/2013  17:17:00     -110.704     -122.532        8.076      127.000      144.608       62.745    16129.038    20911.583     3936.925        3.415        2.049      165.134       72.523        0.193      331.758       -0.022      854.826
12/06/2013  17:18:00     -232.708     -157.682      -13.412      153.888      125.223       58.547    23681.656    15680.871     3427.790        6.098        2.140      281.099       65.083        0.054      331.783        0.018      854.830
12/06/2013  17:19:00     -107.495     -119.149       18.402       92.480       86.895       46.574     8552.565     7550.796     2169.154        2.218        0.914      160.473       35.503        0.049      331.803        0.053      854.808
12/06/2013  17:20:00      -74.192     -155.567      -13.518       60.637       81.513       40.383     3676.813     6644.320     1630.815        2.092        0.598      172.353       37.783        0.048      331.940        0.277      854.765
12/06/2013  17:21:00     -101.924     -113.815       -4.815       80.716       86.990       47.990     6515.045     7567.272     2303.016        1.987        0.819      152.782       46.412        0.092      331.844        0.121      854.769
12/06/2013  17:22:00     -218.440     -179.887       -0.789      130.195      115.186       67.576    16950.766    13267.748     4566.497        5.742        1.739      282.976       71.286        0.063      331.801        0.048      854.792
12/06/2013  17:23:00     -282.680     -151.234       -6.271      124.212      125.601       70.165    15428.647    15775.578     4923.059        6.947        1.806      320.593       67.663        0.045      331.802        0.049      854.792
12/06/2013  17:24:00     -298.739     -208.977       -7.947      153.349      135.591       70.438    23515.877    18384.816     4961.538        8.991        2.343      364.577       80.151        0.048      331.798        0.041      854.761
12/06/2013  17:25:00     -419.328     -259.053      -37.631      145.641      138.875       65.580    21211.390    19286.288     4300.736       14.457        2.240      492.894       59.652        0.015      331.808        0.058      854.707
12/06/2013  17:26:00     -273.593     -142.952      -17.380      119.144       98.847       64.952    14195.207     9770.739     4218.793        6.188        1.409      308.688       57.263        0.034      331.827        0.091      854.666
12/06/2013  17:27:00     -266.232     -121.223       -4.320      154.989       96.387       66.166    24021.673     9290.418     4377.927        6.163        1.885      292.531       60.417        0.043      331.851        0.129      854.651
12/06/2013  17:28:00     -231.757      -86.651        1.050      153.077      125.412       60.164    23432.556    15728.050     3619.650        5.199        2.139      247.426       59.609        0.058      331.825        0.086      854.685
12/06/2013  17:29:00     -133.424     -187.599        5.578      168.237       94.177       51.233    28303.689     8869.371     2624.839        4.640        1.990      230.207       49.307        0.046      331.855        0.137      854.681
12/06/2013  17:30:00     -225.229     -187.048      -14.273      144.073      107.614       56.450    20756.995    11580.801     3186.575        6.071        1.776      292.771       59.054        0.041      331.821        0.080      854.649
12/06/2013  17:31:00     -144.294     -145.681        9.419      107.709       83.856       54.410    11601.238     7031.903     2960.494        3.186        1.080      205.045       56.720        0.077      331.817        0.072      854.624
12/06/2013  17:32:00      -75.690     -201.180      -14.687       86.351      110.000       60.019     7456.445    12099.909     3602.222        3.478        1.158      214.947       48.799        0.052      331.985        0.351      854.632
12/06/2013  17:33:00      -96.046     -120.004        9.536      118.500       71.593       55.452    14042.191     5125.594     3074.907        2.298        1.112      153.707       40.271        0.069      331.888        0.190      854.608
12/06/2013  17:34:00      -37.115     -163.776        0.231       79.802       76.582       40.654     6368.403     5864.845     1652.741        2.104        0.694      167.929       29.116        0.030      331.869        0.161      854.635
12/06/2013  17:35:00       16.688      -81.041       -8.133       72.471       49.780       36.444     5252.033     2478.080     1328.138        0.798        0.453       82.741       32.453        0.154      331.897        0.208      854.669
12/06/2013  17:36:00       25.747       12.412        2.716       55.413       37.749       33.779     3070.640     1424.959     1140.991        0.323        0.282       28.583       13.848        0.235      331.836        0.108      854.690
12/06/2013  17:37:00      -14.085       60.622       -3.427       56.623       33.776       31.422     3206.165     1140.831      987.321        0.461        0.267       62.237       25.947        0.174      331.722       -0.077      854.689
12/06/2013  17:38:00       47.685       34.660       12.184       68.523       26.286       28.576     4695.401      690.970      816.570        0.491        0.310       58.951       23.290        0.156      331.802        0.053      854.705
12/06/2013  17:39:00       46.193       55.748       71.412       72.502       67.948       40.570     5256.473     4616.985     1645.959        1.093        0.576       72.399       45.324        0.392      331.729       -0.068      854.648
12/06/2013  17:40:00      -96.641        4.998       -2.248      128.521       81.688       48.901    16517.758     6672.938     2391.261        1.747        1.279       96.771       30.706        0.101      331.702       -0.114      854.671
12/06/2013  17:41:00     -308.830      -32.307      -22.873      107.245      117.316       58.698    11501.447    13763.046     3445.417        6.282        1.435      310.515       39.925        0.017      331.634       -0.229      854.693
12/06/2013  17:42:00     -306.751      -76.179      -22.432      159.746      109.041       53.356    25518.711    11889.955     2846.863        7.032        2.013      316.069       68.755        0.047      331.638       -0.221      854.718
12/06/2013  17:43:00      -87.755      -64.547       -1.083       80.138       62.618       36.789     6422.078     3921.043     1353.439        1.178        0.585      108.937       39.025        0.128      331.657       -0.188      854.714
12/06/2013  17:44:00     -158.406      -80.534       -8.788       75.010       73.113       46.332     5626.447     5345.457     2146.651        2.238        0.656      177.702       43.464        0.060      331.620       -0.251      854.737
12/06/2013  17:45:00     -175.696      -48.994        8.398       72.480       69.389       46.015     5253.337     4814.833     2117.356        2.276        0.609      182.400       44.547        0.060      331.579       -0.316      854.763
12/06/2013  17:46:00      -59.573      -40.921       19.626       97.964       65.770       39.197     9596.980     4325.727     1536.373        1.053        0.773       72.274       48.705        0.454      331.611       -0.263      854.716
12/06/2013  17:47:00     -108.064     -123.080       -3.741       52.839       61.150       40.344     2792.012     3739.359     1627.615        1.750        0.408      163.788       31.408        0.037      331.600       -0.282      854.634
12/06/2013  17:48:00      -91.574      -44.292       -3.482       95.787       68.725       33.546     9175.102     4723.145     1125.332        1.269        0.751      101.723       37.119        0.133      331.600       -0.282      854.594
12/06/2013  17:49:00       -4.727       12.285       14.122       32.949       31.390       22.818     1085.636      985.325      520.667        0.148        0.130       13.163       15.146        1.324      331.593       -0.292      854.585
12/06/2013  17:50:00      -45.742      -55.605        6.783       68.985      114.058       42.266     4758.889    13009.114     1786.384        1.239        0.978       72.002       44.952        0.390      331.600       -0.281      854.569
12/06/2013  17:51:00     -115.663      -93.967        9.716      116.803       95.709       56.294    13642.862     9160.209     3169.023        2.413        1.299      149.023       64.682        0.188      331.591       -0.298      854.594
12/06/2013  17:52:00     -155.294     -101.116        6.692      130.302       87.416       61.060    16978.664     7641.578     3728.335        3.136        1.417      185.312       66.584        0.129      331.592       -0.295      854.636
12/06/2013  17:53:00     -336.562       -3.064      -23.655      135.351      107.915       54.413    18319.805    11645.615     2960.741        7.338        1.646      336.575       60.210        0.032      331.601       -0.280      854.591
12/06/2013  17:54:00     -225.184      -79.450       -7.674      143.422      101.751       56.775    20569.922    10353.201     3223.365        4.561        1.707      238.789       69.750        0.085      331.608       -0.270      854.559
12/06/2013  17:55:00     -121.630      -43.975       -0.154       86.145       56.883       40.007     7421.043     3235.678     1600.566        1.449        0.613      129.336       45.143        0.122      331.617       -0.254      854.545
12/06/2013  17:56:00     -228.373     -118.674       -2.248      126.503      100.491       59.378    16003.050    10098.469     3525.785        4.793        1.481      257.367       53.672        0.043      331.626       -0.241      854.560
12/06/2013  17:57:00     -334.405     -132.330      -15.529      131.188       92.501       57.081    17210.298     8556.494     3258.240        7.930        1.451      359.636       49.443        0.019      331.610       -0.265      854.596
12/06/2013  17:58:00     -215.315      -97.213       -1.506      105.647      104.972       53.963    11161.343    11019.226     2911.967        4.045        1.255      236.244       55.068        0.054      331.629       -0.235      854.585
12/06/2013  17:59:00     -149.114     -100.620       -4.992       92.888       82.914       41.248     8628.195     6874.678     1701.403        2.479        0.860      179.887       46.647        0.067      331.639       -0.219      854.511
12/06/2013  18:00:00      -81.210      -34.227        2.632       59.379       43.075       28.077     3525.819     1855.476      788.300        0.697        0.308       88.128       25.774        0.086      331.623       -0.243      854.481
12/06/2013  18:01:00      -77.298     -100.292        9.873       98.519       78.069       38.123     9706.044     6094.783     1453.344        1.669        0.863      126.624       44.537        0.124      331.679       -0.150      854.564
12/06/2013  18:02:00     -107.996     -124.465      -13.770       82.172       76.520       38.735     6752.235     5855.336     1500.413        2.072        0.705      164.787       39.421        0.057      331.674       -0.160      854.599
12/06/2013  18:03:00      -31.887      -47.175       27.547       42.340       66.444       28.518     1792.711     4414.780      813.303        0.551        0.351       56.941       27.721        0.237      331.806        0.059      854.560
12/06/2013  18:04:00      -35.684      -30.602       13.503       53.449       48.841       31.182     2856.842     2385.463      972.332        0.430        0.311       47.008       27.269        0.336      331.771        0.001      854.515
12/06/2013  18:05:00      -98.835      -58.637       -9.759       67.862       75.642       39.264     4605.270     5721.682     1541.673        1.258        0.593      114.921       27.254        0.056      331.728       -0.068      854.538
12/06/2013  18:06:00      -37.342     -144.203        8.793       79.908       78.319       35.262     6385.232     6133.935     1243.395        1.801        0.688      148.960       36.158        0.059      331.793        0.038      854.566
12/06/2013  18:07:00      -98.703     -142.539        2.614       80.478      114.178       46.519     6476.743    13036.622     2164.029        2.587        1.084      173.377       46.694        0.073      331.695       -0.126      854.538
12/06/2013  18:08:00      -20.645      -31.558      -15.425       39.902       46.891       30.666     1592.136     2198.719      940.421        0.319        0.237       37.711       22.915        0.369      331.755       -0.024      854.495
12/06/2013  18:09:00       -4.160      -12.223       35.704       32.013       47.947       36.818     1024.829     2298.908     1355.539        0.306        0.234       12.911       17.073        1.748      331.793        0.037      854.459
12/06/2013  18:10:00      -58.459      -31.150       20.245       59.972       48.701       33.620     3596.607     2371.822     1130.283        0.595        0.355       66.241       27.082        0.167      331.913        0.233      854.527
12/06/2013  18:11:00     -153.413      -71.143        1.078       85.973       71.412       35.134     7391.367     5099.726     1234.397        2.116        0.686      169.106       32.136        0.036      331.769       -0.005      854.587
12/06/2013  18:12:00      -96.225      -68.880       -5.188       53.456       43.684       26.053     2857.534     1908.260      678.780        0.974        0.272      118.337       27.653        0.055      331.722       -0.078      854.598
12/06/2013  18:13:00      -86.606     -139.812       -7.065       66.794       54.210       31.396     4461.502     2938.710      985.707        1.774        0.419      164.463       16.832        0.010      331.724       -0.078      854.577
12/06/2013  18:14:00      -19.715      -74.104       -3.817       56.544       34.959       28.861     3197.221     1222.137      832.979        0.557        0.263       76.682       21.182        0.076      331.718       -0.084      854.565
12/06/2013  18:15:00     -125.953      -26.338      -11.571       79.632       54.749       34.595     6341.215     2997.433     1196.794        1.361        0.527      128.677       41.052        0.102      331.702       -0.114      854.604
12/06/2013  18:16:00     -206.953     -151.864       -2.671       95.504       94.387       57.963     9120.940     8908.812     3359.681        4.364        1.069      256.694       50.609        0.039      331.676       -0.158      854.630
12/06/2013  18:17:00     -177.548     -132.893       -8.841      112.785       83.502       54.367    12720.369     6972.537     2955.803        3.595        1.132      221.774       58.591        0.070      331.641       -0.215      854.665
12/06/2013  18:18:00     -222.493     -113.827      -11.842       98.556       40.290       35.857     9713.220     1623.296     1285.755        3.761        0.631      249.920       39.601        0.025      331.597       -0.286      854.647
12/06/2013  18:19:00     -102.036      -53.174       -1.203       62.663       48.922       26.072     3926.685     2393.356      679.737        1.012        0.350      115.060       12.970        0.013      331.642       -0.210      854.558
12/06/2013  18:20:00      -44.708     -120.999        3.375       56.057       73.483       34.974     3142.410     5399.760     1223.208        1.321        0.488      128.994       38.317        0.088      331.663       -0.178      854.519
12/06/2013  18:21:00     -126.537     -132.919       -9.491       64.884       50.264       35.199     4209.880     2526.495     1238.999        2.087        0.399      183.519       32.402        0.031      331.685       -0.140      854.567
12/06/2013  18:22:00     -125.794     -113.667       -2.970       76.048       62.713       39.152     5783.368     3932.932     1532.885        2.000        0.562      169.542       35.330        0.043      331.668       -0.168      854.598
12/06/2013  18:23:00     -137.531      -56.935        4.798       60.487       64.047       37.899     3658.699     4102.046     1436.315        1.569        0.460      148.850       35.060        0.055      331.630       -0.231      854.600
12/06/2013  18:24:00     -114.256      -99.210       -7.819       41.438       44.756       30.121     1717.072     2003.058      907.252        1.379        0.231      151.318       22.378        0.022      331.719       -0.085      854.589
12/06/2013  18:25:00      -98.635     -102.725        5.070       74.276       68.335       38.170     5516.950     4669.655     1456.946        1.597        0.582      142.412       40.757        0.082      331.690       -0.133      854.562
12/06/2013  18:26:00      -50.862      -82.518        1.054       57.433       51.014       25.392     3298.592     2602.407      644.739        0.797        0.327       96.934       25.410        0.069      331.694       -0.125      854.535
12/06/2013  18:27:00      -37.603     -113.479        2.763       78.002       72.746       45.423     6084.318     5292.036     2063.255        1.387        0.672      119.547       32.504        0.074      331.704       -0.110      854.483
12/06/2013  18:28:00     -132.375      -83.039       -1.187      106.992       54.148       48.780    11447.363     2932.034     2379.527        2.059        0.838      156.264       58.210        0.139      331.631       -0.230      854.428
12/06/2013  18:29:00     -185.805     -105.604       -7.930       69.584       48.435       33.071     4841.990     2345.908     1093.668        2.701        0.414      213.719       30.139        0.020      331.631       -0.234      854.395
12/06/2013  18:30:00     -136.917      -98.039        2.535       77.617       52.448       41.142     6024.359     2750.825     1692.641        1.941        0.523      168.398       43.963        0.068      331.642       -0.212      854.375
12/06/2013  18:31:00     -154.115     -113.316        0.129       74.041       45.795       39.064     5482.143     2097.182     1525.983        2.285        0.455      191.291       36.080        0.036      331.621       -0.250      854.360
12/06/2013  18:32:00      -87.918      -96.813        2.282       66.503       60.005       36.288     4422.631     3600.565     1316.811        1.322        0.467      130.776       22.565        0.030      331.700       -0.114      854.336
12/06/2013  18:33:00      -86.084      -88.096       11.024       71.767       79.930       34.633     5150.462     6388.735     1199.424        1.401        0.637      123.172       25.170        0.042      331.706       -0.107      854.344
12/06/2013  18:34:00      -66.338     -173.467       -6.245       54.712       73.472       33.281     2993.359     5398.089     1107.632        2.201        0.475      185.719       24.697        0.018      331.723       -0.080      854.343
12/06/2013  18:35:00      -98.204      -32.701        2.332       55.999       34.807       25.629     3135.843     1211.513      656.850        0.786        0.250      103.506       27.620        0.071      331.617       -0.251      854.304
12/06/2013  18:36:00      -36.120       -5.939       15.425       46.829       29.217       22.165     2192.974      853.652      491.302        0.256        0.177       36.605       20.305        0.308      331.619       -0.248      854.272
12/06/2013  18:37:00      -13.654      -87.079       -3.850       32.621       36.742       17.999     1064.129     1349.942      323.966        0.526        0.137       88.143        8.726        0.010      331.673       -0.159      854.266
12/06/2013  18:38:00      -48.105      -51.014       -0.538       43.838       19.271       17.988     1921.745      371.366      323.560        0.377        0.131       70.118       12.592        0.032      331.723       -0.078      854.252
12/06/2013  18:39:00      -60.805      -68.578        0.151       37.208       37.268       25.716     1384.469     1388.908      661.335        0.592        0.172       91.653       21.390        0.054      331.703       -0.108      854.257
12/06/2013  18:40:00     -108.498      -51.786       -1.277       69.365       46.460       29.346     4811.563     2158.544      861.176        1.114        0.392      120.223       29.805        0.061      331.650       -0.198      854.273
12/06/2013  18:41:00      -93.343      -43.121       -6.816       31.864       32.362       10.342     1015.317     1047.282      106.964        0.639        0.108      102.822       10.193        0.010      331.621       -0.245      854.260
12/06/2013  18:42:00      -33.500      -41.553        5.338       14.320       18.486       10.519      205.068      341.744      110.639        0.177        0.033       53.375        6.979        0.017      331.644       -0.209      854.228
12/06/2013  18:43:00      -65.931      -53.064       -1.570       36.886       34.111       14.666     1360.579     1163.585      215.084        0.495        0.137       84.632       15.824        0.035      331.633       -0.226      854.208
12/06/2013  18:44:00      -90.303      -76.804       -9.519       31.448       26.736       13.530      988.956      714.797      183.051        0.802        0.094      118.548        7.696        0.004      331.610       -0.263      854.220
12/06/2013  18:45:00      -75.636      -84.656        9.839       69.444       73.305       36.241     4822.462     5373.565     1313.398        1.224        0.575      113.523       39.260        0.120      331.599       -0.283      854.231
12/06/2013  18:46:00     -108.023      -96.301        6.306       77.126       50.803       37.524     5948.493     2580.990     1408.029        1.546        0.497      144.717       35.857        0.061      331.586       -0.304      854.179
12/06/2013  18:47:00      -90.591      -64.431      -11.061       39.264       22.081       18.647     1541.641      487.571      347.726        0.743        0.119      111.167        3.013        0.001      331.561       -0.342      854.066
12/06/2013  18:48:00      -76.515     -139.167       -1.667       47.151       54.757       24.086     2223.213     2998.319      580.115        1.551        0.290      158.814       19.946        0.016      331.550       -0.364      854.060
12/06/2013  18:49:00      -64.477      -84.988        0.451       42.403       48.343       27.991     1798.041     2337.081      783.483        0.815        0.246      106.679       18.624        0.030      331.591       -0.295      854.067
12/06/2013  18:50:00      -65.568      -65.120       -3.030       63.381       65.616       24.540     4017.213     4305.509      602.235        0.874        0.446       92.411       36.000        0.152      331.518       -0.416      854.030
12/06/2013  18:51:00      -44.250      -53.908       13.520       36.668       63.598       23.457     1344.510     4044.726      550.243        0.549        0.297       69.743       30.953        0.197      331.554       -0.357      853.980
12/06/2013  18:52:00     -162.623     -105.022      -11.163       66.805       55.800       35.175     4462.958     3113.646     1237.283        2.321        0.441      193.587       37.222        0.037      331.515       -0.423      854.011
12/06/2013  18:53:00     -222.533      -71.100      -20.149       82.151       99.877       35.482     6748.768     9975.483     1258.938        3.648        0.899      233.616       26.491        0.013      331.391       -0.627      853.986
12/06/2013  18:54:00      -43.844      -87.062       15.509       39.310       72.466       31.344     1545.275     5251.346      982.444        0.876        0.389       97.479       35.698        0.134      331.507       -0.435      853.923
12/06/2013  18:55:00     -172.089      -85.436       -7.701      108.095       97.268       57.748    11684.570     9461.042     3334.889        3.072        1.224      192.130       46.156        0.058      331.483       -0.475      853.882
12/06/2013  18:56:00     -104.484      -72.301       -7.355       80.001       52.173       32.676     6400.081     2722.023     1067.706        1.319        0.509      127.060       23.232        0.033      331.467       -0.498      853.808
12/06/2013  18:57:00       27.161       14.423       42.314       47.228       71.256       42.655     2230.504     5077.416     1819.485        0.593        0.456       30.753       33.440        1.182      331.455       -0.521      853.740
12/06/2013  18:58:00       15.843       -2.055       34.626       34.620       56.944       44.794     1198.562     3242.662     2006.466        0.395        0.322       15.975       32.230        4.070      331.427       -0.564      853.740
12/06/2013  18:59:00      -14.296      -86.445      -12.754       40.921       37.627       33.161     1674.564     1415.765     1099.633        0.601        0.209       87.619       22.392        0.065      331.589       -0.299      853.802
12/06/2013  19:00:00      -30.837      -73.834      -21.190       48.076       27.884       22.174     2311.324      777.534      491.683        0.522        0.179       80.015       11.500        0.021      331.582       -0.309      853.816
12/06/2013  19:01:00       -5.450      -24.502        5.122       39.132       28.359       16.391     1531.284      804.245      268.663        0.163        0.130       25.101        7.756        0.095      331.530       -0.397      853.825
12/06/2013  19:02:00      -29.155     -106.857       14.116       50.628       73.779       31.615     2563.234     5443.283      999.519        1.074        0.450      110.763       31.225        0.079      331.490       -0.461      853.857
12/06/2013  19:03:00      -35.435       -6.178       16.914       54.400       31.637       21.957     2959.393     1000.911      482.124        0.301        0.222       35.969       25.528        0.504      331.352       -0.687      853.864
12/06/2013  19:04:00        9.971       36.375       20.360       22.756       14.955       24.116      517.849      223.645      581.569        0.158        0.066       37.716       16.452        0.190      331.455       -0.520      853.822
12/06/2013  19:05:00       -2.492       11.101       42.024       37.924       52.685       50.235     1438.208     2775.716     2523.511        0.432        0.337       11.378       45.248       15.816      331.424       -0.570      853.784
12/06/2013  19:06:00      -11.481       65.213      110.207       30.965       81.478       51.915      958.821     6638.585     2695.123        1.341        0.515       66.216       59.083        0.796      331.447       -0.533      853.777
12/06/2013  19:07:00       29.953     -113.733      -18.646       72.645       46.527       36.164     5277.312     2164.755     1307.831        1.146        0.437      117.612       27.344        0.054      331.526       -0.403      853.796
12/06/2013  19:08:00       40.362      -77.245        0.649       51.688       60.526       27.224     2671.644     3663.389      741.126        0.733        0.354       87.154       30.403        0.122      331.605       -0.272      853.842
12/06/2013  19:09:00      -60.122      -26.742       -2.479       39.846       28.990       15.079     1587.686      840.422      227.386        0.350        0.133       65.801        9.937        0.023      331.586       -0.303      853.888
12/06/2013  19:10:00      -42.697      -41.144        7.029       45.086       38.243       17.832     2032.757     1462.538      317.975        0.369        0.191       59.295       20.532        0.120      331.536       -0.385      853.893
12/06/2013  19:11:00      -13.297      -26.644      -17.555       21.260       37.507       17.217      451.984     1406.785      296.425        0.167        0.108       29.778        2.814        0.009      331.527       -0.400      853.869
12/06/2013  19:12:00        9.140        3.205       19.611       21.106       42.711       23.633      445.469     1824.251      558.512        0.165        0.141        9.686       25.303        6.824      331.538       -0.383      853.854
12/06/2013  19:13:00       -4.180        7.053       39.749       21.106       35.433       23.042      445.464     1255.501      530.936        0.194        0.112        8.199       22.262        7.372      331.533       -0.391      853.842
12/06/2013  19:14:00      -52.306       10.627       13.875       49.360       38.374       23.047     2436.366     1472.573      531.155        0.374        0.222       53.375       23.636        0.196      331.448       -0.532      853.896
12/06/2013  19:15:00     -102.420       -6.012       -1.569       56.115       52.944       22.104     3148.908     2803.028      488.604        0.848        0.322      102.596       25.502        0.062      331.431       -0.557      853.850
12/06/2013  19:16:00       60.697       85.931       -0.343       51.974       73.146       36.263     2701.271     5350.342     1315.030        1.022        0.468      105.205       43.092        0.168      331.427       -0.565      853.678
12/06/2013  19:17:00      136.106       73.561       12.030       39.501       32.389       33.006     1560.295     1049.079     1089.365        1.389        0.185      154.713       18.633        0.015      331.440       -0.545      853.571
12/06/2013  19:18:00       70.266       68.415       -0.308       59.156       44.918       26.611     3499.386     2017.648      708.144        0.792        0.311       98.071       19.478        0.039      331.400       -0.608      853.585
12/06/2013  19:19:00      -34.975       78.785      -21.391       31.858       31.920       15.550     1014.911     1018.863      241.813        0.508        0.114       86.199       11.098        0.017      331.413       -0.588      853.643
12/06/2013  19:20:00     -133.162       72.031      -24.007       32.541       30.223       20.340     1058.920      913.409      413.727        1.294        0.119      151.396       14.155        0.009      331.432       -0.558      853.701
12/06/2013  19:21:00     -113.787       19.599       -6.871       37.754       36.225       22.349     1425.330     1312.225      499.488        0.831        0.162      115.463       14.884        0.017      331.364       -0.667      853.658
12/06/2013  19:22:00      -82.765      -22.672       -2.817       36.395       31.241       19.922     1324.629      975.973      396.877        0.503        0.135       85.815        8.906        0.011      331.390       -0.626      853.622
12/06/2013  19:23:00      -31.236      -30.642       -1.072       20.522       21.999       15.768      421.153      483.972      248.630        0.153        0.058       43.757       11.337        0.067      331.536       -0.387      853.635
12/06/2013  19:24:00      -40.802      -14.637        3.872       33.686       19.279       13.457     1134.723      371.677      181.101        0.179        0.084       43.348       13.610        0.099      331.458       -0.514      853.600
12/06/2013  19:25:00      -39.956      -35.982       -7.637       18.132       16.638       11.018      328.787      276.807      121.387        0.184        0.036       53.770        8.591        0.026      331.485       -0.471      853.551
12/06/2013  19:26:00      -23.389      -53.859        4.765       30.129       41.449       20.285      907.748     1717.984      411.485        0.325        0.152       58.718       18.481        0.099      331.511       -0.427      853.519
12/06/2013  19:27:00       -3.075      -70.246       -6.025       20.025       25.580       12.918      400.996      654.327      166.874        0.310        0.061       70.313        7.094        0.010      331.554       -0.356      853.499
12/06/2013  19:28:00        8.367        8.574        4.426       28.150       15.363       15.195      792.406      236.027      230.885        0.071        0.063       11.980       17.952        2.245      331.504       -0.438      853.469
12/06/2013  19:29:00       12.862       13.808       12.378       16.541        9.409        6.572      273.618       88.521       43.186        0.046        0.020       18.871        1.506        0.006      331.473       -0.491      853.445
12/06/2013  19:30:00       -7.359      -20.326       13.426       26.805       33.571       16.431      718.500     1127.039      269.979        0.138        0.106       21.617       10.566        0.239      331.563       -0.341      853.465
12/06/2013  19:31:00      -44.254      -74.503      -18.024       36.498       28.492       27.329     1332.078      811.769      746.848        0.536        0.145       86.656       14.291        0.027      331.643       -0.209      853.484
12/06/2013  19:32:00        1.096      -17.075       16.563       40.088       25.425       20.334     1607.040      646.408      413.457        0.162        0.133       17.110       23.204        1.839      331.609       -0.266      853.471
12/06/2013  19:33:00      -20.234      -31.715       -0.738       24.063       24.668       14.474      579.016      608.523      209.498        0.141        0.070       37.620       13.401        0.127      331.482       -0.476      853.406
12/06/2013  19:34:00      -24.452       14.497       36.864       19.554       22.740       17.262      382.357      517.116      297.962        0.168        0.060       28.427       14.509        0.261      331.475       -0.487      853.343
12/06/2013  19:35:00      -56.339        2.013        2.653       31.340       20.389       16.343      982.204      415.728      267.090        0.242        0.083       56.375       17.469        0.096      331.591       -0.295      853.318
12/06/2013  19:36:00      -27.061      -48.261       -6.067       27.562       33.233       26.069      759.690     1104.465      679.567        0.282        0.127       55.330       11.217        0.041      331.686       -0.139      853.287
12/06/2013  19:37:00      -51.973      -82.457       -2.250       38.521       48.680       26.432     1483.852     2369.784      698.633        0.703        0.228       97.470       18.554        0.036      331.589       -0.298      853.264
12/06/2013  19:38:00     -117.490      -75.328       -9.200       52.697       45.640       23.251     2776.957     2082.988      540.598        1.248        0.270      139.564       19.659        0.020      331.519       -0.413      853.249
12/06/2013  19:39:00      -98.775      -81.514       -9.709       43.361       33.581       28.661     1880.148     1127.662      821.445        1.016        0.191      128.066       23.956        0.035      331.528       -0.399      853.200
12/06/2013  19:40:00      -70.434     -144.716       -9.109       40.021       65.411       23.604     1601.643     4278.661      557.138        1.621        0.322      160.946       15.924        0.010      331.532       -0.393      853.168
12/06/2013  19:41:00      -60.017      -87.801       -1.901       35.732       35.835       25.634     1276.802     1284.128      657.114        0.727        0.161      106.354       23.630        0.049      331.530       -0.397      853.201
12/06/2013  19:42:00      -89.861      -76.006       -1.967       43.588       28.615       21.403     1899.934      818.793      458.091        0.852        0.159      117.694       19.876        0.029      331.526       -0.401      853.212
12/06/2013  19:43:00      -90.040      -76.409       -8.905       43.482       59.991       20.830     1890.662     3598.927      433.869        0.997        0.296      118.092       27.181        0.053      331.495       -0.453      853.170
12/06/2013  19:44:00      -37.373      -23.754        1.940       22.557       26.488       19.705      508.829      701.591      388.271        0.178        0.080       44.283       13.168        0.088      331.481       -0.476      853.118
12/06/2013  19:45:00      -16.555      -23.389        2.182       30.544       21.083       17.720      932.920      444.479      314.007        0.126        0.085       28.655       12.116        0.179      331.554       -0.356      853.086
12/06/2013  19:46:00      -46.307      -20.589        0.719       50.451       31.800       21.971     2545.265     1011.229      482.723        0.330        0.202       50.678       21.566        0.181      331.544       -0.373      853.080
12/06/2013  19:47:00      -75.304      -69.352        5.583       58.451       54.231       31.080     3416.519     2941.042      965.938        0.892        0.366      102.373       31.626        0.095      331.509       -0.430      853.127
12/06/2013  19:48:00      -82.903     -126.096        0.751       57.559       67.070       37.181     3313.030     4498.433     1382.424        1.598        0.460      150.907       36.017        0.057      331.537       -0.385      853.209
12/06/2013  19:49:00      -99.224      -77.588       -0.438       67.291       46.307       35.245     4528.110     2144.323     1242.188        1.189        0.396      125.957       26.667        0.045      331.518       -0.415      853.222
12/06/2013  19:50:00      -74.775     -100.958        4.120      101.518       50.943       32.402    10305.910     2595.217     1049.904        1.487        0.698      125.634       37.492        0.089      331.550       -0.363      853.162
12/06/2013  19:51:00     -106.534      -24.189       -2.473       58.029       63.266       27.003     3367.348     4002.598      729.161        1.002        0.405      109.246       28.101        0.066      331.523       -0.406      853.083
12/06/2013  19:52:00     -137.781      -32.123        1.437       86.834       58.310       32.243     7540.109     3400.079     1039.606        1.600        0.599      141.476       29.068        0.042      331.542       -0.378      853.129
12/06/2013  19:53:00     -158.622     -108.340        1.391       90.357       60.756       41.865     8164.317     3691.280     1752.712        2.525        0.680      192.090       39.599        0.042      331.612       -0.263      853.209
12/06/2013  19:54:00     -180.627     -112.785       -3.183       85.339       52.133       40.254     7282.801     2717.878     1620.356        2.849        0.581      212.948       41.298        0.038      331.613       -0.262      853.167
12/06/2013  19:55:00     -107.766     -164.534      -22.111       44.515       46.334       28.646     1981.545     2146.798      820.579        2.206        0.247      196.685       11.432        0.003      331.601       -0.279      853.115
12/06/2013  19:56:00      -62.869      -57.184        5.328       52.045       45.520       32.021     2708.683     2072.067     1025.340        0.653        0.290       84.985       30.138        0.126      331.637       -0.220      853.126
12/06/2013  19:57:00     -159.230     -153.511       -1.250       80.187       79.315       39.100     6429.955     6290.811     1528.795        3.158        0.712      221.178       35.347        0.026      331.614       -0.260      853.128
12/06/2013  19:58:00      -74.911      -13.791        8.095       68.269       57.986       34.810     4660.631     3362.356     1211.735        0.755        0.462       76.170       29.572        0.151      331.663       -0.177      853.055
12/06/2013  19:59:00      -83.006      -34.002        1.051       37.645       45.792       23.402     1417.143     2096.907      547.648        0.605        0.203       89.700       14.772        0.027      331.616       -0.253      853.018
12/06/2013  20:00:00      -17.659      -25.353        2.887       42.659       28.664       23.423     1819.763      821.604      548.655        0.208        0.160       30.897       21.428        0.481      331.604       -0.274      853.000
12/06/2013  20:01:00      -17.366      -17.151        6.531       34.429       24.721       25.766     1185.362      611.131      663.898        0.155        0.123       24.408       24.209        0.984      331.638       -0.218      852.985
12/06/2013  20:02:00       92.266      -80.504       20.256       93.785       91.241       57.216     8795.621     8324.851     3273.693        1.790        1.020      122.450       71.501        0.341      331.619       -0.250      852.937
12/06/2013  20:03:00      -44.041      -89.569        6.735       47.993       46.703       38.702     2303.337     2181.141     1497.846        0.799        0.299       99.811       16.698        0.028      331.686       -0.138      852.893
12/06/2013  20:04:00       -2.558      -37.137        6.886       34.059       40.326       31.099     1159.988     1626.203      967.143        0.259        0.188       37.225       22.863        0.377      331.689       -0.131      852.908
12/06/2013  20:05:00      -21.365      -19.981       10.108       40.701       31.119       22.292     1656.588      968.381      496.937        0.204        0.156       29.253       14.223        0.236      331.633       -0.224      852.925
12/06/2013  20:06:00      -21.827      -22.253        5.924       45.384       29.618       26.053     2059.726      877.217      678.753        0.231        0.181       31.170       25.776        0.684      331.641       -0.212      852.931
12/06/2013  20:07:00      -13.545      -12.490       12.591       47.004       32.352       27.908     2209.382     1046.671      778.839        0.227        0.202       18.425       24.946        1.833      331.649       -0.198      852.915
12/06/2013  20:08:00       34.276      -32.704        8.252       84.797       62.824       35.061     7190.535     3946.793     1229.278        0.734        0.618       47.375       44.912        0.899      331.636       -0.221      852.827
12/06/2013  20:09:00       -1.468       14.014       85.582       52.581       61.061       51.754     2764.813     3728.465     2678.458        0.835        0.459       14.091       45.049       10.221      331.609       -0.265      852.743
12/06/2013  20:10:00       72.250      -80.374        7.350       44.437       44.060       28.535     1974.620     1941.293      814.232        0.823        0.237      108.074       21.933        0.041      331.706       -0.106      852.747
12/06/2013  20:11:00       43.119       -2.638       54.977       43.020       53.160       36.933     1850.714     2825.972     1364.069        0.546        0.302       43.200       33.905        0.616      331.624       -0.242      852.740
12/06/2013  20:12:00      -20.550      -87.046       -4.712       54.319       46.376       28.809     2950.557     2150.746      829.976        0.698        0.297       89.439       23.640        0.070      331.721       -0.081      852.811
12/06/2013  20:13:00      -34.487      -45.158       18.478       70.095       81.130       45.457     4913.308     6582.023     2066.353        0.856        0.678       56.821       54.964        0.936      331.810        0.065      852.881
12/06/2013  20:14:00       26.445      -76.045       12.049       75.317       52.866       33.493     5672.634     2794.842     1121.807        0.811        0.479       80.512       15.409        0.037      331.697       -0.120      852.904
12/06/2013  20:15:00      -21.393      -28.444       -5.923       29.765       30.518       21.861      885.956      931.374      477.882        0.180        0.115       35.591       17.777        0.249      331.733       -0.061      852.896
12/06/2013  20:16:00      -17.083      -23.329        7.610       19.260       35.214       18.772      370.945     1240.044      352.372        0.143        0.098       28.915       16.863        0.340      331.755       -0.027      852.889
12/06/2013  20:17:00      -36.619      -35.386       15.505       31.966       41.946       33.990     1021.845     1759.427     1155.315        0.338        0.197       50.923       25.723        0.255      331.839        0.113      852.900
12/06/2013  20:18:00       -7.716      -69.140        8.985       60.499       90.272       53.415     3660.157     8149.025     2853.185        0.979        0.733       69.569       50.923        0.536      331.768       -0.005      852.905
12/06/2013  20:19:00      -40.364     -228.301      -11.515       64.328       80.632       38.384     4138.114     6501.534     1473.347        3.300        0.606      231.842       30.483        0.017      331.645       -0.210      852.917
12/06/2013  20:20:00        7.004      -47.703        4.545       50.989       44.331       38.428     2599.921     1965.278     1476.742        0.419        0.302       48.214       29.772        0.381      331.674       -0.158      852.869
12/06/2013  20:21:00      122.383     -146.165       -6.417       89.070      132.321       58.987     7933.545    17508.757     3479.466        3.265        1.446      190.636       80.075        0.176      331.535       -0.390      852.852
12/06/2013  20:22:00       18.891      -67.875       53.762       73.700       81.848       61.225     5431.699     6699.125     3748.498        1.186        0.794       70.455       46.147        0.429      331.521       -0.412      852.832
12/06/2013  20:23:00      116.901     -156.429      -30.570       77.612       60.968       46.593     6023.669     3717.066     2170.916        2.549        0.596      195.284       30.269        0.024      331.544       -0.375      852.811
12/06/2013  20:24:00      -18.826      -79.178        3.521       71.610       63.279       37.275     5127.987     4004.292     1389.413        0.858        0.526       81.385       20.841        0.066      331.686       -0.138      852.817
12/06/2013  20:25:00       29.486      -73.006       12.615      102.178       65.532       50.532    10440.413     4294.401     2553.497        1.182        0.864       78.736       37.868        0.231      331.701       -0.115      852.835
12/06/2013  20:26:00      -24.992      -18.680       44.171       75.791       85.259       51.615     5744.224     7269.097     2664.159        0.930        0.784       31.202       59.740        3.666      331.587       -0.302      852.842
12/06/2013  20:27:00      -54.054      -55.805       -3.328       57.687       79.190       46.007     3327.766     6271.065     2116.686        0.888        0.586       77.692       40.887        0.277      331.592       -0.294      852.885
12/06/2013  20:28:00      -74.605      -61.344       -6.854       51.943       39.435       23.899     2698.053     1555.093      571.164        0.710        0.241       96.587       13.764        0.020      331.502       -0.443      852.874
12/06/2013  20:29:00      -34.107      -10.181       16.065       25.976       45.389       33.941      674.772     2060.163     1152.007        0.271        0.194       35.594       33.803        0.902      331.579       -0.314      852.840
12/06/2013  20:30:00       59.021      -25.492       36.744      107.818      120.971       72.470    11624.643    14633.869     5251.856        1.849        1.576       64.291       68.069        1.121      331.463       -0.507      852.783
12/06/2013  20:31:00      104.862     -133.159        9.024       79.543      114.142       73.845     6327.140    13028.437     5453.100        2.680        1.240      169.492       77.726        0.210      331.428       -0.566      852.766
12/06/2013  20:32:00      -23.072      -81.767       -3.104       75.805       54.316       42.712     5746.472     2950.277     1824.346        0.887        0.526       84.960       30.744        0.131      331.547       -0.368      852.800
12/06/2013  20:33:00      -62.291     -208.552       -4.749       87.167       81.025       54.892     7598.141     6565.042     3013.162        3.228        0.859      217.656       19.503        0.008      331.685       -0.144      852.765
12/06/2013  20:34:00       27.755     -143.296      -16.522       92.193       75.510       43.371     8499.616     5701.826     1881.044        1.883        0.804      145.959       37.326        0.065      331.692       -0.129      852.667
12/06/2013  20:35:00       74.912      -46.397       31.271      104.284      114.887       69.238    10875.097    13198.955     4793.832        1.880        1.443       88.117       80.172        0.828      331.552       -0.360      852.586
12/06/2013  20:36:00       69.291       25.782       66.452       50.980       68.497       46.628     2599.011     4691.789     2174.186        0.967        0.473       73.932       42.107        0.324      331.335       -0.716      852.515
12/06/2013  20:37:00       31.505       23.002       45.462       43.810       41.666       32.916     1919.341     1736.068     1083.452        0.416        0.237       39.009       28.816        0.546      331.397       -0.615      852.506
12/06/2013  20:38:00       18.469       -2.283       37.868       37.739       51.258       37.296     1424.194     2627.365     1390.959        0.361        0.272       18.610       32.449        3.040      331.490       -0.461      852.542
12/06/2013  20:39:00       44.869      -12.606       42.092       60.342       64.850       41.149     3641.189     4205.587     1693.205        0.674        0.477       46.607       45.459        0.951      331.436       -0.551      852.528
12/06/2013  20:40:00       90.799       93.968      109.707       74.327       59.844       47.977     5524.559     3581.278     2301.764        2.026        0.570      130.670       38.956        0.089      331.324       -0.735      852.490
12/06/2013  20:41:00       68.458       29.916       71.080       70.632       95.506       59.222     4988.832     9121.351     3507.285        1.412        0.881       74.709       67.363        0.813      331.306       -0.765      852.489
12/06/2013  20:42:00       90.598     -116.402       14.146      100.731      135.950       77.802    10146.655    18482.320     6053.124        2.831        1.734      147.504       91.960        0.389      331.348       -0.697      852.489
12/06/2013  20:43:00      -19.313      -56.277       51.534       57.920       57.127       50.016     3354.784     3263.458     2501.634        0.766        0.456       59.499       26.774        0.202      331.445       -0.535      852.477
12/06/2013  20:44:00       69.976      -56.297       20.273       66.314       77.877       52.613     4397.591     6064.750     2768.125        1.085        0.662       89.811       49.526        0.304      331.339       -0.710      852.406
12/06/2013  20:45:00      120.822     -198.648        6.277       75.888       95.289       48.768     5758.992     9080.032     2378.354        3.565        0.861      232.506       39.868        0.029      331.412       -0.592      852.333
12/06/2013  20:46:00      112.242       59.564      111.347      119.485      128.227       85.977    14276.656    16442.045     7392.036        3.332        1.906      127.067       91.011        0.513      331.284       -0.804      852.253
12/06/2013  20:47:00      105.145      -50.828       13.006      107.008       74.282       48.290    11450.689     5517.761     2331.895        1.655        0.965      116.786       34.899        0.089      331.244       -0.868      852.202
12/06/2013  20:48:00      121.723        1.628       48.795      104.615       89.089       68.506    10944.195     7936.763     4693.094        2.038        1.179      121.734       58.246        0.229      331.163       -0.999      852.144
12/06/2013  20:49:00      117.677      105.559      111.147      106.662      111.520       93.532    11376.719    12436.794     8748.312        3.495        1.628      158.084       81.488        0.266      331.109       -1.091      852.087
12/06/2013  20:50:00       42.149       -5.044       70.839       76.108      125.701       73.432     5792.416    15800.812     5392.201        1.690        1.349       42.450       96.647        5.184      331.151       -1.020      852.161
12/06/2013  20:51:00      126.896     -170.263      -33.378      118.771       97.532       61.577    14106.617     9512.537     3791.753        3.680        1.371      212.349       70.152        0.109      331.147       -1.027      852.219
12/06/2013  20:52:00        5.368      -75.815       -8.882       68.878       98.975       45.023     4744.210     9796.076     2027.088        1.121        0.828       76.004       49.079        0.417      331.310       -0.757      852.235
12/06/2013  20:53:00       91.409      -69.801        9.672       57.115       70.148       44.305     3262.082     4920.786     1962.933        1.173        0.507      115.012       52.175        0.206      331.192       -0.951      852.247
12/06/2013  20:54:00       39.379      -19.206       34.503       59.026       78.090       48.931     3484.033     6098.033     2394.273        0.754        0.599       43.813       56.871        1.685      331.222       -0.902      852.242
12/06/2013  20:55:00        6.185      -48.304        3.020       87.222       85.266       53.684     7607.734     7270.225     2882.008        1.007        0.888       48.698       46.548        0.914      331.285       -0.799      852.201
12/06/2013  20:56:00       54.790      -45.924       20.065       73.554       89.043       77.263     5410.227     7928.584     5969.559        1.241        0.965       71.491       63.075        0.778      331.215       -0.915      852.136
12/06/2013  20:57:00       93.135     -181.216       -7.378       41.465       56.205       36.426     1719.348     3159.055     1326.886        2.389        0.310      203.748       32.628        0.026      331.313       -0.755      852.153
12/06/2013  20:58:00       33.513      -25.974       33.042       44.362       64.483       37.389     1968.014     4158.075     1397.971        0.521        0.376       42.401       39.929        0.887      331.336       -0.714      852.185
12/06/2013  20:59:00        4.605        3.825       30.120       35.757       30.919       27.937     1278.562      955.974      780.457        0.198        0.151        5.986       21.613       13.034      331.354       -0.685      852.210
12/06/2013  21:00:00      -11.544       53.021       91.247       37.113       53.145       37.534     1377.379     2824.361     1408.799        0.844        0.281       54.263       36.304        0.448      331.275       -0.814      852.212
12/06/2013  21:01:00        5.840       12.251       33.853       29.121       28.445       23.202      848.030      809.120      538.345        0.176        0.110       13.572       17.985        1.756      331.324       -0.733      852.196
12/06/2013  21:02:00       49.170     -136.949       -6.565       64.967      120.242       48.842     4220.718    14458.115     2385.531        2.114        1.053      145.508       54.441        0.140      331.418       -0.582      852.168
12/06/2013  21:03:00       -9.778      -69.843       -0.350       68.101       50.671       33.313     4637.772     2567.563     1109.751        0.664        0.416       70.524       27.112        0.148      331.429       -0.563      852.208
12/06/2013  21:04:00       25.050      -37.742      -10.489       41.743       49.931       27.312     1742.459     2493.068      745.972        0.357        0.249       45.299       13.929        0.095      331.494       -0.456      852.250
12/06/2013  21:05:00        2.221      -74.253       -2.543       43.375       48.597       28.776     1881.409     2361.701      828.043        0.530        0.254       74.287       24.563        0.109      331.517       -0.417      852.250
12/06/2013  21:06:00       59.464      -73.763       -2.131       65.979       74.862       27.299     4353.208     5604.272      745.254        0.984        0.535       94.747       38.721        0.167      331.484       -0.471      852.176
12/06/2013  21:07:00       75.532      -86.862       30.269       65.837       96.145       55.507     4334.526     9243.923     3081.013        1.541        0.833      115.109       57.926        0.253      331.425       -0.571      852.109
12/06/2013  21:08:00       57.892      -66.376       10.491       63.038      103.217       56.411     3973.804    10653.686     3182.179        1.283        0.890       88.075       66.990        0.579      331.505       -0.437      852.101
12/06/2013  21:09:00       18.968      -79.879       12.618       93.557       99.082       65.583     8752.981     9817.241     4301.069        1.488        1.144       82.100       61.023        0.552      331.508       -0.433      852.112
12/06/2013  21:10:00      -11.900     -128.456       -3.751       84.274       85.015       58.493     7102.148     7227.592     3421.403        1.720        0.888      129.006       39.985        0.096      331.529       -0.398      852.071
12/06/2013  21:11:00       55.119      -25.190       43.539       69.815      116.334       59.665     4874.153    13533.531     3559.948        1.376        1.098       60.602       67.415        1.237      331.419       -0.578      851.978
12/06/2013  21:12:00       83.150     -134.996       12.391      100.846       87.153       70.189    10169.947     7595.639     4926.494        2.399        1.135      158.549       60.469        0.145      331.368       -0.664      851.951
12/06/2013  21:13:00      112.836     -119.175      -29.124       69.314       97.920       43.336     4804.400     9588.344     1877.967        2.202        0.814      164.118       45.854        0.078      331.413       -0.589      851.995
12/06/2013  21:14:00      -21.797       -1.974       60.653       30.985       43.821       32.895      960.042     1920.281     1082.096        0.406        0.198       21.886       30.200        1.904      331.446       -0.535      851.972
12/06/2013  21:15:00        5.979      -11.729       24.289       34.489       46.637       32.839     1189.475     2175.001     1078.390        0.260        0.222       13.165       27.116        4.242      331.448       -0.531      851.931
12/06/2013  21:16:00       28.203      -12.108       38.552       81.216       69.048       41.957     6596.097     4767.568     1760.404        0.777        0.656       30.692       52.224        2.895      331.334       -0.718      851.889
12/06/2013  21:17:00      -55.076      -14.028       -8.458       29.471       45.763       20.380      868.517     2094.257      415.360        0.334        0.169       56.834       17.547        0.095      331.404       -0.603      851.898
12/06/2013  21:18:00      -47.420      -57.380        7.966       56.448       39.214       23.777     3186.340     1537.736      565.356        0.545        0.264       74.439       24.824        0.111      331.443       -0.540      851.939
12/06/2013  21:19:00     -126.455      -93.309        0.728       46.464       68.162       26.399     2158.886     4646.071      696.918        1.610        0.375      157.154       13.141        0.007      331.401       -0.609      851.941
12/06/2013  21:20:00      -15.650      -57.722       -3.886       87.214       60.725       26.127     7606.332     3687.556      682.621        0.778        0.599       59.806       20.993        0.123      331.372       -0.655      851.890
12/06/2013  21:21:00       45.575      -70.400        9.734       59.389       71.872       47.008     3527.075     5165.553     2209.711        0.901        0.545       83.864       49.092        0.343      331.452       -0.525      851.861
12/06/2013  21:22:00       81.342     -122.689       -7.663       89.320      113.366       55.227     7977.980    12851.886     3050.055        2.280        1.194      147.205       54.956        0.139      331.403       -0.605      851.862
12/06/2013  21:23:00       97.160     -172.666       -5.449      115.294       91.059       67.384    13292.687     8291.696     4540.623        3.270        1.306      198.125       65.046        0.108      331.359       -0.679      851.843
12/06/2013  21:24:00       24.465     -114.484      -11.749       67.998       72.713       48.882     4623.711     5287.181     2389.429        1.307        0.615      117.069       44.441        0.144      331.425       -0.570      851.854
12/06/2013  21:25:00      -17.391     -117.686       12.792      108.218       89.337       45.736    11711.127     7981.123     2091.787        1.805        1.089      118.964       46.009        0.150      331.505       -0.437      851.842
12/06/2013  21:26:00       43.028      -81.952        8.167       84.528       73.400       50.030     7145.061     5387.514     2502.993        1.183        0.752       92.561       46.105        0.248      331.421       -0.575      851.870
12/06/2013  21:27:00      -12.449      -98.744       -0.335       88.879       77.053       46.788     7899.484     5937.221     2189.142        1.296        0.801       99.526       50.082        0.253      331.440       -0.545      851.865
12/06/2013  21:28:00       53.587      -23.241       29.925       56.266       52.162       42.541     3165.910     2720.838     1809.719        0.600        0.385       58.410       44.124        0.571      331.316       -0.746      851.843
12/06/2013  21:29:00      -32.869      -66.340       -3.370       72.570       58.661       35.612     5266.442     3441.095     1268.181        0.773        0.499       74.036       18.814        0.065      331.345       -0.701      851.852
12/06/2013  21:30:00      -39.663      -75.375       -0.919       58.218       39.400       30.438     3389.309     1552.395      926.467        0.656        0.293       85.174       18.226        0.046      331.314       -0.750      851.861
12/06/2013  21:31:00       38.687     -102.163       16.063       94.951      106.812       48.141     9015.638    11408.838     2317.554        1.746        1.137      109.242       57.323        0.275      331.369       -0.662      851.831
12/06/2013  21:32:00      -59.734      -68.397        1.832       56.486       65.736       33.316     3190.678     4321.231     1109.963        0.843        0.431       90.809       34.520        0.145      331.367       -0.663      851.790
12/06/2013  21:33:00      -72.357      -85.035        0.144       50.324       68.113       25.640     2532.552     4639.378      657.426        1.015        0.391      111.654       24.412        0.048      331.119       -1.072      851.751
12/06/2013  21:34:00       -4.575      -33.775       12.286       27.809       42.435       24.998      773.313     1800.692      624.910        0.226        0.160       34.084       16.142        0.224      331.165       -0.995      851.715
12/06/2013  21:35:00       18.302      -97.510       12.665       92.672       89.335       52.914     8588.097     7980.824     2799.881        1.468        0.968       99.212       44.508        0.201      331.240       -0.875      851.709
12/06/2013  21:36:00      -16.887      -23.441       36.849       53.043       65.625       43.751     2813.553     4306.706     1914.124        0.561        0.452       28.890       43.670        2.285      331.276       -0.813      851.704
12/06/2013  21:37:00      -73.858      -69.194       21.450       78.960       75.051       50.879     6234.719     5632.624     2588.691        1.258        0.723      101.207       53.146        0.276      331.281       -0.806      851.693
12/06/2013  21:38:00      -28.857      -26.628        5.506       46.754       41.007       28.108     2185.968     1681.605      790.034        0.311        0.233       39.266       23.062        0.345      331.247       -0.860      851.680
12/06/2013  21:39:00      -12.414        5.943       29.716       30.678       34.003       34.841      941.113     1156.171     1213.901        0.219        0.166       13.763       27.661        4.039      331.238       -0.876      851.630
12/06/2013  21:40:00       70.406      -68.630       34.250       74.879       71.328       51.960     5606.911     5087.716     2699.841        1.211        0.670       98.322       50.660        0.265      331.285       -0.799      851.566
12/06/2013  21:41:00       27.634     -130.442        4.062       74.166       83.355       46.365     5500.594     6948.055     2149.670        1.619        0.730      133.337       42.899        0.104      331.378       -0.646      851.528
12/06/2013  21:42:00        9.794      -56.992       10.313       57.798       64.380       39.309     3340.573     4144.735     1545.161        0.624        0.452       57.827       42.136        0.531      331.367       -0.663      851.498
12/06/2013  21:43:00       -1.563      -63.404       -2.645       43.411       49.886       32.219     1884.493     2488.607     1038.064        0.472        0.271       63.423       30.383        0.229      331.234       -0.883      851.483
12/06/2013  21:44:00      -30.704      -95.200       12.924       59.480       59.388       44.634     3537.905     3526.897     1992.204        0.961        0.453      100.029       36.525        0.133      331.292       -0.788      851.488
12/06/2013  21:45:00       46.621      -16.208       31.137       76.583       62.252       40.174     5864.897     3875.301     1613.932        0.738        0.568       49.358       41.392        0.703      331.269       -0.824      851.463
12/06/2013  21:46:00       34.950      -49.450       44.854       80.255      107.938       62.387     6440.889    11650.590     3892.124        1.383        1.099       60.554       64.721        1.142      331.120       -1.071      851.425
12/06/2013  21:47:00      -96.116      -81.843       -2.140      116.567       61.542       52.645    13587.918     3787.384     2771.519        1.804        1.007      126.240       50.102        0.158      331.143       -1.035      851.418
12/06/2013  21:48:00      -69.587      -57.268        7.884       69.277       81.599       42.374     4799.308     6658.354     1795.585        1.072        0.663       90.122       48.434        0.289      331.134       -1.048      851.422
12/06/2013  21:49:00       22.623      -96.478       17.677      101.539      113.616       70.881    10310.262    12908.587     5024.155        1.918        1.412       99.095       72.915        0.541      331.207       -0.928      851.381
12/06/2013  21:50:00       11.728      -75.221       29.455       44.818       82.893       50.892     2008.689     6871.215     2589.987        0.906        0.573       76.129       58.867        0.598      331.277       -0.811      851.317
12/06/2013  21:51:00       61.780     -111.769      -16.116       78.746       98.673       47.668     6200.946     9736.281     2272.241        1.739        0.910      127.707       45.034        0.124      331.247       -0.862      851.300
12/06/2013  21:52:00      -43.313      -94.885        3.081       78.892       55.378       39.509     6223.903     3066.677     1560.958        1.087        0.543      104.303       37.089        0.126      331.282       -0.803      851.274
12/06/2013  21:53:00      -18.341     -112.247        7.585       75.722      127.139       52.422     5733.768    16164.436     2748.072        1.881        1.232      113.736       39.245        0.119      331.339       -0.711      851.234
12/06/2013  21:54:00        8.978      -77.050       -1.123       54.631       85.073       37.460     2984.543     7237.492     1403.278        0.882        0.581       77.572       33.379        0.185      331.318       -0.744      851.197
12/06/2013  21:55:00      -37.348      -17.942       54.497       67.758       94.336       58.181     4591.196     8899.328     3385.070        1.078        0.844       41.434       63.252        2.330      331.303       -0.768      851.124
12/06/2013  21:56:00       46.520     -130.145       27.288       91.971      158.681       87.848     8458.615    25179.644     7717.290        3.059        2.068      138.209       98.304        0.506      331.260       -0.840      851.118
12/06/2013  21:57:00       -4.741     -175.683       -9.769      153.164      112.674       91.590    23459.094    12695.535     8388.684        3.775        2.227      175.747       70.341        0.160      331.168       -0.994      851.102
12/06/2013  21:58:00      -54.773      -71.155        4.736       84.126       84.595       48.119     7077.259     7156.314     2315.441        1.231        0.827       89.795       37.015        0.170      331.189       -0.956      851.112
12/06/2013  21:59:00       -9.751     -234.665       24.285      131.324      125.636       67.461    17245.965    15784.399     4550.979        4.666        1.879      234.867       51.258        0.048      331.279       -0.811      851.087
12/06/2013  22:00:00       77.179     -157.300       32.105      101.598      179.169       83.198    10322.060    32101.550     6921.830        4.053        2.467      175.214       99.993        0.326      331.299       -0.778      851.079
12/06/2013  22:01:00       86.802     -138.468        3.920      107.180       79.113       54.447    11487.464     6258.830     2964.513        2.371        1.036      163.426       41.441        0.064      331.249       -0.859      851.109
12/06/2013  22:02:00       29.831      -66.987       14.661      116.036       78.047       58.810    13464.341     6091.411     3458.660        1.430        1.151       73.329       49.935        0.464      331.146       -1.027      851.103
12/06/2013  22:03:00      144.914     -180.614      -14.090       98.615      121.477       63.393     9724.992    14756.566     4018.723        4.115        1.425      231.563       66.936        0.084      330.965       -1.327      851.084
12/06/2013  22:04:00       73.203     -134.290        0.071       76.857      118.464       46.503     5906.948    14033.703     2162.557        2.274        1.105      152.946       52.140        0.116      331.099       -1.105      851.066
12/06/2013  22:05:00      -30.810      -53.943        9.147       31.175       62.104       35.980      971.854     3856.923     1294.556        0.503        0.306       62.122       33.180        0.285      331.162       -1.001      851.021
12/06/2013  22:06:00      -12.085     -135.270       21.040      121.992      101.793       64.521    14882.159    10361.790     4162.945        2.414        1.470      135.809       45.473        0.112      331.148       -1.026      851.052
12/06/2013  22:07:00       98.553     -160.721       -2.928      116.223      148.293       67.651    13507.860    21990.863     4576.676        3.781        2.004      188.531       74.913        0.158      330.991       -1.285      851.052
12/06/2013  22:08:00       51.996      -81.838       27.161      105.138      106.376       65.393    11053.918    11315.812     4276.274        1.839        1.332       96.959       68.788        0.503      331.090       -1.119      851.038
12/06/2013  22:09:00       84.544     -167.221       -6.309      143.218       95.897       67.367    20511.366     9196.142     4538.326        3.469        1.712      187.378       54.677        0.085      331.048       -1.190      851.016
12/06/2013  22:10:00       71.205     -269.303      -17.615      182.572      156.452       85.800    33332.594    24477.374     7361.631        7.152        3.259      278.557       73.359        0.069      331.170       -0.989      850.997
12/06/2013  22:11:00      112.052     -133.480       40.336      100.990      131.274       74.102    10199.057    17232.884     5491.159        3.245        1.646      174.277       69.650        0.160      331.045       -1.195      850.959
12/06/2013  22:12:00        6.295       -1.772       58.007       91.076       98.593       77.149     8294.763     9720.659     5951.930        1.368        1.198        6.540       73.362      125.833      331.032       -1.214      850.896
12/06/2013  22:13:00      -33.867     -102.924       17.794      129.678      103.763       56.988    16816.409    10766.786     3247.626        2.144        1.542      108.353       53.108        0.240      331.166       -0.997      850.900
12/06/2013  22:14:00        6.220     -264.293      -11.114      150.319      159.629       66.938    22595.894    25481.498     4480.744        6.128        2.628      264.366       37.918        0.021      331.126       -1.063      850.890
12/06/2013  22:15:00      -22.182     -162.718      -11.755      105.733      136.938       60.288    11179.399    18751.916     3634.619        3.033        1.678      164.223       55.997        0.116      331.116       -1.078      850.926
12/06/2013  22:16:00       46.724     -119.454        6.227      126.982      139.566       68.974    16124.315    19478.724     4757.481        2.842        2.018      128.267       85.978        0.449      331.044       -1.197      850.913
12/06/2013  22:17:00       70.328      -37.234       47.892      126.463      151.738       81.604    15992.831    23024.462     6659.150        2.714        2.284       79.576      111.859        1.976      331.059       -1.171      850.897
12/06/2013  22:18:00       67.228     -258.793       -2.500      116.424      230.789       74.937    13554.494    53263.500     5615.570        7.195        3.622      267.382       87.795        0.108      331.061       -1.169      850.904
12/06/2013  22:19:00      104.686     -248.180        9.684      116.356      160.842       99.076    13538.660    25870.149     9816.112        6.093        2.461      269.356      100.533        0.139      331.062       -1.169      850.887
12/06/2013  22:20:00      105.766     -139.260       22.303      108.775      143.873       70.633    11831.909    20699.315     4989.066        3.429        1.876      174.870       67.250        0.148      330.983       -1.296      850.841
12/06/2013  22:21:00       -1.089     -136.619       27.730      105.342      144.617       81.827    11096.990    20914.204     6695.659        2.906        1.935      136.623       82.088        0.361      331.023       -1.233      850.822
12/06/2013  22:22:00        3.161     -108.122        9.161      106.715      102.319       65.123    11388.096    10469.193     4240.951        1.894        1.305      108.168       56.306        0.271      331.015       -1.243      850.792
12/06/2013  22:23:00       11.047      -90.533       67.230      107.807      157.465      112.853    11622.361    24795.310    12735.774        3.099        2.458       91.205      113.779        1.556      330.985       -1.294      850.762
12/06/2013  22:24:00      122.432     -298.075      -19.875      181.958      127.508       91.702    33108.562    16258.191     8409.216        8.099        2.889      322.240       69.073        0.046      331.039       -1.206      850.778
12/06/2013  22:25:00       65.643     -150.339        1.875       87.899      119.397       61.586     7726.304    14255.559     3792.884        2.634        1.289      164.045       60.848        0.138      331.093       -1.117      850.801
12/06/2013  22:26:00       70.721     -271.044       13.221      243.891      166.901       98.919    59483.063    27856.097     9785.034        8.786        4.856      280.119       90.783        0.105      331.044       -1.199      850.839
12/06/2013  22:27:00       55.769     -258.255       -6.450      144.232      207.469      106.976    20802.746    43043.350    11443.881        7.255        3.764      264.208      101.523        0.148      331.057       -1.176      850.861
12/06/2013  22:28:00       87.718     -129.376       32.805      125.462      210.357      111.310    15740.831    44250.092    12389.826        4.893        3.619      156.309      130.082        0.693      330.937       -1.373      850.799
12/06/2013  22:29:00       20.477     -145.353       -6.912      166.627      129.371       72.408    27764.408    16736.894     5242.956        3.566        2.487      146.789       67.047        0.209      331.000       -1.269      850.752
12/06/2013  22:30:00       71.921     -172.618      -10.418      136.188      149.299       82.168    18547.182    22290.192     6751.652        4.132        2.379      187.002       86.314        0.213      330.923       -1.396      850.699
12/06/2013  22:31:00      180.089     -287.441       23.048      143.757      202.335      104.014    20665.993    40939.531    10818.902        9.399        3.621      339.196      112.804        0.111      330.952       -1.348      850.681
12/06/2013  22:32:00      103.520     -173.455       29.379      118.595      237.773       89.439    14064.830    56535.859     7999.247        6.012        3.930      201.998      121.352        0.361      330.950       -1.352      850.709
12/06/2013  22:33:00      106.486     -111.735       22.103      101.755      145.235       77.652    10354.161    21093.234     6029.903        3.089        1.874      154.351       97.064        0.395      330.911       -1.414      850.703
12/06/2013  22:34:00        1.445      -60.776        3.414       51.129       73.720       37.717     2614.211     5434.625     1422.569        0.659        0.474       60.793       26.799        0.194      331.006       -1.257      850.694
12/06/2013  22:35:00       15.326       33.468       70.500       47.107       74.207       51.537     2219.049     5506.727     2656.026        0.835        0.519       36.810       34.936        0.901      330.965       -1.326      850.664
12/06/2013  22:36:00        4.612      -69.100       27.626      105.436      137.144       63.755    11116.710    18808.406     4064.720        1.977        1.699       69.254       69.893        1.019      331.077       -1.142      850.637
12/06/2013  22:37:00       58.257      -42.542       19.777       45.351       91.175       56.782     2056.695     8312.966     3224.191        0.959        0.680       72.136       61.169        0.719      330.973       -1.311      850.634
12/06/2013  22:38:00       -6.448       34.223       89.207       29.005       72.083       43.498      841.277     5195.994     1892.116        0.855        0.396       34.825       51.028        2.147      330.927       -1.386      850.638
12/06/2013  22:39:00       80.641     -189.099       22.169      180.984      185.575       90.035    32755.090    34438.084     8106.220        5.901        3.765      205.575      113.068        0.303      330.909       -1.418      850.662
12/06/2013  22:40:00       -0.435       -1.320       67.901       46.759       90.443       84.056     2186.393     8179.972     7065.467        1.102        0.872        1.390       69.141     2473.523      330.926       -1.389      850.629
12/06/2013  22:41:00       28.825        9.580      102.749       76.764      141.360       79.979     5892.743    19982.587     6396.646        2.187        1.614       30.375       80.711        7.061      330.860       -1.498      850.615
12/06/2013  22:42:00       -0.792      -95.582       26.636      109.719      114.756       61.870    12038.248    13168.937     3827.925        1.943        1.452       95.586       61.750        0.417      331.024       -1.228      850.620
12/06/2013  22:43:00      134.911     -204.649        0.518      135.687      237.112      101.372    18410.911    56222.308    10276.336        7.248        4.245      245.116      126.005        0.264      330.861       -1.496      850.636
12/06/2013  22:44:00      116.719     -179.752       12.236       92.658      108.555       73.744     8585.498    11784.296     5438.129        3.594        1.290      214.323       68.885        0.103      330.997       -1.274      850.659
12/06/2013  22:45:00      118.358     -175.362       30.409      108.756      149.218       88.793    11827.882    22265.973     7884.172        4.382        2.099      211.567       81.064        0.147      330.904       -1.427      850.638
12/06/2013  22:46:00       47.896     -189.681       29.287       79.604      201.046       92.006     6336.778    40419.350     8465.048        4.716        2.761      195.634      122.694        0.393      330.986       -1.292      850.607
12/06/2013  22:47:00       39.558     -202.464      -11.025      114.035      185.325       61.787    13003.897    34345.290     3817.664        4.691        2.558      206.293       80.834        0.154      330.995       -1.276      850.593
12/06/2013  22:48:00       -6.951      -48.749       96.820      107.717      195.728      103.647    11602.886    38309.503    10742.606        3.621        3.033       49.242      114.810        5.436      330.956       -1.340      850.520
12/06/2013  22:49:00      151.618     -138.749       49.726      146.315      154.687       86.440    21407.957    23927.934     7471.837        4.875        2.640      205.522       95.354        0.215      330.947       -1.356      850.488
12/06/2013  22:50:00      101.580     -147.542       28.684      123.422      155.679       88.817    15232.971    24235.854     7888.427        4.012        2.368      179.129       85.634        0.229      331.004       -1.263      850.403
12/06/2013  22:51:00       43.778     -179.068        3.300      121.814      138.293       78.941    14838.556    19124.942     6231.648        3.709        2.010      184.342       76.051        0.170      330.937       -1.374      850.403
12/06/2013  22:52:00       34.178     -121.398        2.099      126.122      146.913       72.140    15906.822    21583.409     5204.143        2.929        2.135      126.117       79.322        0.396      331.042       -1.200      850.403
12/06/2013  22:53:00      170.431     -221.075        9.472       89.731      195.062       78.134     8051.722    38049.214     6104.848        6.510        2.610      279.143       84.766        0.092      330.943       -1.363      850.305
12/06/2013  22:54:00       95.466     -202.642        1.939       98.356      124.199       73.531     9673.842    15425.429     5406.836        4.034        1.525      224.004       53.066        0.056      330.951       -1.350      850.190
12/06/2013  22:55:00       28.006      -69.294       58.208       83.975      165.073       95.238     7051.884    27248.969     9070.314        2.616        2.169       74.739       94.455        1.597      330.927       -1.389      850.209
12/06/2013  22:56:00       42.031     -127.969        7.448       79.003      131.273       87.031     6241.428    17232.687     7574.452        2.462        1.552      134.695       77.353        0.330      330.928       -1.387      850.236
12/06/2013  22:57:00      117.303     -159.718       16.126       87.920      162.094       82.477     7730.006    26274.427     6802.457        4.016        2.040      198.167       87.000        0.193      330.928       -1.387      850.222
12/06/2013  22:58:00      104.698     -206.516        3.582      129.318      126.450       81.791    16723.241    15989.550     6689.702        4.651        1.970      231.539       74.326        0.103      331.018       -1.239      850.216
12/06/2013  22:59:00      -19.422       21.824      108.247      132.982      142.628      106.007    17684.165    20342.629    11237.547        3.091        2.463       29.215      107.532       13.548      330.929       -1.384      850.119
12/06/2013  23:00:00      100.478     -184.617       37.933      135.225      164.363       90.662    18285.928    27015.121     8219.687        4.956        2.676      210.188       88.753        0.178      330.843       -1.528      850.107
12/06/2013  23:01:00      125.262     -222.962        0.792      140.366      178.951       89.192    19702.570    32023.315     7955.271        6.253        2.984      255.740       94.617        0.137      330.951       -1.350      850.142
12/06/2013  23:02:00       36.415      -72.519       52.036      106.245      113.824       83.073    11287.943    12955.821     6901.041        2.021        1.557       81.148       73.844        0.828      330.922       -1.395      850.077
12/06/2013  23:03:00        3.941     -119.317      -12.359       90.886      115.593       69.843     8260.324    13361.809     4877.997        2.045        1.325      119.382       64.197        0.289      330.998       -1.272      850.076
12/06/2013  23:04:00      114.197      -77.493       55.734      124.897      157.276      100.115    15599.179    24735.845    10023.007        3.625        2.518      138.007      112.073        0.659      330.892       -1.447      850.124
12/06/2013  23:05:00      119.918     -165.485       40.732       95.633      184.157       73.138     9145.681    33913.911     5349.137        4.591        2.420      204.366       92.165        0.203      330.906       -1.423      850.111
12/06/2013  23:06:00       24.522        6.578       81.890       96.876      128.370       73.166     9384.891    16478.759     5353.317        1.928        1.561       25.389       81.938       10.416      330.824       -1.557      850.037
12/06/2013  23:07:00        9.598       43.188      148.093       91.971      122.599       85.095     8458.695    15030.565     7241.083        2.730        1.537       44.241       82.433        3.472      330.858       -1.500      849.986
12/06/2013  23:08:00      168.635     -197.075      -16.778      124.299      129.313       78.908    15450.173    16721.976     6226.491        5.297        1.920      259.376       72.356        0.078      330.930       -1.384      849.992
12/06/2013  23:09:00       23.235     -124.214       17.792       82.983      117.075       70.145     6886.181    13706.587     4920.334        2.089        1.276      126.368       56.243        0.198      330.982       -1.299      849.984
12/06/2013  23:10:00       54.705     -126.681       12.534       85.994      137.056       71.524     7394.943    18784.375     5115.715        2.524        1.565      137.988       87.812        0.405      330.952       -1.347      849.966
12/06/2013  23:11:00       77.813     -206.318        1.961      102.920      144.824       72.631    10592.575    20973.872     5275.318        4.273        1.842      220.504       74.126        0.113      330.990       -1.285      849.997
12/06/2013  23:12:00      128.913     -198.309       22.023      113.467      164.543       92.442    12874.757    27074.330     8545.514        5.245        2.425      236.527       96.122        0.165      330.958       -1.338      850.001
12/06/2013  23:13:00       66.392      -69.700       56.393       97.433      142.446       86.868     9493.168    20290.832     7546.041        2.488        1.867       96.260       87.431        0.825      331.003       -1.264      849.935
12/06/2013  23:14:00      136.335     -144.859       30.963      132.978      177.076       87.368    17683.031    31356.055     7633.113        4.859        2.834      198.926       99.420        0.250      330.974       -1.312      849.859
12/06/2013  23:15:00      100.433     -185.363       -6.568      134.699      175.417       60.146    18143.877    30771.202     3617.494        4.850        2.627      210.823       72.799        0.119      330.993       -1.281      849.858
12/06/2013  23:16:00       26.279      -49.507       77.542       93.880      152.136       69.975     8813.513    23145.318     4896.510        2.300        1.843       56.050       81.808        2.130      330.938       -1.370      849.893
12/06/2013  23:17:00      138.156     -157.978       45.071       85.033      157.312       71.547     7230.666    24746.943     5118.997        4.158        1.855      209.867       75.323        0.129      331.013       -1.246      849.958
12/06/2013  23:18:00       42.576      -21.223       59.864       78.180       67.655       45.945     6112.095     4577.240     2110.902        0.932        0.640       47.572       39.541        0.691      331.079       -1.137      849.995
12/06/2013  23:19:00      -45.768      -47.722        9.721       40.793       53.114       44.932     1664.108     2821.075     2018.890        0.548        0.325       66.122       39.282        0.353      331.095       -1.112      850.012
12/06/2013  23:20:00       30.713      -32.889       23.532       85.920       99.232       57.109     7382.298     9846.977     3261.447        1.153        1.025       44.999       61.701        1.880      331.044       -1.198      849.969
12/06/2013  23:21:00       50.625     -104.570       29.494       73.315      103.462       68.964     5375.098    10704.446     4755.968        1.760        1.042      116.180       67.275        0.335      331.029       -1.220      849.898
12/06/2013  23:22:00        6.576       66.778      109.241       52.938       84.007       63.386     2802.419     7057.167     4017.838        1.515        0.694       67.101       69.587        1.075      330.939       -1.367      849.888
12/06/2013  23:23:00      133.934     -101.701       68.214      146.552      205.395       84.477    21477.609    42187.222     7136.329        5.185        3.540      168.170       87.745        0.272      330.947       -1.355      849.911
12/06/2013  23:24:00       58.484      -86.644       14.237       90.369      115.613       63.164     8166.549    13366.366     3989.649        1.832        1.276      104.535       67.375        0.415      331.081       -1.136      849.898
12/06/2013  23:25:00        8.774     -147.700       11.740      136.808      129.875       68.437    18716.491    16867.395     4683.650        3.114        2.013      147.960       76.770        0.269      331.240       -0.874      849.916
12/06/2013  23:26:00      182.080     -319.530      -21.173      128.601      157.711       81.471    16538.097    24872.836     6637.542        9.187        2.402      367.767       59.187        0.026      331.025       -1.228      849.897
12/06/2013  23:27:00        9.240      -45.904       28.038       53.056      125.103       56.448     2814.934    15650.695     3186.361        1.231        1.083       46.825       60.976        1.696      331.098       -1.107      849.887
12/06/2013  23:28:00       81.238     -183.587       -6.463       87.672      146.843       46.002     7686.341    21562.780     2116.141        3.585        1.568      200.758       61.628        0.094      331.020       -1.235      849.872
12/06/2013  23:29:00       87.319     -147.373        9.644      158.156      125.786       69.905    25013.242    15822.025     4886.675        3.757        2.286      171.299       66.312        0.150      331.054       -1.180      849.849
12/06/2013  23:30:00      116.916     -130.313       15.483      100.285      148.119       89.413    10057.167    21939.354     7994.761        3.543        2.000      175.074       97.148        0.308      330.987       -1.290      849.792
12/06/2013  23:31:00       96.947     -141.322       13.203      138.876       87.462       57.034    19286.444     7649.536     3252.837        2.986        1.509      171.379       54.708        0.102      331.104       -1.098      849.747
12/06/2013  23:32:00       41.558     -105.384        2.161       67.781       83.826       64.238     4594.201     7026.770     4126.472        1.429        0.787      113.282       51.203        0.204      331.046       -1.192      849.795
12/06/2013  23:33:00       74.933     -119.138        1.006       90.052       90.163       65.637     8109.366     8129.434     4308.228        2.017        1.027      140.744       63.683        0.205      330.986       -1.290      849.809
12/06/2013  23:34:00       77.116      -55.580       40.850       88.277       91.607       58.066     7792.806     8391.876     3371.648        1.513        0.978       95.058       57.505        0.366      330.985       -1.293      849.813
12/06/2013  23:35:00      -22.645     -123.364       28.809      107.601      146.555       82.304    11578.037    21478.374     6773.921        2.819        1.992      125.425       87.164        0.483      330.952       -1.348      849.801
12/06/2013  23:36:00       47.578      -60.363       26.663       61.251       85.636       36.333     3751.705     7333.552     1320.054        0.951        0.620       76.859       41.980        0.298      330.966       -1.324      849.816
12/06/2013  23:37:00       14.140       -9.743       36.708       71.290       67.368       44.595     5082.219     4538.505     1988.758        0.662        0.580       17.172       39.277        5.232      330.936       -1.372      849.839
12/06/2013  23:38:00       94.613     -110.654       30.727      115.527      174.497      111.954    13346.525    30449.096    12533.662        3.922        2.816      145.588      120.952        0.690      330.834       -1.543      849.793
12/06/2013  23:39:00       40.354     -163.228        2.553      123.886      112.246       62.940    15347.848    12599.125     3961.481        3.009        1.595      168.142       47.715        0.081      330.904       -1.426      849.800
12/06/2013  23:40:00      119.854     -140.617       15.187       99.077      146.852       79.816     9816.267    21565.400     6370.640        3.605        1.888      184.765       86.107        0.217      330.830       -1.548      849.787
12/06/2013  23:41:00      -34.065     -213.847      -16.341      148.740      103.548       68.230    22123.519    10722.150     4655.297        4.232        1.875      216.543       63.475        0.086      330.973       -1.315      849.754
12/06/2013  23:42:00      -49.969     -162.055       -0.423       80.415       84.476       53.382     6466.543     7136.274     2849.643        2.260        0.823      169.584       39.415        0.054      331.047       -1.192      849.796
12/06/2013  23:43:00      -21.335      -69.536        5.852       40.359       84.822       45.540     1628.856     7194.831     2073.859        0.811        0.545       72.735       33.391        0.211      330.992       -1.282      849.777
12/06/2013  23:44:00       20.394      -60.273       14.343       58.743       82.912       62.625     3450.765     6874.436     3921.943        0.925        0.712       63.630       53.100        0.696      330.869       -1.481      849.803
12/06/2013  23:45:00       -7.517       28.976       72.169       62.900       71.189       46.830     3956.433     5067.849     2193.069        0.866        0.561       29.935       36.703        1.503      330.802       -1.593      849.781
12/06/2013  23:46:00      -47.315      -85.731       14.173       83.305      100.315       47.798     6939.732    10063.074     2284.605        1.453        0.964       97.920       43.331        0.196      330.937       -1.371      849.828
12/06/2013  23:47:00       34.654     -132.648        0.907      120.185      102.842       63.838    14444.494    10576.511     4075.302        2.394        1.455      137.100       53.050        0.150      330.928       -1.385      849.864
12/06/2013  23:48:00      -76.788     -113.936       -3.013      123.927      112.585       58.743    15357.790    12675.357     3450.760        2.518        1.574      137.397       50.141        0.133      330.983       -1.298      849.882
12/06/2013  23:49:00       -6.705      -18.322       39.167       61.401       91.000       34.385     3770.067     8281.044     1182.302        0.757        0.662       19.510       28.646        2.156      330.954       -1.341      849.833
12/06/2013  23:50:00      -38.665      -48.396       17.939       65.544       65.849       39.676     4295.980     4336.036     1574.154        0.718        0.510       61.945       36.873        0.354      330.935       -1.373      849.831
12/06/2013  23:51:00       68.323     -135.936       12.031      114.876      114.765       62.282    13196.543    13170.930     3879.039        2.676        1.512      152.140       68.267        0.201      331.022       -1.232      849.787
12/06/2013  23:52:00       17.188      -57.800       12.651       80.594      115.506       72.014     6495.462    13341.719     5186.041        1.440        1.251       60.302       63.903        1.123      330.885       -1.457      849.771
12/06/2013  23:53:00       41.522     -129.380        7.969       85.970       75.617       56.612     7390.897     5717.893     3204.908        1.742        0.816      135.880       53.073        0.153      330.958       -1.338      849.750
12/06/2013  23:54:00      143.062     -220.676      -14.556      111.251       89.087       67.015    12376.826     7936.460     4491.015        4.709        1.240      262.992       64.259        0.060      330.845       -1.525      849.743
12/06/2013  23:55:00       89.453     -245.974       -8.102      111.587      126.220       73.054    12451.697    15931.478     5336.918        5.114        1.686      261.735       66.529        0.065      330.958       -1.339      849.735
12/06/2013  23:56:00       -4.378      -78.573       47.837       94.562       88.399       55.930     8942.037     7814.340     3128.144        1.418        0.994       78.695       45.358        0.332      331.043       -1.198      849.714
12/06/2013  23:57:00      -19.855      -16.817       14.091       53.257       94.574       44.949     2836.297     8944.317     2020.386        0.734        0.690       26.019       49.513        3.621      330.911       -1.412      849.694
12/06/2013  23:58:00       72.628     -141.458       29.076       92.951      149.522       79.480     8639.809    22356.941     6317.004        3.171        1.866      159.013       85.243        0.287      331.018       -1.239      849.647
12/06/2013  23:59:00       82.139     -104.369       58.376      103.988      167.711       85.579    10813.584    28127.087     7323.763        3.365        2.313      132.815       98.349        0.548      330.859       -1.501      849.583
